<?xml version="1.0" encoding="UTF-8" standalone="no" ?>
<gpx xmlns="http://www.topografix.com/GPX/1/1" xmlns:xsi="http://www.w3.org/2001/XMLSchema-instance" xsi:schemaLocation="http://www.topografix.com/GPX/1/1 http://www.topografix.com/GPX/1/1/gpx.xsd" version="1.1" creator="VisuGPX - https://www.visugpx.com">
  <metadata>
    <name>Edirne-Mostar</name>
  </metadata>
  <trk>
    <name><![CDATA[Tour d'Europe: étape 667]]></name>
    <extensions>
      <line xmlns="http://www.topografix.com/GPX/gpx_style/0/2">
        <color>00FFFF</color>
        <width>4</width>
      </line>
    </extensions>
    <trkseg>
      <trkpt lat="41.62242" lon="20.60691">
        <ele>745.165181</ele>
        <time>2022-04-26T09:02:44.230Z</time>
      </trkpt>
      <trkpt lat="41.62265" lon="20.60719">
        <ele>745.165181</ele>
        <time>2022-04-26T09:14:13.465Z</time>
      </trkpt>
      <trkpt lat="41.62269" lon="20.60707">
        <ele>745.165181</ele>
        <time>2022-04-26T09:14:21.463Z</time>
      </trkpt>
      <trkpt lat="41.62278" lon="20.60701">
        <ele>745.165181</ele>
        <time>2022-04-26T09:14:27.460Z</time>
      </trkpt>
      <trkpt lat="41.62295" lon="20.60695">
        <ele>745.165181</ele>
        <time>2022-04-26T09:14:33.518Z</time>
      </trkpt>
      <trkpt lat="41.62302" lon="20.60689">
        <ele>745.165181</ele>
        <time>2022-04-26T09:14:38.450Z</time>
      </trkpt>
      <trkpt lat="41.62325" lon="20.6067">
        <ele>744.579379</ele>
        <time>2022-04-26T09:15:05.458Z</time>
      </trkpt>
      <trkpt lat="41.62319" lon="20.6066">
        <ele>744.18355</ele>
        <time>2022-04-26T09:15:12.477Z</time>
      </trkpt>
      <trkpt lat="41.62309" lon="20.60664">
        <ele>743.7741</ele>
        <time>2022-04-26T09:15:15.458Z</time>
      </trkpt>
      <trkpt lat="41.623" lon="20.60667">
        <ele>743.369317</ele>
        <time>2022-04-26T09:15:18.449Z</time>
      </trkpt>
      <trkpt lat="41.62289" lon="20.60669">
        <ele>742.919535</ele>
        <time>2022-04-26T09:15:21.455Z</time>
      </trkpt>
      <trkpt lat="41.62277" lon="20.60674">
        <ele>742.428717</ele>
        <time>2022-04-26T09:15:24.450Z</time>
      </trkpt>
      <trkpt lat="41.62266" lon="20.60678">
        <ele>741.97432</ele>
        <time>2022-04-26T09:15:27.448Z</time>
      </trkpt>
      <trkpt lat="41.62257" lon="20.60684">
        <ele>741.541326</ele>
        <time>2022-04-26T09:15:30.460Z</time>
      </trkpt>
      <trkpt lat="41.62246" lon="20.60693">
        <ele>741.053736</ele>
        <time>2022-04-26T09:15:33.446Z</time>
      </trkpt>
      <trkpt lat="41.62236" lon="20.60704">
        <ele>740.506448</ele>
        <time>2022-04-26T09:15:36.474Z</time>
      </trkpt>
      <trkpt lat="41.62228" lon="20.60713">
        <ele>740.082069</ele>
        <time>2022-04-26T09:15:38.450Z</time>
      </trkpt>
      <trkpt lat="41.62221" lon="20.60722">
        <ele>739.678051</ele>
        <time>2022-04-26T09:15:40.452Z</time>
      </trkpt>
      <trkpt lat="41.62213" lon="20.60733">
        <ele>739.241117</ele>
        <time>2022-04-26T09:15:42.462Z</time>
      </trkpt>
      <trkpt lat="41.62204" lon="20.60742">
        <ele>738.784845</ele>
        <time>2022-04-26T09:15:44.449Z</time>
      </trkpt>
      <trkpt lat="41.62194" lon="20.60751">
        <ele>738.274619</ele>
        <time>2022-04-26T09:15:46.458Z</time>
      </trkpt>
      <trkpt lat="41.62182" lon="20.60759">
        <ele>737.896817</ele>
        <time>2022-04-26T09:15:48.447Z</time>
      </trkpt>
      <trkpt lat="41.62172" lon="20.60764">
        <ele>737.968269</ele>
        <time>2022-04-26T09:15:50.450Z</time>
      </trkpt>
      <trkpt lat="41.62162" lon="20.60769">
        <ele>738.034913</ele>
        <time>2022-04-26T09:15:52.482Z</time>
      </trkpt>
      <trkpt lat="41.62153" lon="20.60774">
        <ele>738.101206</ele>
        <time>2022-04-26T09:15:54.446Z</time>
      </trkpt>
      <trkpt lat="41.62144" lon="20.60778">
        <ele>738.164444</ele>
        <time>2022-04-26T09:15:56.454Z</time>
      </trkpt>
      <trkpt lat="41.62135" lon="20.60782">
        <ele>738.227517</ele>
        <time>2022-04-26T09:15:58.445Z</time>
      </trkpt>
      <trkpt lat="41.62126" lon="20.60786">
        <ele>738.28718</ele>
        <time>2022-04-26T09:16:00.446Z</time>
      </trkpt>
      <trkpt lat="41.62113" lon="20.6079">
        <ele>738.373085</ele>
        <time>2022-04-26T09:16:03.452Z</time>
      </trkpt>
      <trkpt lat="41.62105" lon="20.60793">
        <ele>738.432459</ele>
        <time>2022-04-26T09:16:05.453Z</time>
      </trkpt>
      <trkpt lat="41.62096" lon="20.60796">
        <ele>738.492563</ele>
        <time>2022-04-26T09:16:07.447Z</time>
      </trkpt>
      <trkpt lat="41.62083" lon="20.608">
        <ele>738.577756</ele>
        <time>2022-04-26T09:16:10.480Z</time>
      </trkpt>
      <trkpt lat="41.6207" lon="20.60802">
        <ele>738.659271</ele>
        <time>2022-04-26T09:16:13.452Z</time>
      </trkpt>
      <trkpt lat="41.62058" lon="20.60805">
        <ele>738.744928</ele>
        <time>2022-04-26T09:16:16.468Z</time>
      </trkpt>
      <trkpt lat="41.62046" lon="20.60808">
        <ele>738.824068</ele>
        <time>2022-04-26T09:16:19.446Z</time>
      </trkpt>
      <trkpt lat="41.62035" lon="20.60807">
        <ele>738.894657</ele>
        <time>2022-04-26T09:16:22.453Z</time>
      </trkpt>
      <trkpt lat="41.62023" lon="20.60804">
        <ele>738.97123</ele>
        <time>2022-04-26T09:16:25.457Z</time>
      </trkpt>
      <trkpt lat="41.62013" lon="20.60799">
        <ele>739.047472</ele>
        <time>2022-04-26T09:16:28.446Z</time>
      </trkpt>
      <trkpt lat="41.62002" lon="20.6079">
        <ele>738.717284</ele>
        <time>2022-04-26T09:16:31.468Z</time>
      </trkpt>
      <trkpt lat="41.61992" lon="20.60782">
        <ele>738.363746</ele>
        <time>2022-04-26T09:16:34.451Z</time>
      </trkpt>
      <trkpt lat="41.61984" lon="20.60775">
        <ele>738.07832</ele>
        <time>2022-04-26T09:16:37.445Z</time>
      </trkpt>
      <trkpt lat="41.61976" lon="20.60767">
        <ele>737.779125</ele>
        <time>2022-04-26T09:16:40.449Z</time>
      </trkpt>
      <trkpt lat="41.61967" lon="20.6076">
        <ele>737.468398</ele>
        <time>2022-04-26T09:16:43.446Z</time>
      </trkpt>
      <trkpt lat="41.61955" lon="20.60753">
        <ele>737.074925</ele>
        <time>2022-04-26T09:16:46.448Z</time>
      </trkpt>
      <trkpt lat="41.61946" lon="20.60749">
        <ele>736.792494</ele>
        <time>2022-04-26T09:16:48.450Z</time>
      </trkpt>
      <trkpt lat="41.61934" lon="20.60743">
        <ele>736.413844</ele>
        <time>2022-04-26T09:16:51.451Z</time>
      </trkpt>
      <trkpt lat="41.61924" lon="20.60738">
        <ele>736.086806</ele>
        <time>2022-04-26T09:16:54.453Z</time>
      </trkpt>
      <trkpt lat="41.61912" lon="20.60734">
        <ele>735.732259</ele>
        <time>2022-04-26T09:16:57.451Z</time>
      </trkpt>
      <trkpt lat="41.619" lon="20.60727">
        <ele>735.334757</ele>
        <time>2022-04-26T09:17:00.446Z</time>
      </trkpt>
      <trkpt lat="41.6189" lon="20.60722">
        <ele>735.023268</ele>
        <time>2022-04-26T09:17:02.447Z</time>
      </trkpt>
      <trkpt lat="41.6188" lon="20.60718">
        <ele>734.696332</ele>
        <time>2022-04-26T09:17:04.449Z</time>
      </trkpt>
      <trkpt lat="41.61869" lon="20.60714">
        <ele>734.355954</ele>
        <time>2022-04-26T09:17:06.449Z</time>
      </trkpt>
      <trkpt lat="41.61857" lon="20.60712">
        <ele>734.016674</ele>
        <time>2022-04-26T09:17:08.454Z</time>
      </trkpt>
      <trkpt lat="41.61847" lon="20.60709">
        <ele>733.696214</ele>
        <time>2022-04-26T09:17:10.453Z</time>
      </trkpt>
      <trkpt lat="41.61835" lon="20.60706">
        <ele>733.348907</ele>
        <time>2022-04-26T09:17:12.450Z</time>
      </trkpt>
      <trkpt lat="41.61823" lon="20.60705">
        <ele>733.007526</ele>
        <time>2022-04-26T09:17:14.452Z</time>
      </trkpt>
      <trkpt lat="41.61809" lon="20.60705">
        <ele>732.633168</ele>
        <time>2022-04-26T09:17:16.479Z</time>
      </trkpt>
      <trkpt lat="41.61795" lon="20.60706">
        <ele>732.238702</ele>
        <time>2022-04-26T09:17:18.935Z</time>
      </trkpt>
      <trkpt lat="41.61782" lon="20.60709">
        <ele>731.848107</ele>
        <time>2022-04-26T09:17:20.461Z</time>
      </trkpt>
      <trkpt lat="41.61768" lon="20.60714">
        <ele>731.437684</ele>
        <time>2022-04-26T09:17:22.478Z</time>
      </trkpt>
      <trkpt lat="41.61754" lon="20.60719">
        <ele>731.039708</ele>
        <time>2022-04-26T09:17:24.457Z</time>
      </trkpt>
      <trkpt lat="41.6174" lon="20.60723">
        <ele>730.646992</ele>
        <time>2022-04-26T09:17:26.460Z</time>
      </trkpt>
      <trkpt lat="41.61726" lon="20.60727">
        <ele>730.220868</ele>
        <time>2022-04-26T09:17:28.446Z</time>
      </trkpt>
      <trkpt lat="41.61712" lon="20.60731">
        <ele>729.822108</ele>
        <time>2022-04-26T09:17:30.443Z</time>
      </trkpt>
      <trkpt lat="41.61698" lon="20.60733">
        <ele>729.440175</ele>
        <time>2022-04-26T09:17:32.449Z</time>
      </trkpt>
      <trkpt lat="41.61686" lon="20.60732">
        <ele>729.085155</ele>
        <time>2022-04-26T09:17:34.459Z</time>
      </trkpt>
      <trkpt lat="41.61674" lon="20.60729">
        <ele>728.744045</ele>
        <time>2022-04-26T09:17:36.456Z</time>
      </trkpt>
      <trkpt lat="41.61661" lon="20.60724">
        <ele>728.626301</ele>
        <time>2022-04-26T09:17:38.453Z</time>
      </trkpt>
      <trkpt lat="41.61648" lon="20.60719">
        <ele>728.629477</ele>
        <time>2022-04-26T09:17:40.450Z</time>
      </trkpt>
      <trkpt lat="41.61635" lon="20.60713">
        <ele>728.632596</ele>
        <time>2022-04-26T09:17:42.451Z</time>
      </trkpt>
      <trkpt lat="41.61623" lon="20.60707">
        <ele>728.635679</ele>
        <time>2022-04-26T09:17:44.445Z</time>
      </trkpt>
      <trkpt lat="41.61611" lon="20.60702">
        <ele>728.638495</ele>
        <time>2022-04-26T09:17:46.454Z</time>
      </trkpt>
      <trkpt lat="41.616" lon="20.60697">
        <ele>728.641434</ele>
        <time>2022-04-26T09:17:48.449Z</time>
      </trkpt>
      <trkpt lat="41.61588" lon="20.60693">
        <ele>728.644288</ele>
        <time>2022-04-26T09:17:50.476Z</time>
      </trkpt>
      <trkpt lat="41.61578" lon="20.6069">
        <ele>728.646587</ele>
        <time>2022-04-26T09:17:52.449Z</time>
      </trkpt>
      <trkpt lat="41.61569" lon="20.60686">
        <ele>728.648851</ele>
        <time>2022-04-26T09:17:54.449Z</time>
      </trkpt>
      <trkpt lat="41.6156" lon="20.60683">
        <ele>728.651119</ele>
        <time>2022-04-26T09:17:56.478Z</time>
      </trkpt>
      <trkpt lat="41.61548" lon="20.6068">
        <ele>728.653807</ele>
        <time>2022-04-26T09:17:59.452Z</time>
      </trkpt>
      <trkpt lat="41.61539" lon="20.6068">
        <ele>728.656137</ele>
        <time>2022-04-26T09:18:02.461Z</time>
      </trkpt>
      <trkpt lat="41.61529" lon="20.60681">
        <ele>728.658401</ele>
        <time>2022-04-26T09:18:05.451Z</time>
      </trkpt>
      <trkpt lat="41.61518" lon="20.60684">
        <ele>728.66111</ele>
        <time>2022-04-26T09:18:08.448Z</time>
      </trkpt>
      <trkpt lat="41.61505" lon="20.60687">
        <ele>728.664143</ele>
        <time>2022-04-26T09:18:11.445Z</time>
      </trkpt>
      <trkpt lat="41.61493" lon="20.60692">
        <ele>728.724755</ele>
        <time>2022-04-26T09:18:14.451Z</time>
      </trkpt>
      <trkpt lat="41.61482" lon="20.60699">
        <ele>728.955078</ele>
        <time>2022-04-26T09:18:17.451Z</time>
      </trkpt>
      <trkpt lat="41.61472" lon="20.60708">
        <ele>729.172279</ele>
        <time>2022-04-26T09:18:20.454Z</time>
      </trkpt>
      <trkpt lat="41.61465" lon="20.60718">
        <ele>729.367812</ele>
        <time>2022-04-26T09:18:23.456Z</time>
      </trkpt>
      <trkpt lat="41.61459" lon="20.60727">
        <ele>729.551758</ele>
        <time>2022-04-26T09:18:26.453Z</time>
      </trkpt>
      <trkpt lat="41.61451" lon="20.60737">
        <ele>729.745258</ele>
        <time>2022-04-26T09:18:29.472Z</time>
      </trkpt>
      <trkpt lat="41.61444" lon="20.60745">
        <ele>729.917979</ele>
        <time>2022-04-26T09:18:32.442Z</time>
      </trkpt>
      <trkpt lat="41.61437" lon="20.60754">
        <ele>730.103118</ele>
        <time>2022-04-26T09:18:35.482Z</time>
      </trkpt>
      <trkpt lat="41.61429" lon="20.60762">
        <ele>730.296118</ele>
        <time>2022-04-26T09:18:38.466Z</time>
      </trkpt>
      <trkpt lat="41.61421" lon="20.60769">
        <ele>730.479005</ele>
        <time>2022-04-26T09:18:41.451Z</time>
      </trkpt>
      <trkpt lat="41.61412" lon="20.60775">
        <ele>730.658653</ele>
        <time>2022-04-26T09:18:44.456Z</time>
      </trkpt>
      <trkpt lat="41.61404" lon="20.60782">
        <ele>730.839928</ele>
        <time>2022-04-26T09:18:47.458Z</time>
      </trkpt>
      <trkpt lat="41.61396" lon="20.60788">
        <ele>731.022577</ele>
        <time>2022-04-26T09:18:50.451Z</time>
      </trkpt>
      <trkpt lat="41.61388" lon="20.60794">
        <ele>731.200777</ele>
        <time>2022-04-26T09:18:53.452Z</time>
      </trkpt>
      <trkpt lat="41.61379" lon="20.608">
        <ele>731.374774</ele>
        <time>2022-04-26T09:18:56.452Z</time>
      </trkpt>
      <trkpt lat="41.6137" lon="20.60807">
        <ele>731.569088</ele>
        <time>2022-04-26T09:18:59.448Z</time>
      </trkpt>
      <trkpt lat="41.61361" lon="20.60814">
        <ele>731.764091</ele>
        <time>2022-04-26T09:19:02.452Z</time>
      </trkpt>
      <trkpt lat="41.61353" lon="20.6082">
        <ele>731.946069</ele>
        <time>2022-04-26T09:19:05.471Z</time>
      </trkpt>
      <trkpt lat="41.61344" lon="20.60825">
        <ele>732.093353</ele>
        <time>2022-04-26T09:19:08.452Z</time>
      </trkpt>
      <trkpt lat="41.61336" lon="20.60829">
        <ele>732.186279</ele>
        <time>2022-04-26T09:19:11.471Z</time>
      </trkpt>
      <trkpt lat="41.61326" lon="20.60833">
        <ele>732.298746</ele>
        <time>2022-04-26T09:19:14.450Z</time>
      </trkpt>
      <trkpt lat="41.61316" lon="20.60836">
        <ele>732.404304</ele>
        <time>2022-04-26T09:19:17.453Z</time>
      </trkpt>
      <trkpt lat="41.61306" lon="20.60837">
        <ele>732.499669</ele>
        <time>2022-04-26T09:19:20.458Z</time>
      </trkpt>
      <trkpt lat="41.61297" lon="20.60838">
        <ele>732.594835</ele>
        <time>2022-04-26T09:19:23.474Z</time>
      </trkpt>
      <trkpt lat="41.61288" lon="20.60838">
        <ele>732.694023</ele>
        <time>2022-04-26T09:19:26.473Z</time>
      </trkpt>
      <trkpt lat="41.61278" lon="20.60838">
        <ele>732.798376</ele>
        <time>2022-04-26T09:19:29.473Z</time>
      </trkpt>
      <trkpt lat="41.61266" lon="20.60838">
        <ele>732.920448</ele>
        <time>2022-04-26T09:19:32.483Z</time>
      </trkpt>
      <trkpt lat="41.61253" lon="20.60837">
        <ele>733.055972</ele>
        <time>2022-04-26T09:19:35.469Z</time>
      </trkpt>
      <trkpt lat="41.61243" lon="20.60836">
        <ele>733.151554</ele>
        <time>2022-04-26T09:19:37.487Z</time>
      </trkpt>
      <trkpt lat="41.61234" lon="20.60834">
        <ele>733.251037</ele>
        <time>2022-04-26T09:19:39.457Z</time>
      </trkpt>
      <trkpt lat="41.61222" lon="20.60829">
        <ele>733.375275</ele>
        <time>2022-04-26T09:19:42.452Z</time>
      </trkpt>
      <trkpt lat="41.61213" lon="20.60822">
        <ele>733.49117</ele>
        <time>2022-04-26T09:19:45.468Z</time>
      </trkpt>
      <trkpt lat="41.61205" lon="20.60815">
        <ele>733.591228</ele>
        <time>2022-04-26T09:19:48.450Z</time>
      </trkpt>
      <trkpt lat="41.61196" lon="20.60806">
        <ele>733.704047</ele>
        <time>2022-04-26T09:19:52.450Z</time>
      </trkpt>
      <trkpt lat="41.61186" lon="20.60797">
        <ele>733.822136</ele>
        <time>2022-04-26T09:19:56.448Z</time>
      </trkpt>
      <trkpt lat="41.61177" lon="20.60789">
        <ele>733.828419</ele>
        <time>2022-04-26T09:20:00.473Z</time>
      </trkpt>
      <trkpt lat="41.61168" lon="20.60782">
        <ele>733.449438</ele>
        <time>2022-04-26T09:20:03.458Z</time>
      </trkpt>
      <trkpt lat="41.61159" lon="20.60776">
        <ele>733.047346</ele>
        <time>2022-04-26T09:20:06.478Z</time>
      </trkpt>
      <trkpt lat="41.61149" lon="20.60771">
        <ele>732.625172</ele>
        <time>2022-04-26T09:20:09.454Z</time>
      </trkpt>
      <trkpt lat="41.61136" lon="20.60771">
        <ele>732.159664</ele>
        <time>2022-04-26T09:20:12.468Z</time>
      </trkpt>
      <trkpt lat="41.61127" lon="20.60773">
        <ele>731.794594</ele>
        <time>2022-04-26T09:20:14.460Z</time>
      </trkpt>
      <trkpt lat="41.61117" lon="20.60776">
        <ele>731.391226</ele>
        <time>2022-04-26T09:20:16.454Z</time>
      </trkpt>
      <trkpt lat="41.61106" lon="20.60782">
        <ele>730.958737</ele>
        <time>2022-04-26T09:20:18.461Z</time>
      </trkpt>
      <trkpt lat="41.61095" lon="20.60788">
        <ele>730.486227</ele>
        <time>2022-04-26T09:20:20.454Z</time>
      </trkpt>
      <trkpt lat="41.61082" lon="20.60792">
        <ele>729.976472</ele>
        <time>2022-04-26T09:20:22.473Z</time>
      </trkpt>
      <trkpt lat="41.61067" lon="20.60794">
        <ele>729.406776</ele>
        <time>2022-04-26T09:20:24.446Z</time>
      </trkpt>
      <trkpt lat="41.61052" lon="20.60797">
        <ele>728.827487</ele>
        <time>2022-04-26T09:20:26.450Z</time>
      </trkpt>
      <trkpt lat="41.61037" lon="20.60802">
        <ele>728.223587</ele>
        <time>2022-04-26T09:20:28.447Z</time>
      </trkpt>
      <trkpt lat="41.61023" lon="20.60811">
        <ele>727.614804</ele>
        <time>2022-04-26T09:20:30.459Z</time>
      </trkpt>
      <trkpt lat="41.61007" lon="20.60821">
        <ele>726.972665</ele>
        <time>2022-04-26T09:20:32.454Z</time>
      </trkpt>
      <trkpt lat="41.60992" lon="20.60831">
        <ele>726.461601</ele>
        <time>2022-04-26T09:20:34.488Z</time>
      </trkpt>
      <trkpt lat="41.60977" lon="20.60841">
        <ele>725.953757</ele>
        <time>2022-04-26T09:20:36.450Z</time>
      </trkpt>
      <trkpt lat="41.60962" lon="20.60849">
        <ele>725.482853</ele>
        <time>2022-04-26T09:20:38.461Z</time>
      </trkpt>
      <trkpt lat="41.60946" lon="20.60853">
        <ele>725.013639</ele>
        <time>2022-04-26T09:20:40.477Z</time>
      </trkpt>
      <trkpt lat="41.60931" lon="20.60852">
        <ele>724.572753</ele>
        <time>2022-04-26T09:20:42.454Z</time>
      </trkpt>
      <trkpt lat="41.60917" lon="20.60853">
        <ele>724.155589</ele>
        <time>2022-04-26T09:20:44.449Z</time>
      </trkpt>
      <trkpt lat="41.60903" lon="20.60857">
        <ele>723.720756</ele>
        <time>2022-04-26T09:20:46.477Z</time>
      </trkpt>
      <trkpt lat="41.60889" lon="20.60862">
        <ele>723.284309</ele>
        <time>2022-04-26T09:20:48.452Z</time>
      </trkpt>
      <trkpt lat="41.60874" lon="20.60867">
        <ele>722.850063</ele>
        <time>2022-04-26T09:20:50.450Z</time>
      </trkpt>
      <trkpt lat="41.6086" lon="20.60874">
        <ele>722.404925</ele>
        <time>2022-04-26T09:20:52.456Z</time>
      </trkpt>
      <trkpt lat="41.60846" lon="20.60881">
        <ele>721.956711</ele>
        <time>2022-04-26T09:20:54.450Z</time>
      </trkpt>
      <trkpt lat="41.60832" lon="20.6088">
        <ele>721.5869</ele>
        <time>2022-04-26T09:20:56.457Z</time>
      </trkpt>
      <trkpt lat="41.60819" lon="20.60867">
        <ele>721.282567</ele>
        <time>2022-04-26T09:20:58.455Z</time>
      </trkpt>
      <trkpt lat="41.60814" lon="20.60847">
        <ele>720.993024</ele>
        <time>2022-04-26T09:21:00.452Z</time>
      </trkpt>
      <trkpt lat="41.60811" lon="20.60829">
        <ele>720.728886</ele>
        <time>2022-04-26T09:21:02.485Z</time>
      </trkpt>
      <trkpt lat="41.60807" lon="20.60811">
        <ele>720.467967</ele>
        <time>2022-04-26T09:21:04.454Z</time>
      </trkpt>
      <trkpt lat="41.60802" lon="20.60797">
        <ele>720.243726</ele>
        <time>2022-04-26T09:21:06.448Z</time>
      </trkpt>
      <trkpt lat="41.60793" lon="20.60788">
        <ele>720.0368</ele>
        <time>2022-04-26T09:21:08.480Z</time>
      </trkpt>
      <trkpt lat="41.60781" lon="20.60784">
        <ele>719.810336</ele>
        <time>2022-04-26T09:21:10.453Z</time>
      </trkpt>
      <trkpt lat="41.60768" lon="20.60783">
        <ele>719.563395</ele>
        <time>2022-04-26T09:21:12.448Z</time>
      </trkpt>
      <trkpt lat="41.60755" lon="20.60782">
        <ele>719.316742</ele>
        <time>2022-04-26T09:21:14.458Z</time>
      </trkpt>
      <trkpt lat="41.60742" lon="20.60782">
        <ele>719.060875</ele>
        <time>2022-04-26T09:21:16.451Z</time>
      </trkpt>
      <trkpt lat="41.60728" lon="20.60782">
        <ele>718.801215</ele>
        <time>2022-04-26T09:21:18.447Z</time>
      </trkpt>
      <trkpt lat="41.60714" lon="20.60782">
        <ele>718.53593</ele>
        <time>2022-04-26T09:21:20.447Z</time>
      </trkpt>
      <trkpt lat="41.607" lon="20.60781">
        <ele>718.309349</ele>
        <time>2022-04-26T09:21:22.455Z</time>
      </trkpt>
      <trkpt lat="41.60686" lon="20.60781">
        <ele>718.380229</ele>
        <time>2022-04-26T09:21:24.450Z</time>
      </trkpt>
      <trkpt lat="41.60674" lon="20.60782">
        <ele>718.446407</ele>
        <time>2022-04-26T09:21:26.455Z</time>
      </trkpt>
      <trkpt lat="41.60661" lon="20.60782">
        <ele>718.513595</ele>
        <time>2022-04-26T09:21:28.449Z</time>
      </trkpt>
      <trkpt lat="41.60649" lon="20.60781">
        <ele>718.577131</ele>
        <time>2022-04-26T09:21:30.479Z</time>
      </trkpt>
      <trkpt lat="41.60638" lon="20.6078">
        <ele>718.635893</ele>
        <time>2022-04-26T09:21:32.450Z</time>
      </trkpt>
      <trkpt lat="41.60628" lon="20.6078">
        <ele>718.688802</ele>
        <time>2022-04-26T09:21:34.462Z</time>
      </trkpt>
      <trkpt lat="41.60619" lon="20.6078">
        <ele>718.736938</ele>
        <time>2022-04-26T09:21:36.490Z</time>
      </trkpt>
      <trkpt lat="41.60607" lon="20.6078">
        <ele>718.798857</ele>
        <time>2022-04-26T09:21:39.461Z</time>
      </trkpt>
      <trkpt lat="41.60597" lon="20.60779">
        <ele>718.855491</ele>
        <time>2022-04-26T09:21:42.482Z</time>
      </trkpt>
      <trkpt lat="41.60586" lon="20.60779">
        <ele>718.910538</ele>
        <time>2022-04-26T09:21:45.473Z</time>
      </trkpt>
      <trkpt lat="41.60576" lon="20.60779">
        <ele>718.963471</ele>
        <time>2022-04-26T09:21:48.454Z</time>
      </trkpt>
      <trkpt lat="41.60567" lon="20.6078">
        <ele>719.01171</ele>
        <time>2022-04-26T09:21:51.461Z</time>
      </trkpt>
      <trkpt lat="41.60555" lon="20.6078">
        <ele>719.073081</ele>
        <time>2022-04-26T09:21:55.450Z</time>
      </trkpt>
      <trkpt lat="41.60546" lon="20.6078">
        <ele>719.12228</ele>
        <time>2022-04-26T09:21:58.449Z</time>
      </trkpt>
      <trkpt lat="41.60537" lon="20.6078">
        <ele>719.173066</ele>
        <time>2022-04-26T09:22:01.470Z</time>
      </trkpt>
      <trkpt lat="41.60527" lon="20.6078">
        <ele>719.225986</ele>
        <time>2022-04-26T09:22:04.458Z</time>
      </trkpt>
      <trkpt lat="41.60516" lon="20.60779">
        <ele>719.266478</ele>
        <time>2022-04-26T09:22:07.454Z</time>
      </trkpt>
      <trkpt lat="41.60506" lon="20.60779">
        <ele>719.292987</ele>
        <time>2022-04-26T09:22:10.450Z</time>
      </trkpt>
      <trkpt lat="41.60496" lon="20.6078">
        <ele>719.320043</ele>
        <time>2022-04-26T09:22:13.457Z</time>
      </trkpt>
      <trkpt lat="41.60485" lon="20.6078">
        <ele>719.350841</ele>
        <time>2022-04-26T09:22:17.447Z</time>
      </trkpt>
      <trkpt lat="41.60473" lon="20.6078">
        <ele>719.382171</ele>
        <time>2022-04-26T09:22:21.450Z</time>
      </trkpt>
      <trkpt lat="41.60461" lon="20.6078">
        <ele>719.414308</ele>
        <time>2022-04-26T09:22:25.455Z</time>
      </trkpt>
      <trkpt lat="41.60452" lon="20.6078">
        <ele>719.439774</ele>
        <time>2022-04-26T09:22:28.477Z</time>
      </trkpt>
      <trkpt lat="41.60442" lon="20.60779">
        <ele>719.466319</ele>
        <time>2022-04-26T09:22:31.461Z</time>
      </trkpt>
      <trkpt lat="41.60432" lon="20.60779">
        <ele>719.492828</ele>
        <time>2022-04-26T09:22:34.451Z</time>
      </trkpt>
      <trkpt lat="41.60422" lon="20.6078">
        <ele>719.519883</ele>
        <time>2022-04-26T09:22:37.451Z</time>
      </trkpt>
      <trkpt lat="41.60412" lon="20.60781">
        <ele>719.547034</ele>
        <time>2022-04-26T09:22:40.446Z</time>
      </trkpt>
      <trkpt lat="41.60402" lon="20.60784">
        <ele>719.57452</ele>
        <time>2022-04-26T09:22:43.448Z</time>
      </trkpt>
      <trkpt lat="41.60392" lon="20.60789">
        <ele>719.601503</ele>
        <time>2022-04-26T09:22:46.448Z</time>
      </trkpt>
      <trkpt lat="41.60383" lon="20.60799">
        <ele>719.633294</ele>
        <time>2022-04-26T09:22:50.475Z</time>
      </trkpt>
      <trkpt lat="41.60377" lon="20.60808">
        <ele>719.657763</ele>
        <time>2022-04-26T09:22:53.472Z</time>
      </trkpt>
      <trkpt lat="41.60373" lon="20.60819">
        <ele>719.682136</ele>
        <time>2022-04-26T09:22:56.516Z</time>
      </trkpt>
      <trkpt lat="41.60368" lon="20.6083">
        <ele>719.707196</ele>
        <time>2022-04-26T09:22:59.453Z</time>
      </trkpt>
      <trkpt lat="41.60365" lon="20.60844">
        <ele>719.746896</ele>
        <time>2022-04-26T09:23:03.452Z</time>
      </trkpt>
      <trkpt lat="41.60364" lon="20.60857">
        <ele>719.860478</ele>
        <time>2022-04-26T09:23:07.484Z</time>
      </trkpt>
      <trkpt lat="41.60365" lon="20.60871">
        <ele>719.981576</ele>
        <time>2022-04-26T09:23:11.458Z</time>
      </trkpt>
      <trkpt lat="41.60367" lon="20.60885">
        <ele>720.102435</ele>
        <time>2022-04-26T09:23:15.455Z</time>
      </trkpt>
      <trkpt lat="41.6037" lon="20.609">
        <ele>720.235363</ele>
        <time>2022-04-26T09:23:19.450Z</time>
      </trkpt>
      <trkpt lat="41.60373" lon="20.60913">
        <ele>720.348001</ele>
        <time>2022-04-26T09:23:22.453Z</time>
      </trkpt>
      <trkpt lat="41.60375" lon="20.60926">
        <ele>720.465313</ele>
        <time>2022-04-26T09:23:25.472Z</time>
      </trkpt>
      <trkpt lat="41.60377" lon="20.60939">
        <ele>720.583157</ele>
        <time>2022-04-26T09:23:28.454Z</time>
      </trkpt>
      <trkpt lat="41.60377" lon="20.60953">
        <ele>720.696593</ele>
        <time>2022-04-26T09:23:31.469Z</time>
      </trkpt>
      <trkpt lat="41.60375" lon="20.60965">
        <ele>720.804299</ele>
        <time>2022-04-26T09:23:34.449Z</time>
      </trkpt>
      <trkpt lat="41.60369" lon="20.60977">
        <ele>720.933842</ele>
        <time>2022-04-26T09:23:38.450Z</time>
      </trkpt>
      <trkpt lat="41.6036" lon="20.60985">
        <ele>721.060978</ele>
        <time>2022-04-26T09:23:42.480Z</time>
      </trkpt>
      <trkpt lat="41.60351" lon="20.60988">
        <ele>721.167575</ele>
        <time>2022-04-26T09:23:45.473Z</time>
      </trkpt>
      <trkpt lat="41.60341" lon="20.60987">
        <ele>721.280529</ele>
        <time>2022-04-26T09:23:48.484Z</time>
      </trkpt>
      <trkpt lat="41.6033" lon="20.60983">
        <ele>721.412151</ele>
        <time>2022-04-26T09:23:51.458Z</time>
      </trkpt>
      <trkpt lat="41.60318" lon="20.60978">
        <ele>721.548977</ele>
        <time>2022-04-26T09:23:54.448Z</time>
      </trkpt>
      <trkpt lat="41.60308" lon="20.60971">
        <ele>721.688315</ele>
        <time>2022-04-26T09:23:57.458Z</time>
      </trkpt>
      <trkpt lat="41.60297" lon="20.60964">
        <ele>721.793216</ele>
        <time>2022-04-26T09:24:00.451Z</time>
      </trkpt>
      <trkpt lat="41.60286" lon="20.60957">
        <ele>721.745532</ele>
        <time>2022-04-26T09:24:03.453Z</time>
      </trkpt>
      <trkpt lat="41.60274" lon="20.60951">
        <ele>721.695877</ele>
        <time>2022-04-26T09:24:06.461Z</time>
      </trkpt>
      <trkpt lat="41.60265" lon="20.60948">
        <ele>721.660088</ele>
        <time>2022-04-26T09:24:08.453Z</time>
      </trkpt>
      <trkpt lat="41.60255" lon="20.60947">
        <ele>721.621265</ele>
        <time>2022-04-26T09:24:10.456Z</time>
      </trkpt>
      <trkpt lat="41.60244" lon="20.60948">
        <ele>721.57898</ele>
        <time>2022-04-26T09:24:12.448Z</time>
      </trkpt>
      <trkpt lat="41.60233" lon="20.60948">
        <ele>721.535115</ele>
        <time>2022-04-26T09:24:14.457Z</time>
      </trkpt>
      <trkpt lat="41.60222" lon="20.6095">
        <ele>721.489939</ele>
        <time>2022-04-26T09:24:16.452Z</time>
      </trkpt>
      <trkpt lat="41.6021" lon="20.60951">
        <ele>721.444348</ele>
        <time>2022-04-26T09:24:18.449Z</time>
      </trkpt>
      <trkpt lat="41.60198" lon="20.60951">
        <ele>721.398135</ele>
        <time>2022-04-26T09:24:20.449Z</time>
      </trkpt>
      <trkpt lat="41.60187" lon="20.60952">
        <ele>721.354285</ele>
        <time>2022-04-26T09:24:22.448Z</time>
      </trkpt>
      <trkpt lat="41.60176" lon="20.60953">
        <ele>721.310347</ele>
        <time>2022-04-26T09:24:24.449Z</time>
      </trkpt>
      <trkpt lat="41.60166" lon="20.60953">
        <ele>721.270807</ele>
        <time>2022-04-26T09:24:26.474Z</time>
      </trkpt>
      <trkpt lat="41.60155" lon="20.60953">
        <ele>721.230097</ele>
        <time>2022-04-26T09:24:28.455Z</time>
      </trkpt>
      <trkpt lat="41.60145" lon="20.60954">
        <ele>721.188538</ele>
        <time>2022-04-26T09:24:30.457Z</time>
      </trkpt>
      <trkpt lat="41.60134" lon="20.60955">
        <ele>721.145702</ele>
        <time>2022-04-26T09:24:32.487Z</time>
      </trkpt>
      <trkpt lat="41.60123" lon="20.60956">
        <ele>721.102173</ele>
        <time>2022-04-26T09:24:34.450Z</time>
      </trkpt>
      <trkpt lat="41.60112" lon="20.60955">
        <ele>721.031264</ele>
        <time>2022-04-26T09:24:36.448Z</time>
      </trkpt>
      <trkpt lat="41.60101" lon="20.60953">
        <ele>720.952179</ele>
        <time>2022-04-26T09:24:38.473Z</time>
      </trkpt>
      <trkpt lat="41.60089" lon="20.60948">
        <ele>720.865332</ele>
        <time>2022-04-26T09:24:40.514Z</time>
      </trkpt>
      <trkpt lat="41.60078" lon="20.60943">
        <ele>720.7792</ele>
        <time>2022-04-26T09:24:42.454Z</time>
      </trkpt>
      <trkpt lat="41.60066" lon="20.60938">
        <ele>720.692397</ele>
        <time>2022-04-26T09:24:44.480Z</time>
      </trkpt>
      <trkpt lat="41.60054" lon="20.60935">
        <ele>720.604992</ele>
        <time>2022-04-26T09:24:46.451Z</time>
      </trkpt>
      <trkpt lat="41.60041" lon="20.60936">
        <ele>720.51531</ele>
        <time>2022-04-26T09:24:48.451Z</time>
      </trkpt>
      <trkpt lat="41.60028" lon="20.60939">
        <ele>720.419955</ele>
        <time>2022-04-26T09:24:50.481Z</time>
      </trkpt>
      <trkpt lat="41.60015" lon="20.60944">
        <ele>720.327006</ele>
        <time>2022-04-26T09:24:52.450Z</time>
      </trkpt>
      <trkpt lat="41.60003" lon="20.6095">
        <ele>720.234853</ele>
        <time>2022-04-26T09:24:54.455Z</time>
      </trkpt>
      <trkpt lat="41.59991" lon="20.60955">
        <ele>720.146213</ele>
        <time>2022-04-26T09:24:56.470Z</time>
      </trkpt>
      <trkpt lat="41.5998" lon="20.60961">
        <ele>720.062214</ele>
        <time>2022-04-26T09:24:58.452Z</time>
      </trkpt>
      <trkpt lat="41.5997" lon="20.60967">
        <ele>719.987041</ele>
        <time>2022-04-26T09:25:00.450Z</time>
      </trkpt>
      <trkpt lat="41.5996" lon="20.60972">
        <ele>719.912927</ele>
        <time>2022-04-26T09:25:02.482Z</time>
      </trkpt>
      <trkpt lat="41.59952" lon="20.60978">
        <ele>719.84687</ele>
        <time>2022-04-26T09:25:04.460Z</time>
      </trkpt>
      <trkpt lat="41.59943" lon="20.60986">
        <ele>719.159041</ele>
        <time>2022-04-26T09:25:07.470Z</time>
      </trkpt>
      <trkpt lat="41.59934" lon="20.60995">
        <ele>718.383859</ele>
        <time>2022-04-26T09:25:10.457Z</time>
      </trkpt>
      <trkpt lat="41.59927" lon="20.61004">
        <ele>717.603533</ele>
        <time>2022-04-26T09:25:13.481Z</time>
      </trkpt>
      <trkpt lat="41.59919" lon="20.61013">
        <ele>716.810194</ele>
        <time>2022-04-26T09:25:16.458Z</time>
      </trkpt>
      <trkpt lat="41.59911" lon="20.61023">
        <ele>715.994361</ele>
        <time>2022-04-26T09:25:19.465Z</time>
      </trkpt>
      <trkpt lat="41.59902" lon="20.61033">
        <ele>715.131155</ele>
        <time>2022-04-26T09:25:22.451Z</time>
      </trkpt>
      <trkpt lat="41.59892" lon="20.61043">
        <ele>714.179717</ele>
        <time>2022-04-26T09:25:25.466Z</time>
      </trkpt>
      <trkpt lat="41.59884" lon="20.6105">
        <ele>713.480908</ele>
        <time>2022-04-26T09:25:27.457Z</time>
      </trkpt>
      <trkpt lat="41.59875" lon="20.61058">
        <ele>712.638125</ele>
        <time>2022-04-26T09:25:29.458Z</time>
      </trkpt>
      <trkpt lat="41.59865" lon="20.61067">
        <ele>711.747986</ele>
        <time>2022-04-26T09:25:31.450Z</time>
      </trkpt>
      <trkpt lat="41.59854" lon="20.61075">
        <ele>710.803391</ele>
        <time>2022-04-26T09:25:33.484Z</time>
      </trkpt>
      <trkpt lat="41.59842" lon="20.61084">
        <ele>709.759742</ele>
        <time>2022-04-26T09:25:35.497Z</time>
      </trkpt>
      <trkpt lat="41.5983" lon="20.61094">
        <ele>708.684254</ele>
        <time>2022-04-26T09:25:37.478Z</time>
      </trkpt>
      <trkpt lat="41.59816" lon="20.61103">
        <ele>707.547693</ele>
        <time>2022-04-26T09:25:39.484Z</time>
      </trkpt>
      <trkpt lat="41.59802" lon="20.61113">
        <ele>706.34711</ele>
        <time>2022-04-26T09:25:41.480Z</time>
      </trkpt>
      <trkpt lat="41.59788" lon="20.61124">
        <ele>705.359736</ele>
        <time>2022-04-26T09:25:43.483Z</time>
      </trkpt>
      <trkpt lat="41.59772" lon="20.61136">
        <ele>704.347946</ele>
        <time>2022-04-26T09:25:45.538Z</time>
      </trkpt>
      <trkpt lat="41.59764" lon="20.61142">
        <ele>703.816787</ele>
        <time>2022-04-26T09:25:46.479Z</time>
      </trkpt>
      <trkpt lat="41.59756" lon="20.61148">
        <ele>703.292722</ele>
        <time>2022-04-26T09:25:47.476Z</time>
      </trkpt>
      <trkpt lat="41.59748" lon="20.61154">
        <ele>702.766573</ele>
        <time>2022-04-26T09:25:48.482Z</time>
      </trkpt>
      <trkpt lat="41.5974" lon="20.6116">
        <ele>702.220295</ele>
        <time>2022-04-26T09:25:49.472Z</time>
      </trkpt>
      <trkpt lat="41.59731" lon="20.61166">
        <ele>701.670941</ele>
        <time>2022-04-26T09:25:50.492Z</time>
      </trkpt>
      <trkpt lat="41.59723" lon="20.61172">
        <ele>701.140541</ele>
        <time>2022-04-26T09:25:51.487Z</time>
      </trkpt>
      <trkpt lat="41.59715" lon="20.61178">
        <ele>700.6156</ele>
        <time>2022-04-26T09:25:52.491Z</time>
      </trkpt>
      <trkpt lat="41.59708" lon="20.61185">
        <ele>700.083814</ele>
        <time>2022-04-26T09:25:53.506Z</time>
      </trkpt>
      <trkpt lat="41.597" lon="20.61192">
        <ele>699.544965</ele>
        <time>2022-04-26T09:25:54.466Z</time>
      </trkpt>
      <trkpt lat="41.59692" lon="20.61199">
        <ele>699.012846</ele>
        <time>2022-04-26T09:25:55.493Z</time>
      </trkpt>
      <trkpt lat="41.59685" lon="20.61207">
        <ele>698.481307</ele>
        <time>2022-04-26T09:25:56.503Z</time>
      </trkpt>
      <trkpt lat="41.59678" lon="20.61216">
        <ele>697.94146</ele>
        <time>2022-04-26T09:25:57.482Z</time>
      </trkpt>
      <trkpt lat="41.59672" lon="20.61225">
        <ele>697.394573</ele>
        <time>2022-04-26T09:25:58.470Z</time>
      </trkpt>
      <trkpt lat="41.59661" lon="20.61243">
        <ele>696.401703</ele>
        <time>2022-04-26T09:26:00.497Z</time>
      </trkpt>
      <trkpt lat="41.59653" lon="20.61262">
        <ele>696.301628</ele>
        <time>2022-04-26T09:26:02.523Z</time>
      </trkpt>
      <trkpt lat="41.59646" lon="20.61281">
        <ele>696.9758</ele>
        <time>2022-04-26T09:26:04.492Z</time>
      </trkpt>
      <trkpt lat="41.5964" lon="20.61299">
        <ele>697.576031</ele>
        <time>2022-04-26T09:26:06.471Z</time>
      </trkpt>
      <trkpt lat="41.59636" lon="20.61313">
        <ele>698.082128</ele>
        <time>2022-04-26T09:26:08.478Z</time>
      </trkpt>
      <trkpt lat="41.5963" lon="20.61329">
        <ele>698.605377</ele>
        <time>2022-04-26T09:26:10.495Z</time>
      </trkpt>
      <trkpt lat="41.59623" lon="20.61343">
        <ele>699.156175</ele>
        <time>2022-04-26T09:26:12.476Z</time>
      </trkpt>
      <trkpt lat="41.59617" lon="20.61357">
        <ele>699.679746</ele>
        <time>2022-04-26T09:26:14.477Z</time>
      </trkpt>
      <trkpt lat="41.59611" lon="20.61369">
        <ele>700.122744</ele>
        <time>2022-04-26T09:26:16.494Z</time>
      </trkpt>
      <trkpt lat="41.59606" lon="20.61381">
        <ele>700.551134</ele>
        <time>2022-04-26T09:26:18.478Z</time>
      </trkpt>
      <trkpt lat="41.596" lon="20.61393">
        <ele>700.985717</ele>
        <time>2022-04-26T09:26:20.479Z</time>
      </trkpt>
      <trkpt lat="41.59594" lon="20.61404">
        <ele>701.429492</ele>
        <time>2022-04-26T09:26:22.484Z</time>
      </trkpt>
      <trkpt lat="41.59589" lon="20.61414">
        <ele>701.827759</ele>
        <time>2022-04-26T09:26:24.517Z</time>
      </trkpt>
      <trkpt lat="41.59582" lon="20.61423">
        <ele>702.220394</ele>
        <time>2022-04-26T09:26:26.470Z</time>
      </trkpt>
      <trkpt lat="41.59575" lon="20.61433">
        <ele>702.64876</ele>
        <time>2022-04-26T09:26:28.518Z</time>
      </trkpt>
      <trkpt lat="41.59567" lon="20.61439">
        <ele>703.030171</ele>
        <time>2022-04-26T09:26:30.484Z</time>
      </trkpt>
      <trkpt lat="41.59558" lon="20.61444">
        <ele>703.444681</ele>
        <time>2022-04-26T09:26:32.476Z</time>
      </trkpt>
      <trkpt lat="41.59545" lon="20.61449">
        <ele>703.611079</ele>
        <time>2022-04-26T09:26:35.523Z</time>
      </trkpt>
      <trkpt lat="41.59534" lon="20.61455">
        <ele>703.700389</ele>
        <time>2022-04-26T09:26:38.474Z</time>
      </trkpt>
      <trkpt lat="41.59525" lon="20.6146">
        <ele>703.77691</ele>
        <time>2022-04-26T09:26:41.511Z</time>
      </trkpt>
      <trkpt lat="41.59516" lon="20.61465">
        <ele>703.850107</ele>
        <time>2022-04-26T09:26:44.470Z</time>
      </trkpt>
      <trkpt lat="41.59506" lon="20.61471">
        <ele>703.935848</ele>
        <time>2022-04-26T09:26:48.488Z</time>
      </trkpt>
      <trkpt lat="41.59497" lon="20.61478">
        <ele>704.011362</ele>
        <time>2022-04-26T09:26:52.519Z</time>
      </trkpt>
      <trkpt lat="41.59487" lon="20.61485">
        <ele>704.102831</ele>
        <time>2022-04-26T09:26:57.475Z</time>
      </trkpt>
      <trkpt lat="41.59478" lon="20.61492">
        <ele>704.180701</ele>
        <time>2022-04-26T09:27:01.471Z</time>
      </trkpt>
      <trkpt lat="41.5947" lon="20.61498">
        <ele>704.250723</ele>
        <time>2022-04-26T09:27:04.488Z</time>
      </trkpt>
      <trkpt lat="41.59459" lon="20.61506">
        <ele>704.345282</ele>
        <time>2022-04-26T09:27:08.485Z</time>
      </trkpt>
      <trkpt lat="41.59451" lon="20.61513">
        <ele>704.418014</ele>
        <time>2022-04-26T09:27:11.495Z</time>
      </trkpt>
      <trkpt lat="41.59442" lon="20.61522">
        <ele>704.503046</ele>
        <time>2022-04-26T09:27:14.511Z</time>
      </trkpt>
      <trkpt lat="41.59432" lon="20.61531">
        <ele>704.593817</ele>
        <time>2022-04-26T09:27:17.490Z</time>
      </trkpt>
      <trkpt lat="41.59421" lon="20.61541">
        <ele>704.695617</ele>
        <time>2022-04-26T09:27:20.464Z</time>
      </trkpt>
      <trkpt lat="41.59412" lon="20.61549">
        <ele>704.774666</ele>
        <time>2022-04-26T09:27:22.486Z</time>
      </trkpt>
      <trkpt lat="41.59403" lon="20.61559">
        <ele>704.866863</ele>
        <time>2022-04-26T09:27:24.474Z</time>
      </trkpt>
      <trkpt lat="41.59392" lon="20.6157">
        <ele>704.65621</ele>
        <time>2022-04-26T09:27:26.475Z</time>
      </trkpt>
      <trkpt lat="41.59381" lon="20.61581">
        <ele>704.315192</ele>
        <time>2022-04-26T09:27:28.484Z</time>
      </trkpt>
      <trkpt lat="41.5937" lon="20.61592">
        <ele>703.986619</ele>
        <time>2022-04-26T09:27:30.467Z</time>
      </trkpt>
      <trkpt lat="41.59359" lon="20.616">
        <ele>703.703429</ele>
        <time>2022-04-26T09:27:32.487Z</time>
      </trkpt>
      <trkpt lat="41.5935" lon="20.61608">
        <ele>703.439297</ele>
        <time>2022-04-26T09:27:34.470Z</time>
      </trkpt>
      <trkpt lat="41.59341" lon="20.61613">
        <ele>703.214589</ele>
        <time>2022-04-26T09:27:36.517Z</time>
      </trkpt>
      <trkpt lat="41.59331" lon="20.61619">
        <ele>702.939325</ele>
        <time>2022-04-26T09:27:39.458Z</time>
      </trkpt>
      <trkpt lat="41.59321" lon="20.61625">
        <ele>702.698729</ele>
        <time>2022-04-26T09:27:42.508Z</time>
      </trkpt>
      <trkpt lat="41.59313" lon="20.6163">
        <ele>702.482605</ele>
        <time>2022-04-26T09:27:45.469Z</time>
      </trkpt>
      <trkpt lat="41.59303" lon="20.61635">
        <ele>702.218499</ele>
        <time>2022-04-26T09:27:48.521Z</time>
      </trkpt>
      <trkpt lat="41.59291" lon="20.6164">
        <ele>701.927026</ele>
        <time>2022-04-26T09:27:51.483Z</time>
      </trkpt>
      <trkpt lat="41.59278" lon="20.61647">
        <ele>701.608764</ele>
        <time>2022-04-26T09:27:54.522Z</time>
      </trkpt>
      <trkpt lat="41.5927" lon="20.61651">
        <ele>701.389619</ele>
        <time>2022-04-26T09:27:56.479Z</time>
      </trkpt>
      <trkpt lat="41.59259" lon="20.61657">
        <ele>701.113595</ele>
        <time>2022-04-26T09:27:58.477Z</time>
      </trkpt>
      <trkpt lat="41.59248" lon="20.61666">
        <ele>700.812999</ele>
        <time>2022-04-26T09:28:01.472Z</time>
      </trkpt>
      <trkpt lat="41.59239" lon="20.61674">
        <ele>700.763611</ele>
        <time>2022-04-26T09:28:04.476Z</time>
      </trkpt>
      <trkpt lat="41.59232" lon="20.61683">
        <ele>701.161674</ele>
        <time>2022-04-26T09:28:07.484Z</time>
      </trkpt>
      <trkpt lat="41.59222" lon="20.61692">
        <ele>701.68312</ele>
        <time>2022-04-26T09:28:11.526Z</time>
      </trkpt>
      <trkpt lat="41.59213" lon="20.61698">
        <ele>702.087878</ele>
        <time>2022-04-26T09:28:14.475Z</time>
      </trkpt>
      <trkpt lat="41.59205" lon="20.61704">
        <ele>702.485909</ele>
        <time>2022-04-26T09:28:17.511Z</time>
      </trkpt>
      <trkpt lat="41.59197" lon="20.61709">
        <ele>702.885408</ele>
        <time>2022-04-26T09:28:20.478Z</time>
      </trkpt>
      <trkpt lat="41.59187" lon="20.61717">
        <ele>703.354413</ele>
        <time>2022-04-26T09:28:24.482Z</time>
      </trkpt>
      <trkpt lat="41.59179" lon="20.61725">
        <ele>703.806645</ele>
        <time>2022-04-26T09:28:28.456Z</time>
      </trkpt>
      <trkpt lat="41.59171" lon="20.61734">
        <ele>704.260012</ele>
        <time>2022-04-26T09:28:32.473Z</time>
      </trkpt>
      <trkpt lat="41.59163" lon="20.61744">
        <ele>704.700715</ele>
        <time>2022-04-26T09:28:36.494Z</time>
      </trkpt>
      <trkpt lat="41.59156" lon="20.61751">
        <ele>705.086701</ele>
        <time>2022-04-26T09:28:39.479Z</time>
      </trkpt>
      <trkpt lat="41.59149" lon="20.6176">
        <ele>705.493237</ele>
        <time>2022-04-26T09:28:43.500Z</time>
      </trkpt>
      <trkpt lat="41.59142" lon="20.61769">
        <ele>705.901673</ele>
        <time>2022-04-26T09:28:48.482Z</time>
      </trkpt>
      <trkpt lat="41.59135" lon="20.6178">
        <ele>706.36374</ele>
        <time>2022-04-26T09:28:53.479Z</time>
      </trkpt>
      <trkpt lat="41.59129" lon="20.61789">
        <ele>706.768816</ele>
        <time>2022-04-26T09:28:58.483Z</time>
      </trkpt>
      <trkpt lat="41.59122" lon="20.61798">
        <ele>707.181798</ele>
        <time>2022-04-26T09:29:03.477Z</time>
      </trkpt>
      <trkpt lat="41.59115" lon="20.61807">
        <ele>707.599029</ele>
        <time>2022-04-26T09:29:08.513Z</time>
      </trkpt>
      <trkpt lat="41.59107" lon="20.61818">
        <ele>708.069723</ele>
        <time>2022-04-26T09:29:13.481Z</time>
      </trkpt>
      <trkpt lat="41.59099" lon="20.61827">
        <ele>708.321636</ele>
        <time>2022-04-26T09:29:18.499Z</time>
      </trkpt>
      <trkpt lat="41.59092" lon="20.61836">
        <ele>708.368292</ele>
        <time>2022-04-26T09:29:22.484Z</time>
      </trkpt>
      <trkpt lat="41.59083" lon="20.61846">
        <ele>708.421994</ele>
        <time>2022-04-26T09:29:26.476Z</time>
      </trkpt>
      <trkpt lat="41.59074" lon="20.61852">
        <ele>708.466936</ele>
        <time>2022-04-26T09:29:29.512Z</time>
      </trkpt>
      <trkpt lat="41.59065" lon="20.61859">
        <ele>708.519291</ele>
        <time>2022-04-26T09:29:32.482Z</time>
      </trkpt>
      <trkpt lat="41.59055" lon="20.61867">
        <ele>708.574274</ele>
        <time>2022-04-26T09:29:35.478Z</time>
      </trkpt>
      <trkpt lat="41.59042" lon="20.61875">
        <ele>708.63793</ele>
        <time>2022-04-26T09:29:38.482Z</time>
      </trkpt>
      <trkpt lat="41.59034" lon="20.6188">
        <ele>708.682661</ele>
        <time>2022-04-26T09:29:40.494Z</time>
      </trkpt>
      <trkpt lat="41.59024" lon="20.61885">
        <ele>708.730982</ele>
        <time>2022-04-26T09:29:42.480Z</time>
      </trkpt>
      <trkpt lat="41.59015" lon="20.61892">
        <ele>708.779074</ele>
        <time>2022-04-26T09:29:44.474Z</time>
      </trkpt>
      <trkpt lat="41.59007" lon="20.61899">
        <ele>708.824681</ele>
        <time>2022-04-26T09:29:46.465Z</time>
      </trkpt>
      <trkpt lat="41.58998" lon="20.61908">
        <ele>708.880966</ele>
        <time>2022-04-26T09:29:49.494Z</time>
      </trkpt>
      <trkpt lat="41.58991" lon="20.61918">
        <ele>708.926939</ele>
        <time>2022-04-26T09:29:52.477Z</time>
      </trkpt>
      <trkpt lat="41.58982" lon="20.61929">
        <ele>708.982969</ele>
        <time>2022-04-26T09:29:56.476Z</time>
      </trkpt>
      <trkpt lat="41.58975" lon="20.61939">
        <ele>709.033093</ele>
        <time>2022-04-26T09:30:00.517Z</time>
      </trkpt>
      <trkpt lat="41.58968" lon="20.61948">
        <ele>709.078315</ele>
        <time>2022-04-26T09:30:04.480Z</time>
      </trkpt>
      <trkpt lat="41.58962" lon="20.61958">
        <ele>709.122947</ele>
        <time>2022-04-26T09:30:08.479Z</time>
      </trkpt>
      <trkpt lat="41.58954" lon="20.61969">
        <ele>708.808999</ele>
        <time>2022-04-26T09:30:12.475Z</time>
      </trkpt>
      <trkpt lat="41.58945" lon="20.6198">
        <ele>708.300139</ele>
        <time>2022-04-26T09:30:15.496Z</time>
      </trkpt>
      <trkpt lat="41.58939" lon="20.61988">
        <ele>707.899531</ele>
        <time>2022-04-26T09:30:17.474Z</time>
      </trkpt>
      <trkpt lat="41.58931" lon="20.61997">
        <ele>707.466176</ele>
        <time>2022-04-26T09:30:19.484Z</time>
      </trkpt>
      <trkpt lat="41.58923" lon="20.62006">
        <ele>707.005608</ele>
        <time>2022-04-26T09:30:21.475Z</time>
      </trkpt>
      <trkpt lat="41.58915" lon="20.62015">
        <ele>706.532739</ele>
        <time>2022-04-26T09:30:23.455Z</time>
      </trkpt>
      <trkpt lat="41.58906" lon="20.62025">
        <ele>706.028851</ele>
        <time>2022-04-26T09:30:25.522Z</time>
      </trkpt>
      <trkpt lat="41.58896" lon="20.62034">
        <ele>705.488902</ele>
        <time>2022-04-26T09:30:27.481Z</time>
      </trkpt>
      <trkpt lat="41.58885" lon="20.62044">
        <ele>704.927049</ele>
        <time>2022-04-26T09:30:29.476Z</time>
      </trkpt>
      <trkpt lat="41.58874" lon="20.62055">
        <ele>704.332338</ele>
        <time>2022-04-26T09:30:31.518Z</time>
      </trkpt>
      <trkpt lat="41.58863" lon="20.62066">
        <ele>703.717637</ele>
        <time>2022-04-26T09:30:33.470Z</time>
      </trkpt>
      <trkpt lat="41.58851" lon="20.62076">
        <ele>703.086822</ele>
        <time>2022-04-26T09:30:35.491Z</time>
      </trkpt>
      <trkpt lat="41.58838" lon="20.62085">
        <ele>702.457493</ele>
        <time>2022-04-26T09:30:37.481Z</time>
      </trkpt>
      <trkpt lat="41.58825" lon="20.62091">
        <ele>701.833395</ele>
        <time>2022-04-26T09:30:39.480Z</time>
      </trkpt>
      <trkpt lat="41.5881" lon="20.62095">
        <ele>701.20337</ele>
        <time>2022-04-26T09:30:41.484Z</time>
      </trkpt>
      <trkpt lat="41.58795" lon="20.62097">
        <ele>700.652694</ele>
        <time>2022-04-26T09:30:43.481Z</time>
      </trkpt>
      <trkpt lat="41.58779" lon="20.62096">
        <ele>700.092961</ele>
        <time>2022-04-26T09:30:45.497Z</time>
      </trkpt>
      <trkpt lat="41.58764" lon="20.62093">
        <ele>699.517762</ele>
        <time>2022-04-26T09:30:47.467Z</time>
      </trkpt>
      <trkpt lat="41.58748" lon="20.62089">
        <ele>698.936135</ele>
        <time>2022-04-26T09:30:49.493Z</time>
      </trkpt>
      <trkpt lat="41.58732" lon="20.62084">
        <ele>698.352055</ele>
        <time>2022-04-26T09:30:51.461Z</time>
      </trkpt>
      <trkpt lat="41.58715" lon="20.62082">
        <ele>697.757223</ele>
        <time>2022-04-26T09:30:53.476Z</time>
      </trkpt>
      <trkpt lat="41.58699" lon="20.62084">
        <ele>697.167994</ele>
        <time>2022-04-26T09:30:55.478Z</time>
      </trkpt>
      <trkpt lat="41.58683" lon="20.62092">
        <ele>696.562794</ele>
        <time>2022-04-26T09:30:57.483Z</time>
      </trkpt>
      <trkpt lat="41.58668" lon="20.62105">
        <ele>695.926781</ele>
        <time>2022-04-26T09:30:59.473Z</time>
      </trkpt>
      <trkpt lat="41.58662" lon="20.62114">
        <ele>695.60234</ele>
        <time>2022-04-26T09:31:00.496Z</time>
      </trkpt>
      <trkpt lat="41.58656" lon="20.62123">
        <ele>695.278122</ele>
        <time>2022-04-26T09:31:01.471Z</time>
      </trkpt>
      <trkpt lat="41.58648" lon="20.62144">
        <ele>694.694449</ele>
        <time>2022-04-26T09:31:03.486Z</time>
      </trkpt>
      <trkpt lat="41.58643" lon="20.62165">
        <ele>694.219767</ele>
        <time>2022-04-26T09:31:05.488Z</time>
      </trkpt>
      <trkpt lat="41.58639" lon="20.62184">
        <ele>693.786165</ele>
        <time>2022-04-26T09:31:07.505Z</time>
      </trkpt>
      <trkpt lat="41.58634" lon="20.62201">
        <ele>693.407626</ele>
        <time>2022-04-26T09:31:09.529Z</time>
      </trkpt>
      <trkpt lat="41.5863" lon="20.62216">
        <ele>693.073018</ele>
        <time>2022-04-26T09:31:11.473Z</time>
      </trkpt>
      <trkpt lat="41.58626" lon="20.62229">
        <ele>692.780187</ele>
        <time>2022-04-26T09:31:13.455Z</time>
      </trkpt>
      <trkpt lat="41.58623" lon="20.62241">
        <ele>692.502234</ele>
        <time>2022-04-26T09:31:15.482Z</time>
      </trkpt>
      <trkpt lat="41.5862" lon="20.62258">
        <ele>692.127332</ele>
        <time>2022-04-26T09:31:18.487Z</time>
      </trkpt>
      <trkpt lat="41.58617" lon="20.62275">
        <ele>691.746206</ele>
        <time>2022-04-26T09:31:21.484Z</time>
      </trkpt>
      <trkpt lat="41.58614" lon="20.62287">
        <ele>691.481317</ele>
        <time>2022-04-26T09:31:23.474Z</time>
      </trkpt>
      <trkpt lat="41.58607" lon="20.62303">
        <ele>691.107569</ele>
        <time>2022-04-26T09:31:26.485Z</time>
      </trkpt>
      <trkpt lat="41.586" lon="20.62316">
        <ele>690.754917</ele>
        <time>2022-04-26T09:31:29.472Z</time>
      </trkpt>
      <trkpt lat="41.58593" lon="20.62329">
        <ele>690.409082</ele>
        <time>2022-04-26T09:31:32.484Z</time>
      </trkpt>
      <trkpt lat="41.58585" lon="20.62341">
        <ele>690.078386</ele>
        <time>2022-04-26T09:31:35.495Z</time>
      </trkpt>
      <trkpt lat="41.58578" lon="20.62352">
        <ele>689.761129</ele>
        <time>2022-04-26T09:31:38.492Z</time>
      </trkpt>
      <trkpt lat="41.5857" lon="20.62361">
        <ele>690.247729</ele>
        <time>2022-04-26T09:31:41.474Z</time>
      </trkpt>
      <trkpt lat="41.58562" lon="20.62368">
        <ele>690.87918</ele>
        <time>2022-04-26T09:31:44.478Z</time>
      </trkpt>
      <trkpt lat="41.58554" lon="20.62376">
        <ele>691.488651</ele>
        <time>2022-04-26T09:31:47.485Z</time>
      </trkpt>
      <trkpt lat="41.58546" lon="20.62382">
        <ele>692.121637</ele>
        <time>2022-04-26T09:31:50.482Z</time>
      </trkpt>
      <trkpt lat="41.58538" lon="20.62388">
        <ele>692.733837</ele>
        <time>2022-04-26T09:31:53.494Z</time>
      </trkpt>
      <trkpt lat="41.5853" lon="20.62395">
        <ele>693.410422</ele>
        <time>2022-04-26T09:31:57.479Z</time>
      </trkpt>
      <trkpt lat="41.58522" lon="20.62406">
        <ele>694.149205</ele>
        <time>2022-04-26T09:32:01.482Z</time>
      </trkpt>
      <trkpt lat="41.58515" lon="20.62414">
        <ele>694.754924</ele>
        <time>2022-04-26T09:32:04.514Z</time>
      </trkpt>
      <trkpt lat="41.58508" lon="20.62423">
        <ele>695.402454</ele>
        <time>2022-04-26T09:32:07.488Z</time>
      </trkpt>
      <trkpt lat="41.585" lon="20.62432">
        <ele>696.08765</ele>
        <time>2022-04-26T09:32:10.472Z</time>
      </trkpt>
      <trkpt lat="41.5849" lon="20.62443">
        <ele>696.938208</ele>
        <time>2022-04-26T09:32:13.475Z</time>
      </trkpt>
      <trkpt lat="41.5848" lon="20.62454">
        <ele>697.813139</ele>
        <time>2022-04-26T09:32:16.458Z</time>
      </trkpt>
      <trkpt lat="41.58469" lon="20.62464">
        <ele>698.684685</ele>
        <time>2022-04-26T09:32:19.490Z</time>
      </trkpt>
      <trkpt lat="41.58456" lon="20.62474">
        <ele>699.681261</ele>
        <time>2022-04-26T09:32:22.475Z</time>
      </trkpt>
      <trkpt lat="41.58446" lon="20.62479">
        <ele>700.359789</ele>
        <time>2022-04-26T09:32:24.502Z</time>
      </trkpt>
      <trkpt lat="41.58438" lon="20.62484">
        <ele>700.967947</ele>
        <time>2022-04-26T09:32:26.519Z</time>
      </trkpt>
      <trkpt lat="41.58428" lon="20.62489">
        <ele>701.627522</ele>
        <time>2022-04-26T09:32:29.493Z</time>
      </trkpt>
      <trkpt lat="41.58419" lon="20.62491">
        <ele>701.634</ele>
        <time>2022-04-26T09:32:32.510Z</time>
      </trkpt>
      <trkpt lat="41.58408" lon="20.62493">
        <ele>701.641378</ele>
        <time>2022-04-26T09:32:36.473Z</time>
      </trkpt>
      <trkpt lat="41.58399" lon="20.62494">
        <ele>701.647834</ele>
        <time>2022-04-26T09:32:40.496Z</time>
      </trkpt>
      <trkpt lat="41.58389" lon="20.62498">
        <ele>701.65501</ele>
        <time>2022-04-26T09:32:44.496Z</time>
      </trkpt>
      <trkpt lat="41.5838" lon="20.62503">
        <ele>701.662457</ele>
        <time>2022-04-26T09:32:48.478Z</time>
      </trkpt>
      <trkpt lat="41.5837" lon="20.6251">
        <ele>701.669804</ele>
        <time>2022-04-26T09:32:52.482Z</time>
      </trkpt>
      <trkpt lat="41.5836" lon="20.62515">
        <ele>701.677752</ele>
        <time>2022-04-26T09:32:56.469Z</time>
      </trkpt>
      <trkpt lat="41.58351" lon="20.62518">
        <ele>701.684528</ele>
        <time>2022-04-26T09:32:59.502Z</time>
      </trkpt>
      <trkpt lat="41.5834" lon="20.62521">
        <ele>701.691877</ele>
        <time>2022-04-26T09:33:02.483Z</time>
      </trkpt>
      <trkpt lat="41.58331" lon="20.62524">
        <ele>701.698722</ele>
        <time>2022-04-26T09:33:05.528Z</time>
      </trkpt>
      <trkpt lat="41.58317" lon="20.62526">
        <ele>701.708599</ele>
        <time>2022-04-26T09:33:08.477Z</time>
      </trkpt>
      <trkpt lat="41.58306" lon="20.62527">
        <ele>701.716662</ele>
        <time>2022-04-26T09:33:10.483Z</time>
      </trkpt>
      <trkpt lat="41.58292" lon="20.62528">
        <ele>701.726043</ele>
        <time>2022-04-26T09:33:12.458Z</time>
      </trkpt>
      <trkpt lat="41.58277" lon="20.62527">
        <ele>701.736622</ele>
        <time>2022-04-26T09:33:14.480Z</time>
      </trkpt>
      <trkpt lat="41.58262" lon="20.62526">
        <ele>701.747075</ele>
        <time>2022-04-26T09:33:16.495Z</time>
      </trkpt>
      <trkpt lat="41.58247" lon="20.62525">
        <ele>701.412032</ele>
        <time>2022-04-26T09:33:18.474Z</time>
      </trkpt>
      <trkpt lat="41.58231" lon="20.62524">
        <ele>700.509582</ele>
        <time>2022-04-26T09:33:20.462Z</time>
      </trkpt>
      <trkpt lat="41.58216" lon="20.62523">
        <ele>699.668952</ele>
        <time>2022-04-26T09:33:22.483Z</time>
      </trkpt>
      <trkpt lat="41.58203" lon="20.62519">
        <ele>698.882928</ele>
        <time>2022-04-26T09:33:24.500Z</time>
      </trkpt>
      <trkpt lat="41.5819" lon="20.62513">
        <ele>698.126018</ele>
        <time>2022-04-26T09:33:26.481Z</time>
      </trkpt>
      <trkpt lat="41.58179" lon="20.62504">
        <ele>697.401896</ele>
        <time>2022-04-26T09:33:28.521Z</time>
      </trkpt>
      <trkpt lat="41.58169" lon="20.62493">
        <ele>696.639774</ele>
        <time>2022-04-26T09:33:30.472Z</time>
      </trkpt>
      <trkpt lat="41.58158" lon="20.62482">
        <ele>695.86484</ele>
        <time>2022-04-26T09:33:32.488Z</time>
      </trkpt>
      <trkpt lat="41.58147" lon="20.62472">
        <ele>695.096358</ele>
        <time>2022-04-26T09:33:34.482Z</time>
      </trkpt>
      <trkpt lat="41.58138" lon="20.62461">
        <ele>694.39635</ele>
        <time>2022-04-26T09:33:36.484Z</time>
      </trkpt>
      <trkpt lat="41.5813" lon="20.62447">
        <ele>693.682733</ele>
        <time>2022-04-26T09:33:38.478Z</time>
      </trkpt>
      <trkpt lat="41.58121" lon="20.62433">
        <ele>692.904803</ele>
        <time>2022-04-26T09:33:40.481Z</time>
      </trkpt>
      <trkpt lat="41.58112" lon="20.62418">
        <ele>692.082169</ele>
        <time>2022-04-26T09:33:42.489Z</time>
      </trkpt>
      <trkpt lat="41.58103" lon="20.62402">
        <ele>691.500738</ele>
        <time>2022-04-26T09:33:44.492Z</time>
      </trkpt>
      <trkpt lat="41.58093" lon="20.62387">
        <ele>691.354716</ele>
        <time>2022-04-26T09:33:46.465Z</time>
      </trkpt>
      <trkpt lat="41.58083" lon="20.62372">
        <ele>691.21122</ele>
        <time>2022-04-26T09:33:48.476Z</time>
      </trkpt>
      <trkpt lat="41.58073" lon="20.62357">
        <ele>691.063762</ele>
        <time>2022-04-26T09:33:50.465Z</time>
      </trkpt>
      <trkpt lat="41.58062" lon="20.6234">
        <ele>690.908991</ele>
        <time>2022-04-26T09:33:52.479Z</time>
      </trkpt>
      <trkpt lat="41.58052" lon="20.62323">
        <ele>690.747669</ele>
        <time>2022-04-26T09:33:54.489Z</time>
      </trkpt>
      <trkpt lat="41.58044" lon="20.62301">
        <ele>690.574869</ele>
        <time>2022-04-26T09:33:56.481Z</time>
      </trkpt>
      <trkpt lat="41.5804" lon="20.62289">
        <ele>690.480732</ele>
        <time>2022-04-26T09:33:57.468Z</time>
      </trkpt>
      <trkpt lat="41.58037" lon="20.62277">
        <ele>690.386036</ele>
        <time>2022-04-26T09:33:58.470Z</time>
      </trkpt>
      <trkpt lat="41.58034" lon="20.62264">
        <ele>690.290211</ele>
        <time>2022-04-26T09:33:59.490Z</time>
      </trkpt>
      <trkpt lat="41.58031" lon="20.62252">
        <ele>690.197811</ele>
        <time>2022-04-26T09:34:00.497Z</time>
      </trkpt>
      <trkpt lat="41.58028" lon="20.6224">
        <ele>690.106392</ele>
        <time>2022-04-26T09:34:01.488Z</time>
      </trkpt>
      <trkpt lat="41.58025" lon="20.62228">
        <ele>690.018656</ele>
        <time>2022-04-26T09:34:02.477Z</time>
      </trkpt>
      <trkpt lat="41.58023" lon="20.62216">
        <ele>689.932304</ele>
        <time>2022-04-26T09:34:03.486Z</time>
      </trkpt>
      <trkpt lat="41.58021" lon="20.62205">
        <ele>689.845504</ele>
        <time>2022-04-26T09:34:04.462Z</time>
      </trkpt>
      <trkpt lat="41.58017" lon="20.62183">
        <ele>689.370573</ele>
        <time>2022-04-26T09:34:06.463Z</time>
      </trkpt>
      <trkpt lat="41.58012" lon="20.62162">
        <ele>688.88504</ele>
        <time>2022-04-26T09:34:08.464Z</time>
      </trkpt>
      <trkpt lat="41.58008" lon="20.62142">
        <ele>688.397333</ele>
        <time>2022-04-26T09:34:10.479Z</time>
      </trkpt>
      <trkpt lat="41.58003" lon="20.62121">
        <ele>687.916794</ele>
        <time>2022-04-26T09:34:12.484Z</time>
      </trkpt>
      <trkpt lat="41.57997" lon="20.62102">
        <ele>687.444744</ele>
        <time>2022-04-26T09:34:14.486Z</time>
      </trkpt>
      <trkpt lat="41.5799" lon="20.62083">
        <ele>686.974094</ele>
        <time>2022-04-26T09:34:16.484Z</time>
      </trkpt>
      <trkpt lat="41.57986" lon="20.62062">
        <ele>686.476346</ele>
        <time>2022-04-26T09:34:18.484Z</time>
      </trkpt>
      <trkpt lat="41.57983" lon="20.62041">
        <ele>685.984075</ele>
        <time>2022-04-26T09:34:20.484Z</time>
      </trkpt>
      <trkpt lat="41.57984" lon="20.62018">
        <ele>685.463497</ele>
        <time>2022-04-26T09:34:22.492Z</time>
      </trkpt>
      <trkpt lat="41.57988" lon="20.61995">
        <ele>684.913186</ele>
        <time>2022-04-26T09:34:24.473Z</time>
      </trkpt>
      <trkpt lat="41.57991" lon="20.61983">
        <ele>684.635417</ele>
        <time>2022-04-26T09:34:25.492Z</time>
      </trkpt>
      <trkpt lat="41.57993" lon="20.61971">
        <ele>684.368189</ele>
        <time>2022-04-26T09:34:26.497Z</time>
      </trkpt>
      <trkpt lat="41.57998" lon="20.61949">
        <ele>684.148483</ele>
        <time>2022-04-26T09:34:28.521Z</time>
      </trkpt>
      <trkpt lat="41.58003" lon="20.61927">
        <ele>683.940356</ele>
        <time>2022-04-26T09:34:30.478Z</time>
      </trkpt>
      <trkpt lat="41.58005" lon="20.61906">
        <ele>683.741608</ele>
        <time>2022-04-26T09:34:32.472Z</time>
      </trkpt>
      <trkpt lat="41.58005" lon="20.61886">
        <ele>683.555798</ele>
        <time>2022-04-26T09:34:34.518Z</time>
      </trkpt>
      <trkpt lat="41.58004" lon="20.61868">
        <ele>683.381585</ele>
        <time>2022-04-26T09:34:36.495Z</time>
      </trkpt>
      <trkpt lat="41.58002" lon="20.61851">
        <ele>683.219421</ele>
        <time>2022-04-26T09:34:38.460Z</time>
      </trkpt>
      <trkpt lat="41.57999" lon="20.61835">
        <ele>683.071736</ele>
        <time>2022-04-26T09:34:40.501Z</time>
      </trkpt>
      <trkpt lat="41.57995" lon="20.61822">
        <ele>682.935591</ele>
        <time>2022-04-26T09:34:42.473Z</time>
      </trkpt>
      <trkpt lat="41.5799" lon="20.61811">
        <ele>682.814867</ele>
        <time>2022-04-26T09:34:44.458Z</time>
      </trkpt>
      <trkpt lat="41.57983" lon="20.61797">
        <ele>682.65635</ele>
        <time>2022-04-26T09:34:47.482Z</time>
      </trkpt>
      <trkpt lat="41.57978" lon="20.61786">
        <ele>682.533392</ele>
        <time>2022-04-26T09:34:49.489Z</time>
      </trkpt>
      <trkpt lat="41.57971" lon="20.61776">
        <ele>682.417075</ele>
        <time>2022-04-26T09:34:51.513Z</time>
      </trkpt>
      <trkpt lat="41.5796" lon="20.61766">
        <ele>682.246716</ele>
        <time>2022-04-26T09:34:54.481Z</time>
      </trkpt>
      <trkpt lat="41.57953" lon="20.61758">
        <ele>682.129354</ele>
        <time>2022-04-26T09:34:56.466Z</time>
      </trkpt>
      <trkpt lat="41.57942" lon="20.61749">
        <ele>682.437399</ele>
        <time>2022-04-26T09:34:59.487Z</time>
      </trkpt>
      <trkpt lat="41.57931" lon="20.61742">
        <ele>682.76165</ele>
        <time>2022-04-26T09:35:02.473Z</time>
      </trkpt>
      <trkpt lat="41.57919" lon="20.61737">
        <ele>683.084233</ele>
        <time>2022-04-26T09:35:05.473Z</time>
      </trkpt>
      <trkpt lat="41.57907" lon="20.61733">
        <ele>683.389689</ele>
        <time>2022-04-26T09:35:08.466Z</time>
      </trkpt>
      <trkpt lat="41.57896" lon="20.6173">
        <ele>683.687692</ele>
        <time>2022-04-26T09:35:11.462Z</time>
      </trkpt>
      <trkpt lat="41.57884" lon="20.61727">
        <ele>684.001577</ele>
        <time>2022-04-26T09:35:14.470Z</time>
      </trkpt>
      <trkpt lat="41.57871" lon="20.61724">
        <ele>684.325832</ele>
        <time>2022-04-26T09:35:17.485Z</time>
      </trkpt>
      <trkpt lat="41.57858" lon="20.61722">
        <ele>684.654626</ele>
        <time>2022-04-26T09:35:20.478Z</time>
      </trkpt>
      <trkpt lat="41.57849" lon="20.6172">
        <ele>684.901101</ele>
        <time>2022-04-26T09:35:22.466Z</time>
      </trkpt>
      <trkpt lat="41.57839" lon="20.61718">
        <ele>685.135755</ele>
        <time>2022-04-26T09:35:24.478Z</time>
      </trkpt>
      <trkpt lat="41.57827" lon="20.61716">
        <ele>685.455536</ele>
        <time>2022-04-26T09:35:27.496Z</time>
      </trkpt>
      <trkpt lat="41.57815" lon="20.61715">
        <ele>685.766942</ele>
        <time>2022-04-26T09:35:30.515Z</time>
      </trkpt>
      <trkpt lat="41.57802" lon="20.61716">
        <ele>686.103506</ele>
        <time>2022-04-26T09:35:33.460Z</time>
      </trkpt>
      <trkpt lat="41.57793" lon="20.61716">
        <ele>686.335475</ele>
        <time>2022-04-26T09:35:35.483Z</time>
      </trkpt>
      <trkpt lat="41.57779" lon="20.61717">
        <ele>686.674665</ele>
        <time>2022-04-26T09:35:38.459Z</time>
      </trkpt>
      <trkpt lat="41.57767" lon="20.61717">
        <ele>686.078</ele>
        <time>2022-04-26T09:35:41.463Z</time>
      </trkpt>
      <trkpt lat="41.57754" lon="20.61717">
        <ele>685.28938</ele>
        <time>2022-04-26T09:35:44.472Z</time>
      </trkpt>
      <trkpt lat="41.57742" lon="20.6172">
        <ele>684.523834</ele>
        <time>2022-04-26T09:35:47.498Z</time>
      </trkpt>
      <trkpt lat="41.57728" lon="20.61722">
        <ele>683.673561</ele>
        <time>2022-04-26T09:35:50.461Z</time>
      </trkpt>
      <trkpt lat="41.57718" lon="20.61724">
        <ele>683.084032</ele>
        <time>2022-04-26T09:35:52.476Z</time>
      </trkpt>
      <trkpt lat="41.57709" lon="20.61726">
        <ele>682.502018</ele>
        <time>2022-04-26T09:35:54.476Z</time>
      </trkpt>
      <trkpt lat="41.57699" lon="20.61729">
        <ele>681.929117</ele>
        <time>2022-04-26T09:35:56.510Z</time>
      </trkpt>
      <trkpt lat="41.5769" lon="20.61732">
        <ele>681.369857</ele>
        <time>2022-04-26T09:35:58.473Z</time>
      </trkpt>
      <trkpt lat="41.57681" lon="20.61734">
        <ele>680.823293</ele>
        <time>2022-04-26T09:36:00.470Z</time>
      </trkpt>
      <trkpt lat="41.57669" lon="20.61737">
        <ele>680.055386</ele>
        <time>2022-04-26T09:36:03.458Z</time>
      </trkpt>
      <trkpt lat="41.57657" lon="20.61741">
        <ele>679.322555</ele>
        <time>2022-04-26T09:36:06.494Z</time>
      </trkpt>
      <trkpt lat="41.57646" lon="20.61746">
        <ele>678.60949</ele>
        <time>2022-04-26T09:36:09.469Z</time>
      </trkpt>
      <trkpt lat="41.57633" lon="20.61749">
        <ele>677.844162</ele>
        <time>2022-04-26T09:36:12.481Z</time>
      </trkpt>
      <trkpt lat="41.5762" lon="20.61753">
        <ele>677.043084</ele>
        <time>2022-04-26T09:36:15.482Z</time>
      </trkpt>
      <trkpt lat="41.57608" lon="20.61755">
        <ele>676.300746</ele>
        <time>2022-04-26T09:36:18.495Z</time>
      </trkpt>
      <trkpt lat="41.57595" lon="20.61757">
        <ele>675.939214</ele>
        <time>2022-04-26T09:36:21.482Z</time>
      </trkpt>
      <trkpt lat="41.57583" lon="20.61758">
        <ele>676.049904</ele>
        <time>2022-04-26T09:36:24.486Z</time>
      </trkpt>
      <trkpt lat="41.57571" lon="20.61759">
        <ele>676.16483</ele>
        <time>2022-04-26T09:36:27.504Z</time>
      </trkpt>
      <trkpt lat="41.5756" lon="20.6176">
        <ele>676.268417</ele>
        <time>2022-04-26T09:36:30.494Z</time>
      </trkpt>
      <trkpt lat="41.57549" lon="20.6176">
        <ele>676.368269</ele>
        <time>2022-04-26T09:36:33.478Z</time>
      </trkpt>
      <trkpt lat="41.57539" lon="20.6176">
        <ele>676.461443</ele>
        <time>2022-04-26T09:36:36.485Z</time>
      </trkpt>
      <trkpt lat="41.5753" lon="20.61758">
        <ele>676.552583</ele>
        <time>2022-04-26T09:36:39.482Z</time>
      </trkpt>
      <trkpt lat="41.57519" lon="20.61754">
        <ele>676.654833</ele>
        <time>2022-04-26T09:36:43.493Z</time>
      </trkpt>
      <trkpt lat="41.57508" lon="20.61749">
        <ele>676.763994</ele>
        <time>2022-04-26T09:36:47.483Z</time>
      </trkpt>
      <trkpt lat="41.57499" lon="20.61744">
        <ele>676.854933</ele>
        <time>2022-04-26T09:36:50.461Z</time>
      </trkpt>
      <trkpt lat="41.57491" lon="20.6174">
        <ele>676.942411</ele>
        <time>2022-04-26T09:36:53.478Z</time>
      </trkpt>
      <trkpt lat="41.5748" lon="20.61735">
        <ele>677.048043</ele>
        <time>2022-04-26T09:36:57.467Z</time>
      </trkpt>
      <trkpt lat="41.57472" lon="20.6173">
        <ele>677.13573</ele>
        <time>2022-04-26T09:37:00.480Z</time>
      </trkpt>
      <trkpt lat="41.57463" lon="20.61725">
        <ele>677.227731</ele>
        <time>2022-04-26T09:37:03.467Z</time>
      </trkpt>
      <trkpt lat="41.57454" lon="20.6172">
        <ele>677.312641</ele>
        <time>2022-04-26T09:37:06.514Z</time>
      </trkpt>
      <trkpt lat="41.57444" lon="20.61714">
        <ele>677.42182</ele>
        <time>2022-04-26T09:37:10.500Z</time>
      </trkpt>
      <trkpt lat="41.57433" lon="20.61709">
        <ele>677.528269</ele>
        <time>2022-04-26T09:37:14.505Z</time>
      </trkpt>
      <trkpt lat="41.57424" lon="20.61706">
        <ele>677.58089</ele>
        <time>2022-04-26T09:37:17.561Z</time>
      </trkpt>
      <trkpt lat="41.57413" lon="20.61702">
        <ele>677.598805</ele>
        <time>2022-04-26T09:37:21.478Z</time>
      </trkpt>
      <trkpt lat="41.57404" lon="20.61698">
        <ele>677.613576</ele>
        <time>2022-04-26T09:37:24.490Z</time>
      </trkpt>
      <trkpt lat="41.57393" lon="20.61694">
        <ele>677.631459</ele>
        <time>2022-04-26T09:37:28.519Z</time>
      </trkpt>
      <trkpt lat="41.57382" lon="20.61691">
        <ele>677.649048</ele>
        <time>2022-04-26T09:37:32.478Z</time>
      </trkpt>
      <trkpt lat="41.5737" lon="20.6169">
        <ele>677.666978</ele>
        <time>2022-04-26T09:37:36.469Z</time>
      </trkpt>
      <trkpt lat="41.5736" lon="20.61689">
        <ele>677.68411</ele>
        <time>2022-04-26T09:37:40.480Z</time>
      </trkpt>
      <trkpt lat="41.57349" lon="20.61688">
        <ele>677.700006</ele>
        <time>2022-04-26T09:37:44.483Z</time>
      </trkpt>
      <trkpt lat="41.57338" lon="20.61691">
        <ele>677.718231</ele>
        <time>2022-04-26T09:37:48.484Z</time>
      </trkpt>
      <trkpt lat="41.57327" lon="20.61694">
        <ele>677.736401</ele>
        <time>2022-04-26T09:37:51.481Z</time>
      </trkpt>
      <trkpt lat="41.57313" lon="20.61698">
        <ele>677.75789</ele>
        <time>2022-04-26T09:37:54.484Z</time>
      </trkpt>
      <trkpt lat="41.57303" lon="20.61701">
        <ele>677.774743</ele>
        <time>2022-04-26T09:37:56.515Z</time>
      </trkpt>
      <trkpt lat="41.57291" lon="20.61705">
        <ele>677.793272</ele>
        <time>2022-04-26T09:37:58.474Z</time>
      </trkpt>
      <trkpt lat="41.57279" lon="20.61709">
        <ele>677.813064</ele>
        <time>2022-04-26T09:38:00.477Z</time>
      </trkpt>
      <trkpt lat="41.57268" lon="20.61714">
        <ele>677.831895</ele>
        <time>2022-04-26T09:38:02.484Z</time>
      </trkpt>
      <trkpt lat="41.57256" lon="20.61717">
        <ele>677.85055</ele>
        <time>2022-04-26T09:38:04.492Z</time>
      </trkpt>
      <trkpt lat="41.57243" lon="20.61721">
        <ele>677.646382</ele>
        <time>2022-04-26T09:38:06.493Z</time>
      </trkpt>
      <trkpt lat="41.57229" lon="20.61726">
        <ele>677.370413</ele>
        <time>2022-04-26T09:38:08.486Z</time>
      </trkpt>
      <trkpt lat="41.57217" lon="20.6173">
        <ele>677.109335</ele>
        <time>2022-04-26T09:38:10.495Z</time>
      </trkpt>
      <trkpt lat="41.57205" lon="20.61733">
        <ele>676.869073</ele>
        <time>2022-04-26T09:38:12.498Z</time>
      </trkpt>
      <trkpt lat="41.57194" lon="20.61736">
        <ele>676.640429</ele>
        <time>2022-04-26T09:38:14.475Z</time>
      </trkpt>
      <trkpt lat="41.57184" lon="20.61738">
        <ele>676.429016</ele>
        <time>2022-04-26T09:38:16.462Z</time>
      </trkpt>
      <trkpt lat="41.57174" lon="20.6174">
        <ele>676.216645</ele>
        <time>2022-04-26T09:38:18.508Z</time>
      </trkpt>
      <trkpt lat="41.57162" lon="20.61745">
        <ele>675.973869</ele>
        <time>2022-04-26T09:38:21.483Z</time>
      </trkpt>
      <trkpt lat="41.57152" lon="20.61749">
        <ele>675.758787</ele>
        <time>2022-04-26T09:38:24.519Z</time>
      </trkpt>
      <trkpt lat="41.57142" lon="20.61752">
        <ele>675.552923</ele>
        <time>2022-04-26T09:38:27.492Z</time>
      </trkpt>
      <trkpt lat="41.57133" lon="20.61753">
        <ele>675.357211</ele>
        <time>2022-04-26T09:38:30.485Z</time>
      </trkpt>
      <trkpt lat="41.57122" lon="20.61751">
        <ele>675.134305</ele>
        <time>2022-04-26T09:38:33.473Z</time>
      </trkpt>
      <trkpt lat="41.57111" lon="20.61746">
        <ele>674.890876</ele>
        <time>2022-04-26T09:38:36.496Z</time>
      </trkpt>
      <trkpt lat="41.57099" lon="20.61739">
        <ele>674.642181</ele>
        <time>2022-04-26T09:38:39.490Z</time>
      </trkpt>
      <trkpt lat="41.57087" lon="20.61734">
        <ele>674.377585</ele>
        <time>2022-04-26T09:38:42.490Z</time>
      </trkpt>
      <trkpt lat="41.57078" lon="20.6173">
        <ele>674.236271</ele>
        <time>2022-04-26T09:38:44.490Z</time>
      </trkpt>
      <trkpt lat="41.57068" lon="20.61726">
        <ele>674.528497</ele>
        <time>2022-04-26T09:38:46.505Z</time>
      </trkpt>
      <trkpt lat="41.57058" lon="20.61723">
        <ele>674.824248</ele>
        <time>2022-04-26T09:38:48.495Z</time>
      </trkpt>
      <trkpt lat="41.57047" lon="20.6172">
        <ele>675.151983</ele>
        <time>2022-04-26T09:38:50.492Z</time>
      </trkpt>
      <trkpt lat="41.57035" lon="20.61716">
        <ele>675.511807</ele>
        <time>2022-04-26T09:38:52.508Z</time>
      </trkpt>
      <trkpt lat="41.57024" lon="20.61712">
        <ele>675.848308</ele>
        <time>2022-04-26T09:38:54.474Z</time>
      </trkpt>
      <trkpt lat="41.57013" lon="20.61708">
        <ele>676.204921</ele>
        <time>2022-04-26T09:38:56.465Z</time>
      </trkpt>
      <trkpt lat="41.57" lon="20.61702">
        <ele>676.593506</ele>
        <time>2022-04-26T09:38:58.487Z</time>
      </trkpt>
      <trkpt lat="41.56987" lon="20.61696">
        <ele>677.008524</ele>
        <time>2022-04-26T09:39:00.477Z</time>
      </trkpt>
      <trkpt lat="41.56974" lon="20.6169">
        <ele>677.397832</ele>
        <time>2022-04-26T09:39:02.479Z</time>
      </trkpt>
      <trkpt lat="41.56962" lon="20.61684">
        <ele>677.76782</ele>
        <time>2022-04-26T09:39:04.482Z</time>
      </trkpt>
      <trkpt lat="41.56951" lon="20.6168">
        <ele>678.128794</ele>
        <time>2022-04-26T09:39:06.477Z</time>
      </trkpt>
      <trkpt lat="41.56939" lon="20.61676">
        <ele>678.478028</ele>
        <time>2022-04-26T09:39:08.482Z</time>
      </trkpt>
      <trkpt lat="41.56928" lon="20.61675">
        <ele>678.805455</ele>
        <time>2022-04-26T09:39:10.500Z</time>
      </trkpt>
      <trkpt lat="41.56918" lon="20.61675">
        <ele>679.099137</ele>
        <time>2022-04-26T09:39:12.476Z</time>
      </trkpt>
      <trkpt lat="41.56909" lon="20.61675">
        <ele>679.363773</ele>
        <time>2022-04-26T09:39:14.476Z</time>
      </trkpt>
      <trkpt lat="41.56897" lon="20.61677">
        <ele>679.287765</ele>
        <time>2022-04-26T09:39:17.495Z</time>
      </trkpt>
      <trkpt lat="41.56888" lon="20.61681">
        <ele>679.032603</ele>
        <time>2022-04-26T09:39:20.514Z</time>
      </trkpt>
      <trkpt lat="41.56878" lon="20.61685">
        <ele>678.76393</ele>
        <time>2022-04-26T09:39:23.474Z</time>
      </trkpt>
      <trkpt lat="41.56869" lon="20.6169">
        <ele>678.496005</ele>
        <time>2022-04-26T09:39:26.513Z</time>
      </trkpt>
      <trkpt lat="41.5686" lon="20.61694">
        <ele>678.234249</ele>
        <time>2022-04-26T09:39:29.490Z</time>
      </trkpt>
      <trkpt lat="41.56849" lon="20.617">
        <ele>677.929254</ele>
        <time>2022-04-26T09:39:32.516Z</time>
      </trkpt>
      <trkpt lat="41.56838" lon="20.61706">
        <ele>677.626048</ele>
        <time>2022-04-26T09:39:35.503Z</time>
      </trkpt>
      <trkpt lat="41.5683" lon="20.61713">
        <ele>677.364748</ele>
        <time>2022-04-26T09:39:38.479Z</time>
      </trkpt>
      <trkpt lat="41.56823" lon="20.61721">
        <ele>677.117581</ele>
        <time>2022-04-26T09:39:41.494Z</time>
      </trkpt>
      <trkpt lat="41.56815" lon="20.61729">
        <ele>676.867461</ele>
        <time>2022-04-26T09:39:44.478Z</time>
      </trkpt>
      <trkpt lat="41.56809" lon="20.61739">
        <ele>676.596868</ele>
        <time>2022-04-26T09:39:48.494Z</time>
      </trkpt>
      <trkpt lat="41.56803" lon="20.61751">
        <ele>676.322428</ele>
        <time>2022-04-26T09:39:52.458Z</time>
      </trkpt>
      <trkpt lat="41.56798" lon="20.61761">
        <ele>676.083497</ele>
        <time>2022-04-26T09:39:56.505Z</time>
      </trkpt>
      <trkpt lat="41.56791" lon="20.61773">
        <ele>675.792316</ele>
        <time>2022-04-26T09:40:01.462Z</time>
      </trkpt>
      <trkpt lat="41.56785" lon="20.61784">
        <ele>675.50753</ele>
        <time>2022-04-26T09:40:06.480Z</time>
      </trkpt>
      <trkpt lat="41.56778" lon="20.61793">
        <ele>675.261099</ele>
        <time>2022-04-26T09:40:10.461Z</time>
      </trkpt>
      <trkpt lat="41.56771" lon="20.61804">
        <ele>674.969576</ele>
        <time>2022-04-26T09:40:15.516Z</time>
      </trkpt>
      <trkpt lat="41.56764" lon="20.61814">
        <ele>674.784104</ele>
        <time>2022-04-26T09:40:20.475Z</time>
      </trkpt>
      <trkpt lat="41.56757" lon="20.61824">
        <ele>675.216194</ele>
        <time>2022-04-26T09:40:26.490Z</time>
      </trkpt>
      <trkpt lat="41.56751" lon="20.61834">
        <ele>675.583742</ele>
        <time>2022-04-26T09:40:31.481Z</time>
      </trkpt>
      <trkpt lat="41.56746" lon="20.61845">
        <ele>675.997936</ele>
        <time>2022-04-26T09:40:37.461Z</time>
      </trkpt>
      <trkpt lat="41.56742" lon="20.61858">
        <ele>676.422666</ele>
        <time>2022-04-26T09:40:42.478Z</time>
      </trkpt>
      <trkpt lat="41.56739" lon="20.6187">
        <ele>676.808101</ele>
        <time>2022-04-26T09:40:47.478Z</time>
      </trkpt>
      <trkpt lat="41.56736" lon="20.61882">
        <ele>677.189679</ele>
        <time>2022-04-26T09:40:52.476Z</time>
      </trkpt>
      <trkpt lat="41.56734" lon="20.61896">
        <ele>677.624194</ele>
        <time>2022-04-26T09:40:58.478Z</time>
      </trkpt>
      <trkpt lat="41.56732" lon="20.6191">
        <ele>678.05641</ele>
        <time>2022-04-26T09:41:03.473Z</time>
      </trkpt>
      <trkpt lat="41.56731" lon="20.61922">
        <ele>678.427973</ele>
        <time>2022-04-26T09:41:08.473Z</time>
      </trkpt>
      <trkpt lat="41.56731" lon="20.61934">
        <ele>678.804299</ele>
        <time>2022-04-26T09:41:13.496Z</time>
      </trkpt>
      <trkpt lat="41.56729" lon="20.61948">
        <ele>679.245546</ele>
        <time>2022-04-26T09:41:19.476Z</time>
      </trkpt>
      <trkpt lat="41.56728" lon="20.6196">
        <ele>679.618388</ele>
        <time>2022-04-26T09:41:24.482Z</time>
      </trkpt>
      <trkpt lat="41.56727" lon="20.61972">
        <ele>679.988194</ele>
        <time>2022-04-26T09:41:29.542Z</time>
      </trkpt>
      <trkpt lat="41.56728" lon="20.61985">
        <ele>680.361932</ele>
        <time>2022-04-26T09:41:34.493Z</time>
      </trkpt>
      <trkpt lat="41.56726" lon="20.61997">
        <ele>680.7546</ele>
        <time>2022-04-26T09:41:40.511Z</time>
      </trkpt>
      <trkpt lat="41.56719" lon="20.62007">
        <ele>681.16344</ele>
        <time>2022-04-26T09:41:46.471Z</time>
      </trkpt>
      <trkpt lat="41.56711" lon="20.62014">
        <ele>681.575108</ele>
        <time>2022-04-26T09:41:52.480Z</time>
      </trkpt>
      <trkpt lat="41.567" lon="20.62018">
        <ele>682.038117</ele>
        <time>2022-04-26T09:41:57.474Z</time>
      </trkpt>
      <trkpt lat="41.56689" lon="20.6202">
        <ele>682.551104</ele>
        <time>2022-04-26T09:42:02.493Z</time>
      </trkpt>
      <trkpt lat="41.56679" lon="20.62022">
        <ele>683.006645</ele>
        <time>2022-04-26T09:42:06.467Z</time>
      </trkpt>
      <trkpt lat="41.56669" lon="20.62023">
        <ele>683.424839</ele>
        <time>2022-04-26T09:42:10.472Z</time>
      </trkpt>
      <trkpt lat="41.56658" lon="20.62024">
        <ele>683.922432</ele>
        <time>2022-04-26T09:42:15.478Z</time>
      </trkpt>
      <trkpt lat="41.56649" lon="20.62028">
        <ele>684.36714</ele>
        <time>2022-04-26T09:42:20.489Z</time>
      </trkpt>
      <trkpt lat="41.56639" lon="20.62031">
        <ele>684.815402</ele>
        <time>2022-04-26T09:42:25.478Z</time>
      </trkpt>
      <trkpt lat="41.56629" lon="20.62031">
        <ele>685.2866</ele>
        <time>2022-04-26T09:42:30.476Z</time>
      </trkpt>
      <trkpt lat="41.56619" lon="20.62029">
        <ele>685.729832</ele>
        <time>2022-04-26T09:42:36.482Z</time>
      </trkpt>
      <trkpt lat="41.56609" lon="20.62027">
        <ele>686.178481</ele>
        <time>2022-04-26T09:42:42.483Z</time>
      </trkpt>
      <trkpt lat="41.56599" lon="20.62025">
        <ele>686.653176</ele>
        <time>2022-04-26T09:42:47.489Z</time>
      </trkpt>
      <trkpt lat="41.56589" lon="20.62024">
        <ele>687.112024</ele>
        <time>2022-04-26T09:42:53.474Z</time>
      </trkpt>
      <trkpt lat="41.56579" lon="20.62026">
        <ele>687.58632</ele>
        <time>2022-04-26T09:42:59.478Z</time>
      </trkpt>
      <trkpt lat="41.56569" lon="20.62027">
        <ele>688.030955</ele>
        <time>2022-04-26T09:43:04.477Z</time>
      </trkpt>
      <trkpt lat="41.56558" lon="20.62027">
        <ele>688.529335</ele>
        <time>2022-04-26T09:43:09.492Z</time>
      </trkpt>
      <trkpt lat="41.56548" lon="20.62026">
        <ele>688.987543</ele>
        <time>2022-04-26T09:43:13.469Z</time>
      </trkpt>
      <trkpt lat="41.56539" lon="20.62024">
        <ele>689.395145</ele>
        <time>2022-04-26T09:43:17.470Z</time>
      </trkpt>
      <trkpt lat="41.5653" lon="20.62019">
        <ele>689.820291</ele>
        <time>2022-04-26T09:43:21.480Z</time>
      </trkpt>
      <trkpt lat="41.5652" lon="20.62013">
        <ele>690.217512</ele>
        <time>2022-04-26T09:43:25.496Z</time>
      </trkpt>
      <trkpt lat="41.5651" lon="20.62006">
        <ele>690.086321</ele>
        <time>2022-04-26T09:43:29.485Z</time>
      </trkpt>
      <trkpt lat="41.56501" lon="20.61998">
        <ele>689.959439</ele>
        <time>2022-04-26T09:43:33.484Z</time>
      </trkpt>
      <trkpt lat="41.56491" lon="20.61991">
        <ele>689.829203</ele>
        <time>2022-04-26T09:43:37.497Z</time>
      </trkpt>
      <trkpt lat="41.56481" lon="20.61983">
        <ele>689.69573</ele>
        <time>2022-04-26T09:43:41.514Z</time>
      </trkpt>
      <trkpt lat="41.56471" lon="20.61976">
        <ele>689.564333</ele>
        <time>2022-04-26T09:43:45.493Z</time>
      </trkpt>
      <trkpt lat="41.56462" lon="20.61968">
        <ele>689.433107</ele>
        <time>2022-04-26T09:43:49.478Z</time>
      </trkpt>
      <trkpt lat="41.56452" lon="20.6196">
        <ele>689.295099</ele>
        <time>2022-04-26T09:43:53.521Z</time>
      </trkpt>
      <trkpt lat="41.56444" lon="20.61953">
        <ele>689.188042</ele>
        <time>2022-04-26T09:43:56.488Z</time>
      </trkpt>
      <trkpt lat="41.56436" lon="20.61944">
        <ele>689.062728</ele>
        <time>2022-04-26T09:43:59.491Z</time>
      </trkpt>
      <trkpt lat="41.56428" lon="20.61934">
        <ele>688.938108</ele>
        <time>2022-04-26T09:44:02.480Z</time>
      </trkpt>
      <trkpt lat="41.5642" lon="20.61926">
        <ele>688.818772</ele>
        <time>2022-04-26T09:44:05.508Z</time>
      </trkpt>
      <trkpt lat="41.5641" lon="20.61917">
        <ele>688.687136</ele>
        <time>2022-04-26T09:44:08.479Z</time>
      </trkpt>
      <trkpt lat="41.564" lon="20.61908">
        <ele>688.544373</ele>
        <time>2022-04-26T09:44:11.480Z</time>
      </trkpt>
      <trkpt lat="41.56389" lon="20.61898">
        <ele>688.388519</ele>
        <time>2022-04-26T09:44:14.494Z</time>
      </trkpt>
      <trkpt lat="41.56381" lon="20.61892">
        <ele>688.281438</ele>
        <time>2022-04-26T09:44:16.511Z</time>
      </trkpt>
      <trkpt lat="41.5637" lon="20.61885">
        <ele>688.14407</ele>
        <time>2022-04-26T09:44:19.490Z</time>
      </trkpt>
      <trkpt lat="41.56359" lon="20.61879">
        <ele>688.167724</ele>
        <time>2022-04-26T09:44:22.491Z</time>
      </trkpt>
      <trkpt lat="41.56348" lon="20.61872">
        <ele>688.191948</ele>
        <time>2022-04-26T09:44:25.509Z</time>
      </trkpt>
      <trkpt lat="41.56338" lon="20.61868">
        <ele>688.210559</ele>
        <time>2022-04-26T09:44:27.483Z</time>
      </trkpt>
      <trkpt lat="41.56329" lon="20.61865">
        <ele>688.228919</ele>
        <time>2022-04-26T09:44:29.475Z</time>
      </trkpt>
      <trkpt lat="41.56317" lon="20.61859">
        <ele>688.254445</ele>
        <time>2022-04-26T09:44:32.474Z</time>
      </trkpt>
      <trkpt lat="41.56306" lon="20.61855">
        <ele>688.277105</ele>
        <time>2022-04-26T09:44:35.511Z</time>
      </trkpt>
      <trkpt lat="41.56294" lon="20.6185">
        <ele>688.300824</ele>
        <time>2022-04-26T09:44:38.492Z</time>
      </trkpt>
      <trkpt lat="41.56285" lon="20.61845">
        <ele>688.320369</ele>
        <time>2022-04-26T09:44:40.473Z</time>
      </trkpt>
      <trkpt lat="41.56274" lon="20.61839">
        <ele>688.343686</ele>
        <time>2022-04-26T09:44:42.494Z</time>
      </trkpt>
      <trkpt lat="41.56264" lon="20.61832">
        <ele>688.365563</ele>
        <time>2022-04-26T09:44:44.472Z</time>
      </trkpt>
      <trkpt lat="41.56255" lon="20.61826">
        <ele>688.385338</ele>
        <time>2022-04-26T09:44:46.485Z</time>
      </trkpt>
      <trkpt lat="41.56246" lon="20.61819">
        <ele>688.405044</ele>
        <time>2022-04-26T09:44:48.469Z</time>
      </trkpt>
      <trkpt lat="41.56237" lon="20.61813">
        <ele>688.42455</ele>
        <time>2022-04-26T09:44:50.469Z</time>
      </trkpt>
      <trkpt lat="41.56227" lon="20.61807">
        <ele>688.445344</ele>
        <time>2022-04-26T09:44:52.473Z</time>
      </trkpt>
      <trkpt lat="41.56217" lon="20.61803">
        <ele>688.467305</ele>
        <time>2022-04-26T09:44:54.479Z</time>
      </trkpt>
      <trkpt lat="41.56207" lon="20.61797">
        <ele>688.488227</ele>
        <time>2022-04-26T09:44:56.484Z</time>
      </trkpt>
      <trkpt lat="41.56197" lon="20.61792">
        <ele>688.367325</ele>
        <time>2022-04-26T09:44:58.524Z</time>
      </trkpt>
      <trkpt lat="41.56188" lon="20.61785">
        <ele>688.192061</ele>
        <time>2022-04-26T09:45:00.491Z</time>
      </trkpt>
      <trkpt lat="41.5618" lon="20.61778">
        <ele>688.028446</ele>
        <time>2022-04-26T09:45:02.485Z</time>
      </trkpt>
      <trkpt lat="41.56171" lon="20.61772">
        <ele>687.853776</ele>
        <time>2022-04-26T09:45:04.491Z</time>
      </trkpt>
      <trkpt lat="41.56161" lon="20.61765">
        <ele>687.665531</ele>
        <time>2022-04-26T09:45:06.495Z</time>
      </trkpt>
      <trkpt lat="41.56151" lon="20.61757">
        <ele>687.460886</ele>
        <time>2022-04-26T09:45:08.485Z</time>
      </trkpt>
      <trkpt lat="41.56139" lon="20.61748">
        <ele>687.240355</ele>
        <time>2022-04-26T09:45:10.482Z</time>
      </trkpt>
      <trkpt lat="41.56127" lon="20.61737">
        <ele>686.980489</ele>
        <time>2022-04-26T09:45:12.483Z</time>
      </trkpt>
      <trkpt lat="41.56114" lon="20.61725">
        <ele>686.71482</ele>
        <time>2022-04-26T09:45:14.494Z</time>
      </trkpt>
      <trkpt lat="41.56102" lon="20.61713">
        <ele>686.46335</ele>
        <time>2022-04-26T09:45:16.465Z</time>
      </trkpt>
      <trkpt lat="41.56087" lon="20.61705">
        <ele>686.194344</ele>
        <time>2022-04-26T09:45:18.488Z</time>
      </trkpt>
      <trkpt lat="41.56071" lon="20.61701">
        <ele>685.914039</ele>
        <time>2022-04-26T09:45:20.508Z</time>
      </trkpt>
      <trkpt lat="41.56055" lon="20.61702">
        <ele>685.640374</ele>
        <time>2022-04-26T09:45:22.485Z</time>
      </trkpt>
      <trkpt lat="41.56041" lon="20.61703">
        <ele>685.389103</ele>
        <time>2022-04-26T09:45:24.493Z</time>
      </trkpt>
      <trkpt lat="41.56027" lon="20.61703">
        <ele>685.061401</ele>
        <time>2022-04-26T09:45:26.491Z</time>
      </trkpt>
      <trkpt lat="41.56013" lon="20.61701">
        <ele>684.706935</ele>
        <time>2022-04-26T09:45:28.504Z</time>
      </trkpt>
      <trkpt lat="41.55998" lon="20.61695">
        <ele>684.343472</ele>
        <time>2022-04-26T09:45:30.479Z</time>
      </trkpt>
      <trkpt lat="41.55983" lon="20.61687">
        <ele>683.964371</ele>
        <time>2022-04-26T09:45:32.518Z</time>
      </trkpt>
      <trkpt lat="41.5597" lon="20.61678">
        <ele>683.612485</ele>
        <time>2022-04-26T09:45:34.491Z</time>
      </trkpt>
      <trkpt lat="41.55957" lon="20.61671">
        <ele>683.279003</ele>
        <time>2022-04-26T09:45:36.458Z</time>
      </trkpt>
      <trkpt lat="41.55943" lon="20.61668">
        <ele>682.939682</ele>
        <time>2022-04-26T09:45:38.518Z</time>
      </trkpt>
      <trkpt lat="41.55927" lon="20.61667">
        <ele>682.566525</ele>
        <time>2022-04-26T09:45:40.461Z</time>
      </trkpt>
      <trkpt lat="41.55912" lon="20.61669">
        <ele>682.204994</ele>
        <time>2022-04-26T09:45:42.517Z</time>
      </trkpt>
      <trkpt lat="41.55897" lon="20.61672">
        <ele>681.840879</ele>
        <time>2022-04-26T09:45:44.512Z</time>
      </trkpt>
      <trkpt lat="41.55882" lon="20.61674">
        <ele>681.480556</ele>
        <time>2022-04-26T09:45:46.490Z</time>
      </trkpt>
      <trkpt lat="41.55866" lon="20.61676">
        <ele>681.037712</ele>
        <time>2022-04-26T09:45:48.479Z</time>
      </trkpt>
      <trkpt lat="41.55851" lon="20.61679">
        <ele>680.167077</ele>
        <time>2022-04-26T09:45:50.554Z</time>
      </trkpt>
      <trkpt lat="41.55835" lon="20.61682">
        <ele>679.29166</ele>
        <time>2022-04-26T09:45:52.477Z</time>
      </trkpt>
      <trkpt lat="41.5582" lon="20.61686">
        <ele>678.423577</ele>
        <time>2022-04-26T09:45:54.478Z</time>
      </trkpt>
      <trkpt lat="41.55805" lon="20.61691">
        <ele>677.571289</ele>
        <time>2022-04-26T09:45:56.468Z</time>
      </trkpt>
      <trkpt lat="41.5579" lon="20.61695">
        <ele>676.714493</ele>
        <time>2022-04-26T09:45:58.478Z</time>
      </trkpt>
      <trkpt lat="41.55775" lon="20.617">
        <ele>675.855831</ele>
        <time>2022-04-26T09:46:00.510Z</time>
      </trkpt>
      <trkpt lat="41.5576" lon="20.61705">
        <ele>675.01584</ele>
        <time>2022-04-26T09:46:02.472Z</time>
      </trkpt>
      <trkpt lat="41.55747" lon="20.61711">
        <ele>674.218593</ele>
        <time>2022-04-26T09:46:04.473Z</time>
      </trkpt>
      <trkpt lat="41.55736" lon="20.61715">
        <ele>673.571391</ele>
        <time>2022-04-26T09:46:06.491Z</time>
      </trkpt>
      <trkpt lat="41.55726" lon="20.61718">
        <ele>673.045521</ele>
        <time>2022-04-26T09:46:08.493Z</time>
      </trkpt>
      <trkpt lat="41.55714" lon="20.6172">
        <ele>672.355628</ele>
        <time>2022-04-26T09:46:11.486Z</time>
      </trkpt>
      <trkpt lat="41.55702" lon="20.61722">
        <ele>671.648459</ele>
        <time>2022-04-26T09:46:14.484Z</time>
      </trkpt>
      <trkpt lat="41.55692" lon="20.61723">
        <ele>671.109765</ele>
        <time>2022-04-26T09:46:16.475Z</time>
      </trkpt>
      <trkpt lat="41.5568" lon="20.61725">
        <ele>670.237412</ele>
        <time>2022-04-26T09:46:18.514Z</time>
      </trkpt>
      <trkpt lat="41.55667" lon="20.61726">
        <ele>669.267783</ele>
        <time>2022-04-26T09:46:20.471Z</time>
      </trkpt>
      <trkpt lat="41.55653" lon="20.61728">
        <ele>668.23776</ele>
        <time>2022-04-26T09:46:22.487Z</time>
      </trkpt>
      <trkpt lat="41.55638" lon="20.6173">
        <ele>667.136774</ele>
        <time>2022-04-26T09:46:24.474Z</time>
      </trkpt>
      <trkpt lat="41.55622" lon="20.61733">
        <ele>665.949113</ele>
        <time>2022-04-26T09:46:26.479Z</time>
      </trkpt>
      <trkpt lat="41.55605" lon="20.61734">
        <ele>664.710928</ele>
        <time>2022-04-26T09:46:28.482Z</time>
      </trkpt>
      <trkpt lat="41.55595" lon="20.61733">
        <ele>664.039474</ele>
        <time>2022-04-26T09:46:29.474Z</time>
      </trkpt>
      <trkpt lat="41.55585" lon="20.61731">
        <ele>663.310672</ele>
        <time>2022-04-26T09:46:30.504Z</time>
      </trkpt>
      <trkpt lat="41.55576" lon="20.61727">
        <ele>662.583413</ele>
        <time>2022-04-26T09:46:31.468Z</time>
      </trkpt>
      <trkpt lat="41.55566" lon="20.61722">
        <ele>661.818675</ele>
        <time>2022-04-26T09:46:32.483Z</time>
      </trkpt>
      <trkpt lat="41.55556" lon="20.61717">
        <ele>661.022996</ele>
        <time>2022-04-26T09:46:33.487Z</time>
      </trkpt>
      <trkpt lat="41.55547" lon="20.61708">
        <ele>660.202907</ele>
        <time>2022-04-26T09:46:34.491Z</time>
      </trkpt>
      <trkpt lat="41.55538" lon="20.61699">
        <ele>659.373787</ele>
        <time>2022-04-26T09:46:35.543Z</time>
      </trkpt>
      <trkpt lat="41.5553" lon="20.61688">
        <ele>658.55513</ele>
        <time>2022-04-26T09:46:36.475Z</time>
      </trkpt>
      <trkpt lat="41.55523" lon="20.61676">
        <ele>657.901466</ele>
        <time>2022-04-26T09:46:37.476Z</time>
      </trkpt>
      <trkpt lat="41.55517" lon="20.61665">
        <ele>657.518649</ele>
        <time>2022-04-26T09:46:38.479Z</time>
      </trkpt>
      <trkpt lat="41.55511" lon="20.61655">
        <ele>657.156203</ele>
        <time>2022-04-26T09:46:39.482Z</time>
      </trkpt>
      <trkpt lat="41.55505" lon="20.61646">
        <ele>656.806665</ele>
        <time>2022-04-26T09:46:40.480Z</time>
      </trkpt>
      <trkpt lat="41.55499" lon="20.61637">
        <ele>656.465292</ele>
        <time>2022-04-26T09:46:41.490Z</time>
      </trkpt>
      <trkpt lat="41.55483" lon="20.61627">
        <ele>655.803846</ele>
        <time>2022-04-26T09:46:43.459Z</time>
      </trkpt>
      <trkpt lat="41.55467" lon="20.61621">
        <ele>655.182138</ele>
        <time>2022-04-26T09:46:45.473Z</time>
      </trkpt>
      <trkpt lat="41.55451" lon="20.61622">
        <ele>654.592057</ele>
        <time>2022-04-26T09:46:47.506Z</time>
      </trkpt>
      <trkpt lat="41.55436" lon="20.61627">
        <ele>653.993825</ele>
        <time>2022-04-26T09:46:49.486Z</time>
      </trkpt>
      <trkpt lat="41.55421" lon="20.61637">
        <ele>653.367913</ele>
        <time>2022-04-26T09:46:51.484Z</time>
      </trkpt>
      <trkpt lat="41.55406" lon="20.61644">
        <ele>652.770642</ele>
        <time>2022-04-26T09:46:53.478Z</time>
      </trkpt>
      <trkpt lat="41.55392" lon="20.61651">
        <ele>652.22178</ele>
        <time>2022-04-26T09:46:55.508Z</time>
      </trkpt>
      <trkpt lat="41.55379" lon="20.61657">
        <ele>651.697694</ele>
        <time>2022-04-26T09:46:57.505Z</time>
      </trkpt>
      <trkpt lat="41.55366" lon="20.61662">
        <ele>651.206196</ele>
        <time>2022-04-26T09:46:59.486Z</time>
      </trkpt>
      <trkpt lat="41.55354" lon="20.61665">
        <ele>650.795048</ele>
        <time>2022-04-26T09:47:01.464Z</time>
      </trkpt>
      <trkpt lat="41.55343" lon="20.61666">
        <ele>650.397006</ele>
        <time>2022-04-26T09:47:03.476Z</time>
      </trkpt>
      <trkpt lat="41.55332" lon="20.61666">
        <ele>650.023119</ele>
        <time>2022-04-26T09:47:05.482Z</time>
      </trkpt>
      <trkpt lat="41.55322" lon="20.61663">
        <ele>649.678614</ele>
        <time>2022-04-26T09:47:07.482Z</time>
      </trkpt>
      <trkpt lat="41.55313" lon="20.6166">
        <ele>649.370865</ele>
        <time>2022-04-26T09:47:09.481Z</time>
      </trkpt>
      <trkpt lat="41.55301" lon="20.61653">
        <ele>648.95006</ele>
        <time>2022-04-26T09:47:12.476Z</time>
      </trkpt>
      <trkpt lat="41.55291" lon="20.61646">
        <ele>648.539219</ele>
        <time>2022-04-26T09:47:15.484Z</time>
      </trkpt>
      <trkpt lat="41.55282" lon="20.61637">
        <ele>648.149368</ele>
        <time>2022-04-26T09:47:18.479Z</time>
      </trkpt>
      <trkpt lat="41.55271" lon="20.61627">
        <ele>647.721681</ele>
        <time>2022-04-26T09:47:21.468Z</time>
      </trkpt>
      <trkpt lat="41.55261" lon="20.6162">
        <ele>647.328561</ele>
        <time>2022-04-26T09:47:24.480Z</time>
      </trkpt>
      <trkpt lat="41.55251" lon="20.61612">
        <ele>646.933293</ele>
        <time>2022-04-26T09:47:27.484Z</time>
      </trkpt>
      <trkpt lat="41.55241" lon="20.61605">
        <ele>646.540966</ele>
        <time>2022-04-26T09:47:30.525Z</time>
      </trkpt>
      <trkpt lat="41.55231" lon="20.61597">
        <ele>646.153964</ele>
        <time>2022-04-26T09:47:33.486Z</time>
      </trkpt>
      <trkpt lat="41.55221" lon="20.61589">
        <ele>645.776731</ele>
        <time>2022-04-26T09:47:36.482Z</time>
      </trkpt>
      <trkpt lat="41.55211" lon="20.61583">
        <ele>645.39085</ele>
        <time>2022-04-26T09:47:39.492Z</time>
      </trkpt>
      <trkpt lat="41.55202" lon="20.61576">
        <ele>645.233909</ele>
        <time>2022-04-26T09:47:42.497Z</time>
      </trkpt>
      <trkpt lat="41.55193" lon="20.61569">
        <ele>645.349446</ele>
        <time>2022-04-26T09:47:45.501Z</time>
      </trkpt>
      <trkpt lat="41.55185" lon="20.61561">
        <ele>645.462236</ele>
        <time>2022-04-26T09:47:48.492Z</time>
      </trkpt>
      <trkpt lat="41.55176" lon="20.61553">
        <ele>645.583897</ele>
        <time>2022-04-26T09:47:51.487Z</time>
      </trkpt>
      <trkpt lat="41.55168" lon="20.61545">
        <ele>645.701073</ele>
        <time>2022-04-26T09:47:54.479Z</time>
      </trkpt>
      <trkpt lat="41.5516" lon="20.61536">
        <ele>645.818907</ele>
        <time>2022-04-26T09:47:57.518Z</time>
      </trkpt>
      <trkpt lat="41.55151" lon="20.61527">
        <ele>645.941351</ele>
        <time>2022-04-26T09:48:00.474Z</time>
      </trkpt>
      <trkpt lat="41.55143" lon="20.61518">
        <ele>646.062362</ele>
        <time>2022-04-26T09:48:03.493Z</time>
      </trkpt>
      <trkpt lat="41.55136" lon="20.61509">
        <ele>646.174715</ele>
        <time>2022-04-26T09:48:06.495Z</time>
      </trkpt>
      <trkpt lat="41.55128" lon="20.61498">
        <ele>646.301306</ele>
        <time>2022-04-26T09:48:09.473Z</time>
      </trkpt>
      <trkpt lat="41.55118" lon="20.61486">
        <ele>646.44959</ele>
        <time>2022-04-26T09:48:12.475Z</time>
      </trkpt>
      <trkpt lat="41.55109" lon="20.61474">
        <ele>646.596052</ele>
        <time>2022-04-26T09:48:15.514Z</time>
      </trkpt>
      <trkpt lat="41.55099" lon="20.61463">
        <ele>646.744283</ele>
        <time>2022-04-26T09:48:18.464Z</time>
      </trkpt>
      <trkpt lat="41.5509" lon="20.61452">
        <ele>646.877617</ele>
        <time>2022-04-26T09:48:21.515Z</time>
      </trkpt>
      <trkpt lat="41.55081" lon="20.61441">
        <ele>647.018574</ele>
        <time>2022-04-26T09:48:24.498Z</time>
      </trkpt>
      <trkpt lat="41.55071" lon="20.6143">
        <ele>647.156998</ele>
        <time>2022-04-26T09:48:27.499Z</time>
      </trkpt>
      <trkpt lat="41.55064" lon="20.6142">
        <ele>647.262662</ele>
        <time>2022-04-26T09:48:30.457Z</time>
      </trkpt>
      <trkpt lat="41.55056" lon="20.6141">
        <ele>647.361936</ele>
        <time>2022-04-26T09:48:33.477Z</time>
      </trkpt>
      <trkpt lat="41.55048" lon="20.614">
        <ele>647.454789</ele>
        <time>2022-04-26T09:48:36.494Z</time>
      </trkpt>
      <trkpt lat="41.5504" lon="20.6139">
        <ele>647.553669</ele>
        <time>2022-04-26T09:48:39.470Z</time>
      </trkpt>
      <trkpt lat="41.55031" lon="20.6138">
        <ele>647.658144</ele>
        <time>2022-04-26T09:48:42.490Z</time>
      </trkpt>
      <trkpt lat="41.55022" lon="20.61371">
        <ele>647.752792</ele>
        <time>2022-04-26T09:48:45.495Z</time>
      </trkpt>
      <trkpt lat="41.55015" lon="20.61362">
        <ele>647.845279</ele>
        <time>2022-04-26T09:48:48.456Z</time>
      </trkpt>
      <trkpt lat="41.55006" lon="20.61353">
        <ele>647.940062</ele>
        <time>2022-04-26T09:48:51.494Z</time>
      </trkpt>
      <trkpt lat="41.54997" lon="20.61343">
        <ele>648.045913</ele>
        <time>2022-04-26T09:48:54.482Z</time>
      </trkpt>
      <trkpt lat="41.54987" lon="20.61332">
        <ele>648.158051</ele>
        <time>2022-04-26T09:48:57.489Z</time>
      </trkpt>
      <trkpt lat="41.54978" lon="20.6132">
        <ele>648.269393</ele>
        <time>2022-04-26T09:49:00.479Z</time>
      </trkpt>
      <trkpt lat="41.5497" lon="20.61308">
        <ele>648.376537</ele>
        <time>2022-04-26T09:49:03.470Z</time>
      </trkpt>
      <trkpt lat="41.54963" lon="20.61295">
        <ele>648.486517</ele>
        <time>2022-04-26T09:49:06.488Z</time>
      </trkpt>
      <trkpt lat="41.54956" lon="20.61282">
        <ele>648.590127</ele>
        <time>2022-04-26T09:49:09.481Z</time>
      </trkpt>
      <trkpt lat="41.5495" lon="20.61268">
        <ele>648.695891</ele>
        <time>2022-04-26T09:49:12.516Z</time>
      </trkpt>
      <trkpt lat="41.54945" lon="20.61255">
        <ele>648.798027</ele>
        <time>2022-04-26T09:49:15.490Z</time>
      </trkpt>
      <trkpt lat="41.54941" lon="20.61241">
        <ele>648.809395</ele>
        <time>2022-04-26T09:49:18.468Z</time>
      </trkpt>
      <trkpt lat="41.54937" lon="20.61228">
        <ele>648.81307</ele>
        <time>2022-04-26T09:49:21.493Z</time>
      </trkpt>
      <trkpt lat="41.54934" lon="20.61215">
        <ele>648.816923</ele>
        <time>2022-04-26T09:49:24.497Z</time>
      </trkpt>
      <trkpt lat="41.54931" lon="20.61199">
        <ele>648.821364</ele>
        <time>2022-04-26T09:49:27.485Z</time>
      </trkpt>
      <trkpt lat="41.5493" lon="20.61183">
        <ele>648.825868</ele>
        <time>2022-04-26T09:49:30.469Z</time>
      </trkpt>
      <trkpt lat="41.54929" lon="20.61165">
        <ele>648.830811</ele>
        <time>2022-04-26T09:49:33.497Z</time>
      </trkpt>
      <trkpt lat="41.54926" lon="20.61148">
        <ele>648.835657</ele>
        <time>2022-04-26T09:49:36.483Z</time>
      </trkpt>
      <trkpt lat="41.54923" lon="20.61131">
        <ele>648.840499</ele>
        <time>2022-04-26T09:49:39.489Z</time>
      </trkpt>
      <trkpt lat="41.54921" lon="20.61119">
        <ele>648.843994</ele>
        <time>2022-04-26T09:49:41.495Z</time>
      </trkpt>
      <trkpt lat="41.54919" lon="20.61106">
        <ele>648.847442</ele>
        <time>2022-04-26T09:49:43.481Z</time>
      </trkpt>
      <trkpt lat="41.54918" lon="20.61095">
        <ele>648.850761</ele>
        <time>2022-04-26T09:49:45.544Z</time>
      </trkpt>
      <trkpt lat="41.54915" lon="20.61077">
        <ele>648.855635</ele>
        <time>2022-04-26T09:49:48.499Z</time>
      </trkpt>
      <trkpt lat="41.54913" lon="20.6106">
        <ele>648.860386</ele>
        <time>2022-04-26T09:49:51.500Z</time>
      </trkpt>
      <trkpt lat="41.5491" lon="20.61043">
        <ele>648.865375</ele>
        <time>2022-04-26T09:49:54.481Z</time>
      </trkpt>
      <trkpt lat="41.54906" lon="20.61026">
        <ele>648.870165</ele>
        <time>2022-04-26T09:49:57.467Z</time>
      </trkpt>
      <trkpt lat="41.54901" lon="20.6101">
        <ele>648.665816</ele>
        <time>2022-04-26T09:50:00.494Z</time>
      </trkpt>
      <trkpt lat="41.54897" lon="20.60998">
        <ele>648.441028</ele>
        <time>2022-04-26T09:50:02.482Z</time>
      </trkpt>
      <trkpt lat="41.54891" lon="20.60982">
        <ele>648.12558</ele>
        <time>2022-04-26T09:50:05.492Z</time>
      </trkpt>
      <trkpt lat="41.54886" lon="20.60967">
        <ele>647.823436</ele>
        <time>2022-04-26T09:50:08.486Z</time>
      </trkpt>
      <trkpt lat="41.5488" lon="20.60952">
        <ele>647.523756</ele>
        <time>2022-04-26T09:50:11.492Z</time>
      </trkpt>
      <trkpt lat="41.54874" lon="20.60943">
        <ele>647.303584</ele>
        <time>2022-04-26T09:50:13.492Z</time>
      </trkpt>
      <trkpt lat="41.54865" lon="20.6093">
        <ele>646.991206</ele>
        <time>2022-04-26T09:50:16.470Z</time>
      </trkpt>
      <trkpt lat="41.54858" lon="20.60922">
        <ele>646.777446</ele>
        <time>2022-04-26T09:50:18.534Z</time>
      </trkpt>
      <trkpt lat="41.54851" lon="20.60913">
        <ele>646.543484</ele>
        <time>2022-04-26T09:50:20.489Z</time>
      </trkpt>
      <trkpt lat="41.54843" lon="20.60905">
        <ele>646.304697</ele>
        <time>2022-04-26T09:50:22.494Z</time>
      </trkpt>
      <trkpt lat="41.54835" lon="20.60898">
        <ele>646.072205</ele>
        <time>2022-04-26T09:50:24.465Z</time>
      </trkpt>
      <trkpt lat="41.54828" lon="20.6089">
        <ele>645.85338</ele>
        <time>2022-04-26T09:50:26.469Z</time>
      </trkpt>
      <trkpt lat="41.5482" lon="20.60883">
        <ele>645.62728</ele>
        <time>2022-04-26T09:50:28.477Z</time>
      </trkpt>
      <trkpt lat="41.54812" lon="20.60875">
        <ele>645.401637</ele>
        <time>2022-04-26T09:50:30.494Z</time>
      </trkpt>
      <trkpt lat="41.54805" lon="20.60868">
        <ele>645.186835</ele>
        <time>2022-04-26T09:50:32.487Z</time>
      </trkpt>
      <trkpt lat="41.54795" lon="20.60858">
        <ele>644.881599</ele>
        <time>2022-04-26T09:50:35.480Z</time>
      </trkpt>
      <trkpt lat="41.54784" lon="20.60847">
        <ele>644.594495</ele>
        <time>2022-04-26T09:50:38.490Z</time>
      </trkpt>
      <trkpt lat="41.54774" lon="20.60836">
        <ele>644.612026</ele>
        <time>2022-04-26T09:50:41.495Z</time>
      </trkpt>
      <trkpt lat="41.54765" lon="20.60827">
        <ele>644.628061</ele>
        <time>2022-04-26T09:50:44.488Z</time>
      </trkpt>
      <trkpt lat="41.54755" lon="20.60817">
        <ele>644.644709</ele>
        <time>2022-04-26T09:50:47.478Z</time>
      </trkpt>
      <trkpt lat="41.54745" lon="20.60807">
        <ele>644.661935</ele>
        <time>2022-04-26T09:50:50.485Z</time>
      </trkpt>
      <trkpt lat="41.54735" lon="20.60798">
        <ele>644.678602</ele>
        <time>2022-04-26T09:50:53.488Z</time>
      </trkpt>
      <trkpt lat="41.54724" lon="20.60787">
        <ele>644.696498</ele>
        <time>2022-04-26T09:50:56.485Z</time>
      </trkpt>
      <trkpt lat="41.54713" lon="20.60777">
        <ele>644.714514</ele>
        <time>2022-04-26T09:50:59.479Z</time>
      </trkpt>
      <trkpt lat="41.54704" lon="20.60767">
        <ele>644.730753</ele>
        <time>2022-04-26T09:51:02.486Z</time>
      </trkpt>
      <trkpt lat="41.54695" lon="20.60756">
        <ele>644.7478</ele>
        <time>2022-04-26T09:51:05.489Z</time>
      </trkpt>
      <trkpt lat="41.54686" lon="20.60744">
        <ele>644.764944</ele>
        <time>2022-04-26T09:51:08.512Z</time>
      </trkpt>
      <trkpt lat="41.54677" lon="20.60731">
        <ele>644.782097</ele>
        <time>2022-04-26T09:51:11.476Z</time>
      </trkpt>
      <trkpt lat="41.54667" lon="20.60719">
        <ele>644.800534</ele>
        <time>2022-04-26T09:51:14.489Z</time>
      </trkpt>
      <trkpt lat="41.5466" lon="20.60711">
        <ele>644.814134</ele>
        <time>2022-04-26T09:51:16.490Z</time>
      </trkpt>
      <trkpt lat="41.54652" lon="20.60703">
        <ele>644.827182</ele>
        <time>2022-04-26T09:51:18.497Z</time>
      </trkpt>
      <trkpt lat="41.54645" lon="20.60695">
        <ele>644.800397</ele>
        <time>2022-04-26T09:51:20.488Z</time>
      </trkpt>
      <trkpt lat="41.54638" lon="20.60687">
        <ele>644.577992</ele>
        <time>2022-04-26T09:51:22.471Z</time>
      </trkpt>
      <trkpt lat="41.5463" lon="20.60678">
        <ele>644.347348</ele>
        <time>2022-04-26T09:51:24.477Z</time>
      </trkpt>
      <trkpt lat="41.54623" lon="20.6067">
        <ele>644.135383</ele>
        <time>2022-04-26T09:51:26.476Z</time>
      </trkpt>
      <trkpt lat="41.54614" lon="20.6066">
        <ele>643.842192</ele>
        <time>2022-04-26T09:51:29.485Z</time>
      </trkpt>
      <trkpt lat="41.54604" lon="20.60649">
        <ele>643.545601</ele>
        <time>2022-04-26T09:51:32.485Z</time>
      </trkpt>
      <trkpt lat="41.54595" lon="20.60637">
        <ele>643.250142</ele>
        <time>2022-04-26T09:51:35.553Z</time>
      </trkpt>
      <trkpt lat="41.54586" lon="20.60624">
        <ele>642.94219</ele>
        <time>2022-04-26T09:51:38.489Z</time>
      </trkpt>
      <trkpt lat="41.54579" lon="20.60616">
        <ele>642.717983</ele>
        <time>2022-04-26T09:51:40.476Z</time>
      </trkpt>
      <trkpt lat="41.54572" lon="20.60606">
        <ele>642.483707</ele>
        <time>2022-04-26T09:51:42.474Z</time>
      </trkpt>
      <trkpt lat="41.54565" lon="20.60591">
        <ele>642.178887</ele>
        <time>2022-04-26T09:51:45.493Z</time>
      </trkpt>
      <trkpt lat="41.5456" lon="20.60576">
        <ele>641.897224</ele>
        <time>2022-04-26T09:51:48.479Z</time>
      </trkpt>
      <trkpt lat="41.54555" lon="20.60562">
        <ele>641.606138</ele>
        <time>2022-04-26T09:51:51.460Z</time>
      </trkpt>
      <trkpt lat="41.5455" lon="20.60547">
        <ele>641.318867</ele>
        <time>2022-04-26T09:51:54.518Z</time>
      </trkpt>
      <trkpt lat="41.54545" lon="20.60531">
        <ele>641.020497</ele>
        <time>2022-04-26T09:51:57.508Z</time>
      </trkpt>
      <trkpt lat="41.54541" lon="20.60515">
        <ele>640.725403</ele>
        <time>2022-04-26T09:52:00.467Z</time>
      </trkpt>
      <trkpt lat="41.54536" lon="20.60498">
        <ele>640.345528</ele>
        <time>2022-04-26T09:52:03.476Z</time>
      </trkpt>
      <trkpt lat="41.54532" lon="20.60483">
        <ele>639.964263</ele>
        <time>2022-04-26T09:52:06.490Z</time>
      </trkpt>
      <trkpt lat="41.54527" lon="20.60468">
        <ele>639.606711</ele>
        <time>2022-04-26T09:52:09.477Z</time>
      </trkpt>
      <trkpt lat="41.54523" lon="20.60452">
        <ele>639.207851</ele>
        <time>2022-04-26T09:52:12.482Z</time>
      </trkpt>
      <trkpt lat="41.54519" lon="20.60435">
        <ele>638.813865</ele>
        <time>2022-04-26T09:52:15.482Z</time>
      </trkpt>
      <trkpt lat="41.54515" lon="20.60418">
        <ele>638.403459</ele>
        <time>2022-04-26T09:52:18.498Z</time>
      </trkpt>
      <trkpt lat="41.5451" lon="20.60402">
        <ele>637.996558</ele>
        <time>2022-04-26T09:52:21.486Z</time>
      </trkpt>
      <trkpt lat="41.54507" lon="20.6039">
        <ele>637.713141</ele>
        <time>2022-04-26T09:52:23.485Z</time>
      </trkpt>
      <trkpt lat="41.54504" lon="20.60378">
        <ele>637.411825</ele>
        <time>2022-04-26T09:52:25.486Z</time>
      </trkpt>
      <trkpt lat="41.54502" lon="20.60365">
        <ele>637.115896</ele>
        <time>2022-04-26T09:52:27.477Z</time>
      </trkpt>
      <trkpt lat="41.54499" lon="20.60349">
        <ele>636.728124</ele>
        <time>2022-04-26T09:52:30.484Z</time>
      </trkpt>
      <trkpt lat="41.54495" lon="20.60332">
        <ele>636.323587</ele>
        <time>2022-04-26T09:52:33.473Z</time>
      </trkpt>
      <trkpt lat="41.54492" lon="20.6032">
        <ele>636.034503</ele>
        <time>2022-04-26T09:52:35.480Z</time>
      </trkpt>
      <trkpt lat="41.54488" lon="20.60308">
        <ele>635.744217</ele>
        <time>2022-04-26T09:52:37.471Z</time>
      </trkpt>
      <trkpt lat="41.54484" lon="20.60297">
        <ele>635.460448</ele>
        <time>2022-04-26T09:52:39.462Z</time>
      </trkpt>
      <trkpt lat="41.54481" lon="20.60286">
        <ele>635.184543</ele>
        <time>2022-04-26T09:52:41.478Z</time>
      </trkpt>
      <trkpt lat="41.54478" lon="20.60273">
        <ele>635.067104</ele>
        <time>2022-04-26T09:52:43.467Z</time>
      </trkpt>
      <trkpt lat="41.54474" lon="20.60261">
        <ele>635.00583</ele>
        <time>2022-04-26T09:52:45.494Z</time>
      </trkpt>
      <trkpt lat="41.5447" lon="20.60248">
        <ele>634.945414</ele>
        <time>2022-04-26T09:52:47.470Z</time>
      </trkpt>
      <trkpt lat="41.54467" lon="20.60235">
        <ele>634.886163</ele>
        <time>2022-04-26T09:52:49.478Z</time>
      </trkpt>
      <trkpt lat="41.54464" lon="20.60222">
        <ele>634.825744</ele>
        <time>2022-04-26T09:52:51.465Z</time>
      </trkpt>
      <trkpt lat="41.54461" lon="20.60209">
        <ele>634.766071</ele>
        <time>2022-04-26T09:52:53.486Z</time>
      </trkpt>
      <trkpt lat="41.54458" lon="20.60197">
        <ele>634.709525</ele>
        <time>2022-04-26T09:52:55.485Z</time>
      </trkpt>
      <trkpt lat="41.54454" lon="20.60185">
        <ele>634.652636</ele>
        <time>2022-04-26T09:52:57.511Z</time>
      </trkpt>
      <trkpt lat="41.54451" lon="20.60172">
        <ele>634.593205</ele>
        <time>2022-04-26T09:52:59.482Z</time>
      </trkpt>
      <trkpt lat="41.54448" lon="20.60159">
        <ele>634.53051</ele>
        <time>2022-04-26T09:53:01.476Z</time>
      </trkpt>
      <trkpt lat="41.54445" lon="20.60145">
        <ele>634.468376</ele>
        <time>2022-04-26T09:53:03.485Z</time>
      </trkpt>
      <trkpt lat="41.54442" lon="20.60132">
        <ele>634.407262</ele>
        <time>2022-04-26T09:53:05.485Z</time>
      </trkpt>
      <trkpt lat="41.54439" lon="20.6012">
        <ele>634.350954</ele>
        <time>2022-04-26T09:53:07.473Z</time>
      </trkpt>
      <trkpt lat="41.54435" lon="20.60108">
        <ele>634.295709</ele>
        <time>2022-04-26T09:53:09.503Z</time>
      </trkpt>
      <trkpt lat="41.54433" lon="20.60096">
        <ele>634.240258</ele>
        <time>2022-04-26T09:53:11.474Z</time>
      </trkpt>
      <trkpt lat="41.5443" lon="20.60084">
        <ele>634.185394</ele>
        <time>2022-04-26T09:53:13.497Z</time>
      </trkpt>
      <trkpt lat="41.54427" lon="20.60072">
        <ele>634.127057</ele>
        <time>2022-04-26T09:53:15.489Z</time>
      </trkpt>
      <trkpt lat="41.54423" lon="20.60059">
        <ele>634.066857</ele>
        <time>2022-04-26T09:53:17.491Z</time>
      </trkpt>
      <trkpt lat="41.5442" lon="20.60047">
        <ele>633.94819</ele>
        <time>2022-04-26T09:53:19.517Z</time>
      </trkpt>
      <trkpt lat="41.54416" lon="20.60034">
        <ele>633.79334</ele>
        <time>2022-04-26T09:53:21.462Z</time>
      </trkpt>
      <trkpt lat="41.54413" lon="20.60021">
        <ele>633.645259</ele>
        <time>2022-04-26T09:53:23.496Z</time>
      </trkpt>
      <trkpt lat="41.5441" lon="20.60008">
        <ele>633.492818</ele>
        <time>2022-04-26T09:53:25.533Z</time>
      </trkpt>
      <trkpt lat="41.54405" lon="20.59995">
        <ele>633.334904</ele>
        <time>2022-04-26T09:53:27.463Z</time>
      </trkpt>
      <trkpt lat="41.54402" lon="20.59983">
        <ele>633.188367</ele>
        <time>2022-04-26T09:53:29.501Z</time>
      </trkpt>
      <trkpt lat="41.54397" lon="20.59971">
        <ele>633.037351</ele>
        <time>2022-04-26T09:53:31.483Z</time>
      </trkpt>
      <trkpt lat="41.54393" lon="20.59958">
        <ele>632.880154</ele>
        <time>2022-04-26T09:53:33.472Z</time>
      </trkpt>
      <trkpt lat="41.54387" lon="20.59946">
        <ele>632.721659</ele>
        <time>2022-04-26T09:53:35.501Z</time>
      </trkpt>
      <trkpt lat="41.5438" lon="20.59934">
        <ele>632.561764</ele>
        <time>2022-04-26T09:53:37.494Z</time>
      </trkpt>
      <trkpt lat="41.54374" lon="20.59923">
        <ele>632.405417</ele>
        <time>2022-04-26T09:53:39.483Z</time>
      </trkpt>
      <trkpt lat="41.54368" lon="20.59912">
        <ele>632.250829</ele>
        <time>2022-04-26T09:53:41.500Z</time>
      </trkpt>
      <trkpt lat="41.54361" lon="20.59901">
        <ele>632.094235</ele>
        <time>2022-04-26T09:53:43.475Z</time>
      </trkpt>
      <trkpt lat="41.54354" lon="20.59891">
        <ele>631.944325</ele>
        <time>2022-04-26T09:53:45.475Z</time>
      </trkpt>
      <trkpt lat="41.54347" lon="20.59881">
        <ele>631.795038</ele>
        <time>2022-04-26T09:53:47.460Z</time>
      </trkpt>
      <trkpt lat="41.5434" lon="20.59871">
        <ele>631.642905</ele>
        <time>2022-04-26T09:53:49.481Z</time>
      </trkpt>
      <trkpt lat="41.54333" lon="20.59861">
        <ele>631.484487</ele>
        <time>2022-04-26T09:53:51.489Z</time>
      </trkpt>
      <trkpt lat="41.54326" lon="20.59852">
        <ele>631.383123</ele>
        <time>2022-04-26T09:53:53.508Z</time>
      </trkpt>
      <trkpt lat="41.5432" lon="20.59841">
        <ele>631.385919</ele>
        <time>2022-04-26T09:53:55.498Z</time>
      </trkpt>
      <trkpt lat="41.54313" lon="20.59831">
        <ele>631.388766</ele>
        <time>2022-04-26T09:53:57.489Z</time>
      </trkpt>
      <trkpt lat="41.54306" lon="20.59821">
        <ele>631.391683</ele>
        <time>2022-04-26T09:53:59.490Z</time>
      </trkpt>
      <trkpt lat="41.54299" lon="20.5981">
        <ele>631.394745</ele>
        <time>2022-04-26T09:54:01.485Z</time>
      </trkpt>
      <trkpt lat="41.54291" lon="20.598">
        <ele>631.397612</ele>
        <time>2022-04-26T09:54:03.489Z</time>
      </trkpt>
      <trkpt lat="41.54284" lon="20.59791">
        <ele>631.40036</ele>
        <time>2022-04-26T09:54:05.472Z</time>
      </trkpt>
      <trkpt lat="41.54278" lon="20.59782">
        <ele>631.403015</ele>
        <time>2022-04-26T09:54:07.497Z</time>
      </trkpt>
      <trkpt lat="41.5427" lon="20.59768">
        <ele>631.406615</ele>
        <time>2022-04-26T09:54:10.499Z</time>
      </trkpt>
      <trkpt lat="41.54262" lon="20.59761">
        <ele>631.409305</ele>
        <time>2022-04-26T09:54:12.484Z</time>
      </trkpt>
      <trkpt lat="41.54255" lon="20.59751">
        <ele>631.41215</ele>
        <time>2022-04-26T09:54:14.477Z</time>
      </trkpt>
      <trkpt lat="41.54248" lon="20.59741">
        <ele>631.415001</ele>
        <time>2022-04-26T09:54:16.472Z</time>
      </trkpt>
      <trkpt lat="41.54242" lon="20.5973">
        <ele>631.417897</ele>
        <time>2022-04-26T09:54:18.481Z</time>
      </trkpt>
      <trkpt lat="41.54237" lon="20.5972">
        <ele>631.420412</ele>
        <time>2022-04-26T09:54:20.472Z</time>
      </trkpt>
      <trkpt lat="41.5423" lon="20.59705">
        <ele>631.424097</ele>
        <time>2022-04-26T09:54:23.480Z</time>
      </trkpt>
      <trkpt lat="41.54224" lon="20.59691">
        <ele>631.427438</ele>
        <time>2022-04-26T09:54:26.523Z</time>
      </trkpt>
      <trkpt lat="41.54218" lon="20.59678">
        <ele>631.430528</ele>
        <time>2022-04-26T09:54:29.505Z</time>
      </trkpt>
      <trkpt lat="41.54211" lon="20.59665">
        <ele>631.451353</ele>
        <time>2022-04-26T09:54:32.517Z</time>
      </trkpt>
      <trkpt lat="41.54204" lon="20.59652">
        <ele>631.498191</ele>
        <time>2022-04-26T09:54:35.496Z</time>
      </trkpt>
      <trkpt lat="41.54196" lon="20.59637">
        <ele>631.549382</ele>
        <time>2022-04-26T09:54:38.511Z</time>
      </trkpt>
      <trkpt lat="41.54191" lon="20.59627">
        <ele>631.583746</ele>
        <time>2022-04-26T09:54:40.487Z</time>
      </trkpt>
      <trkpt lat="41.54186" lon="20.59617">
        <ele>631.618279</ele>
        <time>2022-04-26T09:54:42.486Z</time>
      </trkpt>
      <trkpt lat="41.54179" lon="20.59603">
        <ele>631.666976</ele>
        <time>2022-04-26T09:54:45.482Z</time>
      </trkpt>
      <trkpt lat="41.54173" lon="20.59588">
        <ele>631.713994</ele>
        <time>2022-04-26T09:54:48.480Z</time>
      </trkpt>
      <trkpt lat="41.54168" lon="20.59578">
        <ele>631.748535</ele>
        <time>2022-04-26T09:54:50.485Z</time>
      </trkpt>
      <trkpt lat="41.54162" lon="20.59568">
        <ele>631.784904</ele>
        <time>2022-04-26T09:54:52.480Z</time>
      </trkpt>
      <trkpt lat="41.54157" lon="20.59557">
        <ele>631.819714</ele>
        <time>2022-04-26T09:54:54.474Z</time>
      </trkpt>
      <trkpt lat="41.5415" lon="20.59542">
        <ele>631.870282</ele>
        <time>2022-04-26T09:54:57.481Z</time>
      </trkpt>
      <trkpt lat="41.54143" lon="20.59527">
        <ele>631.921076</ele>
        <time>2022-04-26T09:55:00.484Z</time>
      </trkpt>
      <trkpt lat="41.54136" lon="20.59512">
        <ele>631.971524</ele>
        <time>2022-04-26T09:55:03.466Z</time>
      </trkpt>
      <trkpt lat="41.54129" lon="20.59497">
        <ele>632.020727</ele>
        <time>2022-04-26T09:55:06.487Z</time>
      </trkpt>
      <trkpt lat="41.54123" lon="20.59483">
        <ele>632.06689</ele>
        <time>2022-04-26T09:55:09.481Z</time>
      </trkpt>
      <trkpt lat="41.54116" lon="20.59468">
        <ele>632.094681</ele>
        <time>2022-04-26T09:55:12.469Z</time>
      </trkpt>
      <trkpt lat="41.54111" lon="20.59457">
        <ele>631.900668</ele>
        <time>2022-04-26T09:55:14.477Z</time>
      </trkpt>
      <trkpt lat="41.54105" lon="20.59447">
        <ele>631.703305</ele>
        <time>2022-04-26T09:55:16.466Z</time>
      </trkpt>
      <trkpt lat="41.541" lon="20.59436">
        <ele>631.505657</ele>
        <time>2022-04-26T09:55:18.472Z</time>
      </trkpt>
      <trkpt lat="41.54095" lon="20.59426">
        <ele>631.306719</ele>
        <time>2022-04-26T09:55:20.492Z</time>
      </trkpt>
      <trkpt lat="41.54089" lon="20.59415">
        <ele>631.110214</ele>
        <time>2022-04-26T09:55:22.472Z</time>
      </trkpt>
      <trkpt lat="41.54084" lon="20.59405">
        <ele>630.920025</ele>
        <time>2022-04-26T09:55:24.484Z</time>
      </trkpt>
      <trkpt lat="41.54079" lon="20.59395">
        <ele>630.727504</ele>
        <time>2022-04-26T09:55:26.478Z</time>
      </trkpt>
      <trkpt lat="41.54074" lon="20.59384">
        <ele>630.538278</ele>
        <time>2022-04-26T09:55:28.489Z</time>
      </trkpt>
      <trkpt lat="41.5407" lon="20.59374">
        <ele>630.346958</ele>
        <time>2022-04-26T09:55:30.474Z</time>
      </trkpt>
      <trkpt lat="41.54064" lon="20.59363">
        <ele>630.150275</ele>
        <time>2022-04-26T09:55:32.502Z</time>
      </trkpt>
      <trkpt lat="41.5406" lon="20.59353">
        <ele>629.964308</ele>
        <time>2022-04-26T09:55:34.488Z</time>
      </trkpt>
      <trkpt lat="41.54052" lon="20.59338">
        <ele>629.684617</ele>
        <time>2022-04-26T09:55:37.476Z</time>
      </trkpt>
      <trkpt lat="41.54047" lon="20.59327">
        <ele>629.49557</ele>
        <time>2022-04-26T09:55:39.481Z</time>
      </trkpt>
      <trkpt lat="41.5404" lon="20.59313">
        <ele>629.222811</ele>
        <time>2022-04-26T09:55:42.475Z</time>
      </trkpt>
      <trkpt lat="41.54034" lon="20.59298">
        <ele>628.955958</ele>
        <time>2022-04-26T09:55:45.491Z</time>
      </trkpt>
      <trkpt lat="41.54027" lon="20.59283">
        <ele>628.684054</ele>
        <time>2022-04-26T09:55:48.529Z</time>
      </trkpt>
      <trkpt lat="41.5402" lon="20.59269">
        <ele>628.421372</ele>
        <time>2022-04-26T09:55:51.486Z</time>
      </trkpt>
      <trkpt lat="41.54012" lon="20.59255">
        <ele>628.257906</ele>
        <time>2022-04-26T09:55:54.474Z</time>
      </trkpt>
      <trkpt lat="41.54005" lon="20.59242">
        <ele>628.1164</ele>
        <time>2022-04-26T09:55:57.478Z</time>
      </trkpt>
      <trkpt lat="41.53998" lon="20.59228">
        <ele>627.973473</ele>
        <time>2022-04-26T09:56:00.467Z</time>
      </trkpt>
      <trkpt lat="41.53991" lon="20.59215">
        <ele>627.828344</ele>
        <time>2022-04-26T09:56:03.479Z</time>
      </trkpt>
      <trkpt lat="41.53984" lon="20.59201">
        <ele>627.68125</ele>
        <time>2022-04-26T09:56:06.503Z</time>
      </trkpt>
      <trkpt lat="41.53975" lon="20.59189">
        <ele>627.531571</ele>
        <time>2022-04-26T09:56:09.464Z</time>
      </trkpt>
      <trkpt lat="41.53968" lon="20.59181">
        <ele>627.423896</ele>
        <time>2022-04-26T09:56:11.485Z</time>
      </trkpt>
      <trkpt lat="41.53958" lon="20.5917">
        <ele>627.2754</ele>
        <time>2022-04-26T09:56:14.470Z</time>
      </trkpt>
      <trkpt lat="41.53948" lon="20.59159">
        <ele>627.12035</ele>
        <time>2022-04-26T09:56:17.473Z</time>
      </trkpt>
      <trkpt lat="41.53937" lon="20.59148">
        <ele>626.963067</ele>
        <time>2022-04-26T09:56:20.493Z</time>
      </trkpt>
      <trkpt lat="41.53926" lon="20.59137">
        <ele>626.806558</ele>
        <time>2022-04-26T09:56:23.474Z</time>
      </trkpt>
      <trkpt lat="41.53919" lon="20.5913">
        <ele>626.699839</ele>
        <time>2022-04-26T09:56:25.494Z</time>
      </trkpt>
      <trkpt lat="41.5391" lon="20.59118">
        <ele>626.551159</ele>
        <time>2022-04-26T09:56:28.501Z</time>
      </trkpt>
      <trkpt lat="41.539" lon="20.59108">
        <ele>626.403027</ele>
        <time>2022-04-26T09:56:31.490Z</time>
      </trkpt>
      <trkpt lat="41.53889" lon="20.59097">
        <ele>626.254694</ele>
        <time>2022-04-26T09:56:34.494Z</time>
      </trkpt>
      <trkpt lat="41.53879" lon="20.59086">
        <ele>626.12171</ele>
        <time>2022-04-26T09:56:37.493Z</time>
      </trkpt>
      <trkpt lat="41.53871" lon="20.59078">
        <ele>626.02744</ele>
        <time>2022-04-26T09:56:39.505Z</time>
      </trkpt>
      <trkpt lat="41.53864" lon="20.59071">
        <ele>625.931582</ele>
        <time>2022-04-26T09:56:41.473Z</time>
      </trkpt>
      <trkpt lat="41.53856" lon="20.59063">
        <ele>625.838659</ele>
        <time>2022-04-26T09:56:43.475Z</time>
      </trkpt>
      <trkpt lat="41.53849" lon="20.59056">
        <ele>625.747048</ele>
        <time>2022-04-26T09:56:45.481Z</time>
      </trkpt>
      <trkpt lat="41.53838" lon="20.59045">
        <ele>625.611798</ele>
        <time>2022-04-26T09:56:48.476Z</time>
      </trkpt>
      <trkpt lat="41.5383" lon="20.59038">
        <ele>625.51843</ele>
        <time>2022-04-26T09:56:50.460Z</time>
      </trkpt>
      <trkpt lat="41.53822" lon="20.59031">
        <ele>625.423538</ele>
        <time>2022-04-26T09:56:52.483Z</time>
      </trkpt>
      <trkpt lat="41.53814" lon="20.59023">
        <ele>625.323252</ele>
        <time>2022-04-26T09:56:54.514Z</time>
      </trkpt>
      <trkpt lat="41.53806" lon="20.59015">
        <ele>625.219125</ele>
        <time>2022-04-26T09:56:56.469Z</time>
      </trkpt>
      <trkpt lat="41.53797" lon="20.59007">
        <ele>625.116684</ele>
        <time>2022-04-26T09:56:58.504Z</time>
      </trkpt>
      <trkpt lat="41.53789" lon="20.58999">
        <ele>625.011411</ele>
        <time>2022-04-26T09:57:00.475Z</time>
      </trkpt>
      <trkpt lat="41.53781" lon="20.58991">
        <ele>624.914388</ele>
        <time>2022-04-26T09:57:02.485Z</time>
      </trkpt>
      <trkpt lat="41.53771" lon="20.5898">
        <ele>624.78682</ele>
        <time>2022-04-26T09:57:05.493Z</time>
      </trkpt>
      <trkpt lat="41.5376" lon="20.5897">
        <ele>624.652714</ele>
        <time>2022-04-26T09:57:08.477Z</time>
      </trkpt>
      <trkpt lat="41.53753" lon="20.58963">
        <ele>624.563201</ele>
        <time>2022-04-26T09:57:10.478Z</time>
      </trkpt>
      <trkpt lat="41.53743" lon="20.58954">
        <ele>624.631052</ele>
        <time>2022-04-26T09:57:13.519Z</time>
      </trkpt>
      <trkpt lat="41.53734" lon="20.58946">
        <ele>624.9372</ele>
        <time>2022-04-26T09:57:16.481Z</time>
      </trkpt>
      <trkpt lat="41.53726" lon="20.58938">
        <ele>625.225829</ele>
        <time>2022-04-26T09:57:19.535Z</time>
      </trkpt>
      <trkpt lat="41.53718" lon="20.5893">
        <ele>625.515471</ele>
        <time>2022-04-26T09:57:22.463Z</time>
      </trkpt>
      <trkpt lat="41.53711" lon="20.58919">
        <ele>625.827846</ele>
        <time>2022-04-26T09:57:25.483Z</time>
      </trkpt>
      <trkpt lat="41.53703" lon="20.58905">
        <ele>626.198481</ele>
        <time>2022-04-26T09:57:28.463Z</time>
      </trkpt>
      <trkpt lat="41.53696" lon="20.58891">
        <ele>626.577707</ele>
        <time>2022-04-26T09:57:31.480Z</time>
      </trkpt>
      <trkpt lat="41.53689" lon="20.58876">
        <ele>626.951188</ele>
        <time>2022-04-26T09:57:34.491Z</time>
      </trkpt>
      <trkpt lat="41.53684" lon="20.58861">
        <ele>627.306977</ele>
        <time>2022-04-26T09:57:37.479Z</time>
      </trkpt>
      <trkpt lat="41.5368" lon="20.5885">
        <ele>627.566535</ele>
        <time>2022-04-26T09:57:39.482Z</time>
      </trkpt>
      <trkpt lat="41.53675" lon="20.58834">
        <ele>627.938229</ele>
        <time>2022-04-26T09:57:42.474Z</time>
      </trkpt>
      <trkpt lat="41.53669" lon="20.5882">
        <ele>628.291064</ele>
        <time>2022-04-26T09:57:45.489Z</time>
      </trkpt>
      <trkpt lat="41.53663" lon="20.58804">
        <ele>628.683293</ele>
        <time>2022-04-26T09:57:48.494Z</time>
      </trkpt>
      <trkpt lat="41.53658" lon="20.58791">
        <ele>628.977429</ele>
        <time>2022-04-26T09:57:50.477Z</time>
      </trkpt>
      <trkpt lat="41.53654" lon="20.58779">
        <ele>629.275476</ele>
        <time>2022-04-26T09:57:52.471Z</time>
      </trkpt>
      <trkpt lat="41.53649" lon="20.58766">
        <ele>629.588748</ele>
        <time>2022-04-26T09:57:54.483Z</time>
      </trkpt>
      <trkpt lat="41.53644" lon="20.58752">
        <ele>629.680275</ele>
        <time>2022-04-26T09:57:56.474Z</time>
      </trkpt>
      <trkpt lat="41.53639" lon="20.58739">
        <ele>629.69991</ele>
        <time>2022-04-26T09:57:58.504Z</time>
      </trkpt>
      <trkpt lat="41.53635" lon="20.58725">
        <ele>629.719114</ele>
        <time>2022-04-26T09:58:00.496Z</time>
      </trkpt>
      <trkpt lat="41.5363" lon="20.58712">
        <ele>629.739257</ele>
        <time>2022-04-26T09:58:02.471Z</time>
      </trkpt>
      <trkpt lat="41.53625" lon="20.58699">
        <ele>629.757961</ele>
        <time>2022-04-26T09:58:04.473Z</time>
      </trkpt>
      <trkpt lat="41.5362" lon="20.58687">
        <ele>629.776301</ele>
        <time>2022-04-26T09:58:06.477Z</time>
      </trkpt>
      <trkpt lat="41.53616" lon="20.58676">
        <ele>629.792218</ele>
        <time>2022-04-26T09:58:08.472Z</time>
      </trkpt>
      <trkpt lat="41.53612" lon="20.58665">
        <ele>629.808111</ele>
        <time>2022-04-26T09:58:10.484Z</time>
      </trkpt>
      <trkpt lat="41.53608" lon="20.58652">
        <ele>629.826647</ele>
        <time>2022-04-26T09:58:12.489Z</time>
      </trkpt>
      <trkpt lat="41.53603" lon="20.5864">
        <ele>629.844477</ele>
        <time>2022-04-26T09:58:14.479Z</time>
      </trkpt>
      <trkpt lat="41.53598" lon="20.58628">
        <ele>629.862492</ele>
        <time>2022-04-26T09:58:16.490Z</time>
      </trkpt>
      <trkpt lat="41.53593" lon="20.58615">
        <ele>629.881311</ele>
        <time>2022-04-26T09:58:18.469Z</time>
      </trkpt>
      <trkpt lat="41.53588" lon="20.58602">
        <ele>629.900084</ele>
        <time>2022-04-26T09:58:20.484Z</time>
      </trkpt>
      <trkpt lat="41.53583" lon="20.5859">
        <ele>629.919417</ele>
        <time>2022-04-26T09:58:22.480Z</time>
      </trkpt>
      <trkpt lat="41.53577" lon="20.58577">
        <ele>629.939098</ele>
        <time>2022-04-26T09:58:24.460Z</time>
      </trkpt>
      <trkpt lat="41.53571" lon="20.58563">
        <ele>629.959725</ele>
        <time>2022-04-26T09:58:26.487Z</time>
      </trkpt>
      <trkpt lat="41.53566" lon="20.5855">
        <ele>629.979603</ele>
        <time>2022-04-26T09:58:28.476Z</time>
      </trkpt>
      <trkpt lat="41.53561" lon="20.58536">
        <ele>629.670079</ele>
        <time>2022-04-26T09:58:30.483Z</time>
      </trkpt>
      <trkpt lat="41.53556" lon="20.58523">
        <ele>629.358637</ele>
        <time>2022-04-26T09:58:32.471Z</time>
      </trkpt>
      <trkpt lat="41.53551" lon="20.5851">
        <ele>629.042625</ele>
        <time>2022-04-26T09:58:34.482Z</time>
      </trkpt>
      <trkpt lat="41.53546" lon="20.58497">
        <ele>628.729245</ele>
        <time>2022-04-26T09:58:36.476Z</time>
      </trkpt>
      <trkpt lat="41.53541" lon="20.58484">
        <ele>628.408722</ele>
        <time>2022-04-26T09:58:38.541Z</time>
      </trkpt>
      <trkpt lat="41.53535" lon="20.5847">
        <ele>628.057609</ele>
        <time>2022-04-26T09:58:40.473Z</time>
      </trkpt>
      <trkpt lat="41.53529" lon="20.58457">
        <ele>627.727219</ele>
        <time>2022-04-26T09:58:42.465Z</time>
      </trkpt>
      <trkpt lat="41.53524" lon="20.58444">
        <ele>627.414265</ele>
        <time>2022-04-26T09:58:44.470Z</time>
      </trkpt>
      <trkpt lat="41.53519" lon="20.58431">
        <ele>627.087156</ele>
        <time>2022-04-26T09:58:46.479Z</time>
      </trkpt>
      <trkpt lat="41.53513" lon="20.58417">
        <ele>626.740676</ele>
        <time>2022-04-26T09:58:48.482Z</time>
      </trkpt>
      <trkpt lat="41.53507" lon="20.58403">
        <ele>626.395701</ele>
        <time>2022-04-26T09:58:50.478Z</time>
      </trkpt>
      <trkpt lat="41.53501" lon="20.58387">
        <ele>626.020934</ele>
        <time>2022-04-26T09:58:52.479Z</time>
      </trkpt>
      <trkpt lat="41.53494" lon="20.58372">
        <ele>625.622152</ele>
        <time>2022-04-26T09:58:54.476Z</time>
      </trkpt>
      <trkpt lat="41.53487" lon="20.58357">
        <ele>625.240797</ele>
        <time>2022-04-26T09:58:56.481Z</time>
      </trkpt>
      <trkpt lat="41.5348" lon="20.58342">
        <ele>624.863162</ele>
        <time>2022-04-26T09:58:58.487Z</time>
      </trkpt>
      <trkpt lat="41.53474" lon="20.58327">
        <ele>624.619598</ele>
        <time>2022-04-26T09:59:00.525Z</time>
      </trkpt>
      <trkpt lat="41.53467" lon="20.58313">
        <ele>624.408308</ele>
        <time>2022-04-26T09:59:02.468Z</time>
      </trkpt>
      <trkpt lat="41.53462" lon="20.58299">
        <ele>624.203918</ele>
        <time>2022-04-26T09:59:04.470Z</time>
      </trkpt>
      <trkpt lat="41.53456" lon="20.58285">
        <ele>624.003862</ele>
        <time>2022-04-26T09:59:06.489Z</time>
      </trkpt>
      <trkpt lat="41.53451" lon="20.58271">
        <ele>623.813876</ele>
        <time>2022-04-26T09:59:08.478Z</time>
      </trkpt>
      <trkpt lat="41.53447" lon="20.58258">
        <ele>623.636548</ele>
        <time>2022-04-26T09:59:10.500Z</time>
      </trkpt>
      <trkpt lat="41.53444" lon="20.58245">
        <ele>623.464719</ele>
        <time>2022-04-26T09:59:12.475Z</time>
      </trkpt>
      <trkpt lat="41.5344" lon="20.58233">
        <ele>623.2982</ele>
        <time>2022-04-26T09:59:14.470Z</time>
      </trkpt>
      <trkpt lat="41.53437" lon="20.58222">
        <ele>623.14281</ele>
        <time>2022-04-26T09:59:16.469Z</time>
      </trkpt>
      <trkpt lat="41.53432" lon="20.58205">
        <ele>622.921793</ele>
        <time>2022-04-26T09:59:19.485Z</time>
      </trkpt>
      <trkpt lat="41.53429" lon="20.5819">
        <ele>622.72154</ele>
        <time>2022-04-26T09:59:22.460Z</time>
      </trkpt>
      <trkpt lat="41.53426" lon="20.58175">
        <ele>622.523864</ele>
        <time>2022-04-26T09:59:25.500Z</time>
      </trkpt>
      <trkpt lat="41.53422" lon="20.58159">
        <ele>622.304545</ele>
        <time>2022-04-26T09:59:28.503Z</time>
      </trkpt>
      <trkpt lat="41.53417" lon="20.58144">
        <ele>622.10072</ele>
        <time>2022-04-26T09:59:31.467Z</time>
      </trkpt>
      <trkpt lat="41.53411" lon="20.5813">
        <ele>621.899237</ele>
        <time>2022-04-26T09:59:34.490Z</time>
      </trkpt>
      <trkpt lat="41.53404" lon="20.58118">
        <ele>621.77884</ele>
        <time>2022-04-26T09:59:37.477Z</time>
      </trkpt>
      <trkpt lat="41.53394" lon="20.58107">
        <ele>621.920853</ele>
        <time>2022-04-26T09:59:40.473Z</time>
      </trkpt>
      <trkpt lat="41.53383" lon="20.58099">
        <ele>622.059585</ele>
        <time>2022-04-26T09:59:43.485Z</time>
      </trkpt>
      <trkpt lat="41.53371" lon="20.58092">
        <ele>622.203939</ele>
        <time>2022-04-26T09:59:46.481Z</time>
      </trkpt>
      <trkpt lat="41.53359" lon="20.58087">
        <ele>622.346837</ele>
        <time>2022-04-26T09:59:49.494Z</time>
      </trkpt>
      <trkpt lat="41.53347" lon="20.58083">
        <ele>622.488684</ele>
        <time>2022-04-26T09:59:52.473Z</time>
      </trkpt>
      <trkpt lat="41.53335" lon="20.58081">
        <ele>622.620646</ele>
        <time>2022-04-26T09:59:55.490Z</time>
      </trkpt>
      <trkpt lat="41.53322" lon="20.5808">
        <ele>622.759381</ele>
        <time>2022-04-26T09:59:58.516Z</time>
      </trkpt>
      <trkpt lat="41.5331" lon="20.5808">
        <ele>622.903582</ele>
        <time>2022-04-26T10:00:01.455Z</time>
      </trkpt>
      <trkpt lat="41.53297" lon="20.5808">
        <ele>623.047939</ele>
        <time>2022-04-26T10:00:04.489Z</time>
      </trkpt>
      <trkpt lat="41.53284" lon="20.58078">
        <ele>623.194719</ele>
        <time>2022-04-26T10:00:07.493Z</time>
      </trkpt>
      <trkpt lat="41.53271" lon="20.58076">
        <ele>623.333331</ele>
        <time>2022-04-26T10:00:10.474Z</time>
      </trkpt>
      <trkpt lat="41.53259" lon="20.58075">
        <ele>623.47251</ele>
        <time>2022-04-26T10:00:13.477Z</time>
      </trkpt>
      <trkpt lat="41.53246" lon="20.58072">
        <ele>623.620433</ele>
        <time>2022-04-26T10:00:16.490Z</time>
      </trkpt>
      <trkpt lat="41.53233" lon="20.58068">
        <ele>623.720531</ele>
        <time>2022-04-26T10:00:19.491Z</time>
      </trkpt>
      <trkpt lat="41.53221" lon="20.58062">
        <ele>623.256361</ele>
        <time>2022-04-26T10:00:22.494Z</time>
      </trkpt>
      <trkpt lat="41.53211" lon="20.58055">
        <ele>622.83858</ele>
        <time>2022-04-26T10:00:25.507Z</time>
      </trkpt>
      <trkpt lat="41.53201" lon="20.58049">
        <ele>622.442851</ele>
        <time>2022-04-26T10:00:28.482Z</time>
      </trkpt>
      <trkpt lat="41.53192" lon="20.58044">
        <ele>622.074767</ele>
        <time>2022-04-26T10:00:31.481Z</time>
      </trkpt>
      <trkpt lat="41.53182" lon="20.5804">
        <ele>621.706556</ele>
        <time>2022-04-26T10:00:34.485Z</time>
      </trkpt>
      <trkpt lat="41.53172" lon="20.58038">
        <ele>621.333985</ele>
        <time>2022-04-26T10:00:37.469Z</time>
      </trkpt>
      <trkpt lat="41.53162" lon="20.58036">
        <ele>620.952925</ele>
        <time>2022-04-26T10:00:40.523Z</time>
      </trkpt>
      <trkpt lat="41.53151" lon="20.58034">
        <ele>620.547311</ele>
        <time>2022-04-26T10:00:43.478Z</time>
      </trkpt>
      <trkpt lat="41.5314" lon="20.58032">
        <ele>620.14405</ele>
        <time>2022-04-26T10:00:46.471Z</time>
      </trkpt>
      <trkpt lat="41.53131" lon="20.5803">
        <ele>619.781328</ele>
        <time>2022-04-26T10:00:49.480Z</time>
      </trkpt>
      <trkpt lat="41.53121" lon="20.58026">
        <ele>619.42447</ele>
        <time>2022-04-26T10:00:52.481Z</time>
      </trkpt>
      <trkpt lat="41.53111" lon="20.58021">
        <ele>619.036274</ele>
        <time>2022-04-26T10:00:55.480Z</time>
      </trkpt>
      <trkpt lat="41.53101" lon="20.58014">
        <ele>618.616532</ele>
        <time>2022-04-26T10:00:58.468Z</time>
      </trkpt>
      <trkpt lat="41.53091" lon="20.58007">
        <ele>618.206993</ele>
        <time>2022-04-26T10:01:01.478Z</time>
      </trkpt>
      <trkpt lat="41.53082" lon="20.58001">
        <ele>617.837674</ele>
        <time>2022-04-26T10:01:04.492Z</time>
      </trkpt>
      <trkpt lat="41.53073" lon="20.57995">
        <ele>617.4646</ele>
        <time>2022-04-26T10:01:07.471Z</time>
      </trkpt>
      <trkpt lat="41.53063" lon="20.57985">
        <ele>617.204325</ele>
        <time>2022-04-26T10:01:10.473Z</time>
      </trkpt>
      <trkpt lat="41.53053" lon="20.5798">
        <ele>617.355094</ele>
        <time>2022-04-26T10:01:13.482Z</time>
      </trkpt>
      <trkpt lat="41.53043" lon="20.57978">
        <ele>617.48659</ele>
        <time>2022-04-26T10:01:16.461Z</time>
      </trkpt>
      <trkpt lat="41.53034" lon="20.57976">
        <ele>617.612828</ele>
        <time>2022-04-26T10:01:19.514Z</time>
      </trkpt>
      <trkpt lat="41.53024" lon="20.57976">
        <ele>617.75296</ele>
        <time>2022-04-26T10:01:22.484Z</time>
      </trkpt>
      <trkpt lat="41.53013" lon="20.57975">
        <ele>617.89998</ele>
        <time>2022-04-26T10:01:25.477Z</time>
      </trkpt>
      <trkpt lat="41.53002" lon="20.57973">
        <ele>618.058709</ele>
        <time>2022-04-26T10:01:28.475Z</time>
      </trkpt>
      <trkpt lat="41.52991" lon="20.57971">
        <ele>618.202869</ele>
        <time>2022-04-26T10:01:31.486Z</time>
      </trkpt>
      <trkpt lat="41.52981" lon="20.5797">
        <ele>618.343932</ele>
        <time>2022-04-26T10:01:34.490Z</time>
      </trkpt>
      <trkpt lat="41.5297" lon="20.57966">
        <ele>618.492749</ele>
        <time>2022-04-26T10:01:37.459Z</time>
      </trkpt>
      <trkpt lat="41.5296" lon="20.57963">
        <ele>618.63304</ele>
        <time>2022-04-26T10:01:40.478Z</time>
      </trkpt>
      <trkpt lat="41.52952" lon="20.57957">
        <ele>618.762639</ele>
        <time>2022-04-26T10:01:43.485Z</time>
      </trkpt>
      <trkpt lat="41.52942" lon="20.5795">
        <ele>618.909859</ele>
        <time>2022-04-26T10:01:46.521Z</time>
      </trkpt>
      <trkpt lat="41.52932" lon="20.57943">
        <ele>619.06037</ele>
        <time>2022-04-26T10:01:49.483Z</time>
      </trkpt>
      <trkpt lat="41.52923" lon="20.57934">
        <ele>619.211883</ele>
        <time>2022-04-26T10:01:52.478Z</time>
      </trkpt>
      <trkpt lat="41.52916" lon="20.57925">
        <ele>619.344856</ele>
        <time>2022-04-26T10:01:55.488Z</time>
      </trkpt>
      <trkpt lat="41.52908" lon="20.57915">
        <ele>619.500934</ele>
        <time>2022-04-26T10:01:58.484Z</time>
      </trkpt>
      <trkpt lat="41.529" lon="20.57903">
        <ele>619.671525</ele>
        <time>2022-04-26T10:02:01.482Z</time>
      </trkpt>
      <trkpt lat="41.52894" lon="20.5789">
        <ele>619.834853</ele>
        <time>2022-04-26T10:02:04.514Z</time>
      </trkpt>
      <trkpt lat="41.52887" lon="20.57877">
        <ele>620.014498</ele>
        <time>2022-04-26T10:02:07.483Z</time>
      </trkpt>
      <trkpt lat="41.5288" lon="20.57864">
        <ele>620.192485</ele>
        <time>2022-04-26T10:02:10.477Z</time>
      </trkpt>
      <trkpt lat="41.52873" lon="20.57851">
        <ele>620.357323</ele>
        <time>2022-04-26T10:02:13.483Z</time>
      </trkpt>
      <trkpt lat="41.52867" lon="20.57839">
        <ele>620.525635</ele>
        <time>2022-04-26T10:02:16.502Z</time>
      </trkpt>
      <trkpt lat="41.5286" lon="20.57827">
        <ele>620.686779</ele>
        <time>2022-04-26T10:02:19.539Z</time>
      </trkpt>
      <trkpt lat="41.52854" lon="20.57815">
        <ele>620.846167</ele>
        <time>2022-04-26T10:02:22.503Z</time>
      </trkpt>
      <trkpt lat="41.52847" lon="20.57804">
        <ele>621.005555</ele>
        <time>2022-04-26T10:02:25.479Z</time>
      </trkpt>
      <trkpt lat="41.52841" lon="20.57792">
        <ele>621.164391</ele>
        <time>2022-04-26T10:02:28.476Z</time>
      </trkpt>
      <trkpt lat="41.52835" lon="20.57779">
        <ele>621.32772</ele>
        <time>2022-04-26T10:02:31.491Z</time>
      </trkpt>
      <trkpt lat="41.5283" lon="20.57767">
        <ele>621.489845</ele>
        <time>2022-04-26T10:02:34.470Z</time>
      </trkpt>
      <trkpt lat="41.52823" lon="20.57755">
        <ele>621.65454</ele>
        <time>2022-04-26T10:02:37.474Z</time>
      </trkpt>
      <trkpt lat="41.52817" lon="20.57744">
        <ele>621.796584</ele>
        <time>2022-04-26T10:02:40.486Z</time>
      </trkpt>
      <trkpt lat="41.52813" lon="20.57733">
        <ele>621.938325</ele>
        <time>2022-04-26T10:02:43.462Z</time>
      </trkpt>
      <trkpt lat="41.52807" lon="20.57722">
        <ele>622.08314</ele>
        <time>2022-04-26T10:02:46.489Z</time>
      </trkpt>
      <trkpt lat="41.52802" lon="20.57712">
        <ele>622.215237</ele>
        <time>2022-04-26T10:02:49.483Z</time>
      </trkpt>
      <trkpt lat="41.52796" lon="20.57703">
        <ele>622.902159</ele>
        <time>2022-04-26T10:02:52.502Z</time>
      </trkpt>
      <trkpt lat="41.52789" lon="20.57691">
        <ele>623.856231</ele>
        <time>2022-04-26T10:02:56.481Z</time>
      </trkpt>
      <trkpt lat="41.52782" lon="20.57682">
        <ele>624.621589</ele>
        <time>2022-04-26T10:02:59.492Z</time>
      </trkpt>
      <trkpt lat="41.52775" lon="20.5767">
        <ele>625.62426</ele>
        <time>2022-04-26T10:03:03.474Z</time>
      </trkpt>
      <trkpt lat="41.52768" lon="20.5766">
        <ele>626.458445</ele>
        <time>2022-04-26T10:03:06.478Z</time>
      </trkpt>
      <trkpt lat="41.52763" lon="20.5765">
        <ele>627.225545</ele>
        <time>2022-04-26T10:03:09.478Z</time>
      </trkpt>
      <trkpt lat="41.52755" lon="20.57639">
        <ele>628.161001</ele>
        <time>2022-04-26T10:03:13.526Z</time>
      </trkpt>
      <trkpt lat="41.52749" lon="20.57629">
        <ele>629.017335</ele>
        <time>2022-04-26T10:03:17.468Z</time>
      </trkpt>
      <trkpt lat="41.52741" lon="20.5762">
        <ele>629.858509</ele>
        <time>2022-04-26T10:03:21.472Z</time>
      </trkpt>
      <trkpt lat="41.52731" lon="20.57614">
        <ele>630.781948</ele>
        <time>2022-04-26T10:03:25.528Z</time>
      </trkpt>
      <trkpt lat="41.52721" lon="20.57609">
        <ele>631.665344</ele>
        <time>2022-04-26T10:03:29.477Z</time>
      </trkpt>
      <trkpt lat="41.52711" lon="20.57606">
        <ele>632.527048</ele>
        <time>2022-04-26T10:03:33.481Z</time>
      </trkpt>
      <trkpt lat="41.527" lon="20.57605">
        <ele>633.448575</ele>
        <time>2022-04-26T10:03:37.494Z</time>
      </trkpt>
      <trkpt lat="41.52689" lon="20.57605">
        <ele>634.400468</ele>
        <time>2022-04-26T10:03:41.469Z</time>
      </trkpt>
      <trkpt lat="41.5268" lon="20.57607">
        <ele>635.181562</ele>
        <time>2022-04-26T10:03:44.480Z</time>
      </trkpt>
      <trkpt lat="41.5267" lon="20.57609">
        <ele>636.007122</ele>
        <time>2022-04-26T10:03:47.479Z</time>
      </trkpt>
      <trkpt lat="41.52659" lon="20.57612">
        <ele>636.985555</ele>
        <time>2022-04-26T10:03:51.488Z</time>
      </trkpt>
      <trkpt lat="41.5265" lon="20.57614">
        <ele>637.452338</ele>
        <time>2022-04-26T10:03:54.483Z</time>
      </trkpt>
      <trkpt lat="41.5264" lon="20.57616">
        <ele>637.591014</ele>
        <time>2022-04-26T10:03:57.481Z</time>
      </trkpt>
      <trkpt lat="41.52631" lon="20.57617">
        <ele>637.732557</ele>
        <time>2022-04-26T10:04:00.473Z</time>
      </trkpt>
      <trkpt lat="41.5262" lon="20.57616">
        <ele>637.897737</ele>
        <time>2022-04-26T10:04:04.516Z</time>
      </trkpt>
      <trkpt lat="41.52609" lon="20.57613">
        <ele>638.061143</ele>
        <time>2022-04-26T10:04:08.488Z</time>
      </trkpt>
      <trkpt lat="41.526" lon="20.57611">
        <ele>638.197354</ele>
        <time>2022-04-26T10:04:11.481Z</time>
      </trkpt>
      <trkpt lat="41.52588" lon="20.57606">
        <ele>638.374217</ele>
        <time>2022-04-26T10:04:15.529Z</time>
      </trkpt>
      <trkpt lat="41.52578" lon="20.57601">
        <ele>638.543064</ele>
        <time>2022-04-26T10:04:19.473Z</time>
      </trkpt>
      <trkpt lat="41.52569" lon="20.57595">
        <ele>638.688494</ele>
        <time>2022-04-26T10:04:22.471Z</time>
      </trkpt>
      <trkpt lat="41.5256" lon="20.5759">
        <ele>638.821376</ele>
        <time>2022-04-26T10:04:25.485Z</time>
      </trkpt>
      <trkpt lat="41.52551" lon="20.57584">
        <ele>638.981338</ele>
        <time>2022-04-26T10:04:29.475Z</time>
      </trkpt>
      <trkpt lat="41.52541" lon="20.57578">
        <ele>639.132734</ele>
        <time>2022-04-26T10:04:33.480Z</time>
      </trkpt>
      <trkpt lat="41.52532" lon="20.57572">
        <ele>639.283643</ele>
        <time>2022-04-26T10:04:37.524Z</time>
      </trkpt>
      <trkpt lat="41.52523" lon="20.57567">
        <ele>639.431829</ele>
        <time>2022-04-26T10:04:41.479Z</time>
      </trkpt>
      <trkpt lat="41.52512" lon="20.57561">
        <ele>639.598813</ele>
        <time>2022-04-26T10:04:45.488Z</time>
      </trkpt>
      <trkpt lat="41.52502" lon="20.57555">
        <ele>639.763575</ele>
        <time>2022-04-26T10:04:49.497Z</time>
      </trkpt>
      <trkpt lat="41.52492" lon="20.57549">
        <ele>639.926548</ele>
        <time>2022-04-26T10:04:53.516Z</time>
      </trkpt>
      <trkpt lat="41.52483" lon="20.57543">
        <ele>640.024016</ele>
        <time>2022-04-26T10:04:57.468Z</time>
      </trkpt>
      <trkpt lat="41.52475" lon="20.57536">
        <ele>639.972041</ele>
        <time>2022-04-26T10:05:01.479Z</time>
      </trkpt>
      <trkpt lat="41.52467" lon="20.57529">
        <ele>639.918041</ele>
        <time>2022-04-26T10:05:05.479Z</time>
      </trkpt>
      <trkpt lat="41.52459" lon="20.57521">
        <ele>639.866437</ele>
        <time>2022-04-26T10:05:09.488Z</time>
      </trkpt>
      <trkpt lat="41.52452" lon="20.57512">
        <ele>639.809261</ele>
        <time>2022-04-26T10:05:13.481Z</time>
      </trkpt>
      <trkpt lat="41.52443" lon="20.57503">
        <ele>639.752637</ele>
        <time>2022-04-26T10:05:17.474Z</time>
      </trkpt>
      <trkpt lat="41.52435" lon="20.57493">
        <ele>639.690552</ele>
        <time>2022-04-26T10:05:21.481Z</time>
      </trkpt>
      <trkpt lat="41.52428" lon="20.57482">
        <ele>639.630719</ele>
        <time>2022-04-26T10:05:25.498Z</time>
      </trkpt>
      <trkpt lat="41.52423" lon="20.57469">
        <ele>639.571224</ele>
        <time>2022-04-26T10:05:29.488Z</time>
      </trkpt>
      <trkpt lat="41.52417" lon="20.57456">
        <ele>639.508988</ele>
        <time>2022-04-26T10:05:33.480Z</time>
      </trkpt>
      <trkpt lat="41.52411" lon="20.57441">
        <ele>639.442844</ele>
        <time>2022-04-26T10:05:37.490Z</time>
      </trkpt>
      <trkpt lat="41.52407" lon="20.57427">
        <ele>639.379158</ele>
        <time>2022-04-26T10:05:41.530Z</time>
      </trkpt>
      <trkpt lat="41.52403" lon="20.57412">
        <ele>639.316428</ele>
        <time>2022-04-26T10:05:45.492Z</time>
      </trkpt>
      <trkpt lat="41.52399" lon="20.57398">
        <ele>639.251519</ele>
        <time>2022-04-26T10:05:49.470Z</time>
      </trkpt>
      <trkpt lat="41.52394" lon="20.57387">
        <ele>639.198185</ele>
        <time>2022-04-26T10:05:52.500Z</time>
      </trkpt>
      <trkpt lat="41.52388" lon="20.57373">
        <ele>639.134887</ele>
        <time>2022-04-26T10:05:56.479Z</time>
      </trkpt>
      <trkpt lat="41.52381" lon="20.57363">
        <ele>639.076939</ele>
        <time>2022-04-26T10:06:00.489Z</time>
      </trkpt>
      <trkpt lat="41.52373" lon="20.57352">
        <ele>638.841409</ele>
        <time>2022-04-26T10:06:04.472Z</time>
      </trkpt>
      <trkpt lat="41.52366" lon="20.57341">
        <ele>638.510276</ele>
        <time>2022-04-26T10:06:08.474Z</time>
      </trkpt>
      <trkpt lat="41.52359" lon="20.57331">
        <ele>638.215907</ele>
        <time>2022-04-26T10:06:11.527Z</time>
      </trkpt>
      <trkpt lat="41.52351" lon="20.57323">
        <ele>637.924771</ele>
        <time>2022-04-26T10:06:14.519Z</time>
      </trkpt>
      <trkpt lat="41.52343" lon="20.57314">
        <ele>637.609818</ele>
        <time>2022-04-26T10:06:17.482Z</time>
      </trkpt>
      <trkpt lat="41.52333" lon="20.57304">
        <ele>637.23539</ele>
        <time>2022-04-26T10:06:20.529Z</time>
      </trkpt>
      <trkpt lat="41.52323" lon="20.57296">
        <ele>636.893781</ele>
        <time>2022-04-26T10:06:23.472Z</time>
      </trkpt>
      <trkpt lat="41.52314" lon="20.57288">
        <ele>636.55839</ele>
        <time>2022-04-26T10:06:27.485Z</time>
      </trkpt>
      <trkpt lat="41.52304" lon="20.5728">
        <ele>636.22374</ele>
        <time>2022-04-26T10:06:31.498Z</time>
      </trkpt>
      <trkpt lat="41.52295" lon="20.57273">
        <ele>635.916806</ele>
        <time>2022-04-26T10:06:34.482Z</time>
      </trkpt>
      <trkpt lat="41.52286" lon="20.57264">
        <ele>635.567866</ele>
        <time>2022-04-26T10:06:37.522Z</time>
      </trkpt>
      <trkpt lat="41.52276" lon="20.57256">
        <ele>635.237373</ele>
        <time>2022-04-26T10:06:40.491Z</time>
      </trkpt>
      <trkpt lat="41.52267" lon="20.57248">
        <ele>634.911786</ele>
        <time>2022-04-26T10:06:43.476Z</time>
      </trkpt>
      <trkpt lat="41.52259" lon="20.57239">
        <ele>634.597135</ele>
        <time>2022-04-26T10:06:46.485Z</time>
      </trkpt>
      <trkpt lat="41.5225" lon="20.57231">
        <ele>634.272653</ele>
        <time>2022-04-26T10:06:49.524Z</time>
      </trkpt>
      <trkpt lat="41.52242" lon="20.5722">
        <ele>633.926271</ele>
        <time>2022-04-26T10:06:52.493Z</time>
      </trkpt>
      <trkpt lat="41.52233" lon="20.57207">
        <ele>633.676448</ele>
        <time>2022-04-26T10:06:55.495Z</time>
      </trkpt>
      <trkpt lat="41.52227" lon="20.57198">
        <ele>633.630024</ele>
        <time>2022-04-26T10:06:57.477Z</time>
      </trkpt>
      <trkpt lat="41.52218" lon="20.57185">
        <ele>633.56357</ele>
        <time>2022-04-26T10:07:00.507Z</time>
      </trkpt>
      <trkpt lat="41.52212" lon="20.57175">
        <ele>633.511199</ele>
        <time>2022-04-26T10:07:03.503Z</time>
      </trkpt>
      <trkpt lat="41.52206" lon="20.57165">
        <ele>633.464057</ele>
        <time>2022-04-26T10:07:06.470Z</time>
      </trkpt>
      <trkpt lat="41.522" lon="20.57154">
        <ele>633.411403</ele>
        <time>2022-04-26T10:07:09.476Z</time>
      </trkpt>
      <trkpt lat="41.52194" lon="20.57141">
        <ele>633.353236</ele>
        <time>2022-04-26T10:07:12.468Z</time>
      </trkpt>
      <trkpt lat="41.52187" lon="20.57128">
        <ele>633.292906</ele>
        <time>2022-04-26T10:07:15.492Z</time>
      </trkpt>
      <trkpt lat="41.52179" lon="20.57114">
        <ele>633.227087</ele>
        <time>2022-04-26T10:07:18.504Z</time>
      </trkpt>
      <trkpt lat="41.52175" lon="20.57103">
        <ele>633.179058</ele>
        <time>2022-04-26T10:07:20.488Z</time>
      </trkpt>
      <trkpt lat="41.52172" lon="20.57091">
        <ele>633.12834</ele>
        <time>2022-04-26T10:07:22.497Z</time>
      </trkpt>
      <trkpt lat="41.5217" lon="20.57078">
        <ele>633.077874</ele>
        <time>2022-04-26T10:07:24.483Z</time>
      </trkpt>
      <trkpt lat="41.52169" lon="20.57065">
        <ele>633.029137</ele>
        <time>2022-04-26T10:07:26.478Z</time>
      </trkpt>
      <trkpt lat="41.52169" lon="20.5705">
        <ele>632.971003</ele>
        <time>2022-04-26T10:07:29.478Z</time>
      </trkpt>
      <trkpt lat="41.52169" lon="20.57036">
        <ele>632.918613</ele>
        <time>2022-04-26T10:07:32.483Z</time>
      </trkpt>
      <trkpt lat="41.52171" lon="20.57023">
        <ele>632.868988</ele>
        <time>2022-04-26T10:07:35.483Z</time>
      </trkpt>
      <trkpt lat="41.52171" lon="20.57008">
        <ele>632.810719</ele>
        <time>2022-04-26T10:07:39.464Z</time>
      </trkpt>
      <trkpt lat="41.5217" lon="20.56993">
        <ele>632.984485</ele>
        <time>2022-04-26T10:07:43.484Z</time>
      </trkpt>
      <trkpt lat="41.52174" lon="20.56979">
        <ele>633.314804</ele>
        <time>2022-04-26T10:07:46.480Z</time>
      </trkpt>
      <trkpt lat="41.52176" lon="20.56964">
        <ele>633.652691</ele>
        <time>2022-04-26T10:07:49.478Z</time>
      </trkpt>
      <trkpt lat="41.52177" lon="20.5695">
        <ele>633.975068</ele>
        <time>2022-04-26T10:07:52.475Z</time>
      </trkpt>
      <trkpt lat="41.52179" lon="20.56937">
        <ele>634.273706</ele>
        <time>2022-04-26T10:07:55.493Z</time>
      </trkpt>
      <trkpt lat="41.5218" lon="20.56923">
        <ele>634.577482</ele>
        <time>2022-04-26T10:07:58.494Z</time>
      </trkpt>
      <trkpt lat="41.52181" lon="20.56909">
        <ele>634.903111</ele>
        <time>2022-04-26T10:08:01.508Z</time>
      </trkpt>
      <trkpt lat="41.52182" lon="20.56895">
        <ele>635.230336</ele>
        <time>2022-04-26T10:08:04.491Z</time>
      </trkpt>
      <trkpt lat="41.52184" lon="20.56879">
        <ele>635.593173</ele>
        <time>2022-04-26T10:08:07.500Z</time>
      </trkpt>
      <trkpt lat="41.52185" lon="20.56863">
        <ele>635.952738</ele>
        <time>2022-04-26T10:08:10.479Z</time>
      </trkpt>
      <trkpt lat="41.52186" lon="20.56848">
        <ele>636.293761</ele>
        <time>2022-04-26T10:08:13.496Z</time>
      </trkpt>
      <trkpt lat="41.52188" lon="20.56832">
        <ele>636.643345</ele>
        <time>2022-04-26T10:08:16.490Z</time>
      </trkpt>
      <trkpt lat="41.5219" lon="20.56818">
        <ele>636.971166</ele>
        <time>2022-04-26T10:08:19.492Z</time>
      </trkpt>
      <trkpt lat="41.52191" lon="20.56804">
        <ele>637.291306</ele>
        <time>2022-04-26T10:08:22.469Z</time>
      </trkpt>
      <trkpt lat="41.52193" lon="20.56789">
        <ele>637.628722</ele>
        <time>2022-04-26T10:08:25.497Z</time>
      </trkpt>
      <trkpt lat="41.52195" lon="20.56775">
        <ele>637.945114</ele>
        <time>2022-04-26T10:08:28.473Z</time>
      </trkpt>
      <trkpt lat="41.52197" lon="20.56762">
        <ele>638.280932</ele>
        <time>2022-04-26T10:08:31.482Z</time>
      </trkpt>
      <trkpt lat="41.52198" lon="20.5675">
        <ele>638.761872</ele>
        <time>2022-04-26T10:08:34.466Z</time>
      </trkpt>
      <trkpt lat="41.52199" lon="20.56738">
        <ele>639.22301</ele>
        <time>2022-04-26T10:08:37.520Z</time>
      </trkpt>
      <trkpt lat="41.52201" lon="20.56722">
        <ele>639.80942</ele>
        <time>2022-04-26T10:08:41.483Z</time>
      </trkpt>
      <trkpt lat="41.52202" lon="20.56708">
        <ele>640.361851</ele>
        <time>2022-04-26T10:08:45.503Z</time>
      </trkpt>
      <trkpt lat="41.52203" lon="20.56695">
        <ele>640.857138</ele>
        <time>2022-04-26T10:08:49.476Z</time>
      </trkpt>
      <trkpt lat="41.52204" lon="20.5668">
        <ele>641.416274</ele>
        <time>2022-04-26T10:08:54.466Z</time>
      </trkpt>
      <trkpt lat="41.52204" lon="20.56668">
        <ele>641.872947</ele>
        <time>2022-04-26T10:08:59.476Z</time>
      </trkpt>
      <trkpt lat="41.52202" lon="20.56655">
        <ele>642.37351</ele>
        <time>2022-04-26T10:09:04.473Z</time>
      </trkpt>
      <trkpt lat="41.52198" lon="20.56645">
        <ele>642.836524</ele>
        <time>2022-04-26T10:09:09.473Z</time>
      </trkpt>
      <trkpt lat="41.52192" lon="20.56635">
        <ele>643.296151</ele>
        <time>2022-04-26T10:09:14.509Z</time>
      </trkpt>
      <trkpt lat="41.52186" lon="20.56627">
        <ele>643.762515</ele>
        <time>2022-04-26T10:09:19.488Z</time>
      </trkpt>
      <trkpt lat="41.52176" lon="20.56622">
        <ele>644.30053</ele>
        <time>2022-04-26T10:09:24.478Z</time>
      </trkpt>
      <trkpt lat="41.52167" lon="20.56617">
        <ele>644.806037</ele>
        <time>2022-04-26T10:09:29.482Z</time>
      </trkpt>
      <trkpt lat="41.52158" lon="20.56612">
        <ele>645.297863</ele>
        <time>2022-04-26T10:09:35.499Z</time>
      </trkpt>
      <trkpt lat="41.52148" lon="20.56608">
        <ele>645.781742</ele>
        <time>2022-04-26T10:09:41.494Z</time>
      </trkpt>
      <trkpt lat="41.52139" lon="20.56605">
        <ele>646.254834</ele>
        <time>2022-04-26T10:09:47.468Z</time>
      </trkpt>
      <trkpt lat="41.5213" lon="20.56602">
        <ele>646.761014</ele>
        <time>2022-04-26T10:09:54.481Z</time>
      </trkpt>
      <trkpt lat="41.52122" lon="20.56595">
        <ele>647.255122</ele>
        <time>2022-04-26T10:10:01.487Z</time>
      </trkpt>
      <trkpt lat="41.52115" lon="20.56584">
        <ele>648.252596</ele>
        <time>2022-04-26T10:10:08.478Z</time>
      </trkpt>
      <trkpt lat="41.52112" lon="20.56572">
        <ele>649.21623</ele>
        <time>2022-04-26T10:10:14.484Z</time>
      </trkpt>
      <trkpt lat="41.52107" lon="20.56561">
        <ele>650.235673</ele>
        <time>2022-04-26T10:10:20.477Z</time>
      </trkpt>
      <trkpt lat="41.52103" lon="20.56549">
        <ele>651.199308</ele>
        <time>2022-04-26T10:10:26.482Z</time>
      </trkpt>
      <trkpt lat="41.521" lon="20.56538">
        <ele>652.188923</ele>
        <time>2022-04-26T10:10:33.506Z</time>
      </trkpt>
      <trkpt lat="41.52096" lon="20.56526">
        <ele>653.168381</ele>
        <time>2022-04-26T10:10:39.520Z</time>
      </trkpt>
      <trkpt lat="41.52092" lon="20.56514">
        <ele>654.153664</ele>
        <time>2022-04-26T10:10:46.486Z</time>
      </trkpt>
      <trkpt lat="41.52087" lon="20.56503">
        <ele>655.180951</ele>
        <time>2022-04-26T10:10:53.488Z</time>
      </trkpt>
      <trkpt lat="41.52082" lon="20.56491">
        <ele>656.219772</ele>
        <time>2022-04-26T10:11:00.493Z</time>
      </trkpt>
      <trkpt lat="41.52077" lon="20.5648">
        <ele>657.280194</ele>
        <time>2022-04-26T10:11:07.486Z</time>
      </trkpt>
      <trkpt lat="41.5207" lon="20.56471">
        <ele>658.278166</ele>
        <time>2022-04-26T10:11:14.491Z</time>
      </trkpt>
      <trkpt lat="41.52062" lon="20.56464">
        <ele>659.257787</ele>
        <time>2022-04-26T10:11:20.482Z</time>
      </trkpt>
      <trkpt lat="41.52053" lon="20.56457">
        <ele>660.302369</ele>
        <time>2022-04-26T10:11:27.481Z</time>
      </trkpt>
      <trkpt lat="41.52044" lon="20.5645">
        <ele>661.339957</ele>
        <time>2022-04-26T10:11:34.491Z</time>
      </trkpt>
      <trkpt lat="41.52037" lon="20.56442">
        <ele>662.302681</ele>
        <time>2022-04-26T10:11:41.515Z</time>
      </trkpt>
      <trkpt lat="41.52029" lon="20.56436">
        <ele>663.30514</ele>
        <time>2022-04-26T10:11:48.473Z</time>
      </trkpt>
      <trkpt lat="41.52019" lon="20.56432">
        <ele>664.356309</ele>
        <time>2022-04-26T10:11:56.484Z</time>
      </trkpt>
      <trkpt lat="41.5201" lon="20.56426">
        <ele>665.404044</ele>
        <time>2022-04-26T10:12:03.511Z</time>
      </trkpt>
      <trkpt lat="41.52001" lon="20.5642">
        <ele>666.254196</ele>
        <time>2022-04-26T10:12:09.488Z</time>
      </trkpt>
      <trkpt lat="41.51992" lon="20.56416">
        <ele>666.884712</ele>
        <time>2022-04-26T10:12:14.473Z</time>
      </trkpt>
      <trkpt lat="41.51983" lon="20.56409">
        <ele>667.593191</ele>
        <time>2022-04-26T10:12:20.518Z</time>
      </trkpt>
      <trkpt lat="41.51974" lon="20.56404">
        <ele>668.298704</ele>
        <time>2022-04-26T10:12:26.522Z</time>
      </trkpt>
      <trkpt lat="41.51964" lon="20.56399">
        <ele>669.006212</ele>
        <time>2022-04-26T10:12:32.486Z</time>
      </trkpt>
      <trkpt lat="41.51956" lon="20.56393">
        <ele>669.672536</ele>
        <time>2022-04-26T10:12:39.473Z</time>
      </trkpt>
      <trkpt lat="41.51947" lon="20.56386">
        <ele>670.348887</ele>
        <time>2022-04-26T10:12:47.486Z</time>
      </trkpt>
      <trkpt lat="41.51938" lon="20.56379">
        <ele>671.057472</ele>
        <time>2022-04-26T10:12:55.495Z</time>
      </trkpt>
      <trkpt lat="41.51932" lon="20.5637">
        <ele>671.672773</ele>
        <time>2022-04-26T10:13:02.476Z</time>
      </trkpt>
      <trkpt lat="41.51928" lon="20.5636">
        <ele>672.290144</ele>
        <time>2022-04-26T10:13:09.485Z</time>
      </trkpt>
      <trkpt lat="41.51921" lon="20.5635">
        <ele>672.961879</ele>
        <time>2022-04-26T10:13:17.465Z</time>
      </trkpt>
      <trkpt lat="41.51917" lon="20.56339">
        <ele>673.609525</ele>
        <time>2022-04-26T10:13:25.518Z</time>
      </trkpt>
      <trkpt lat="41.51913" lon="20.56327">
        <ele>674.248678</ele>
        <time>2022-04-26T10:13:33.479Z</time>
      </trkpt>
      <trkpt lat="41.5191" lon="20.56315">
        <ele>674.930988</ele>
        <time>2022-04-26T10:13:41.484Z</time>
      </trkpt>
      <trkpt lat="41.51907" lon="20.56302">
        <ele>675.599599</ele>
        <time>2022-04-26T10:13:49.480Z</time>
      </trkpt>
      <trkpt lat="41.51907" lon="20.56289">
        <ele>676.262042</ele>
        <time>2022-04-26T10:13:56.480Z</time>
      </trkpt>
      <trkpt lat="41.51906" lon="20.56277">
        <ele>676.906514</ele>
        <time>2022-04-26T10:14:04.494Z</time>
      </trkpt>
      <trkpt lat="41.51904" lon="20.56264">
        <ele>677.603844</ele>
        <time>2022-04-26T10:14:12.489Z</time>
      </trkpt>
      <trkpt lat="41.519" lon="20.56251">
        <ele>678.315182</ele>
        <time>2022-04-26T10:14:20.483Z</time>
      </trkpt>
      <trkpt lat="41.51896" lon="20.5624">
        <ele>679.017672</ele>
        <time>2022-04-26T10:14:28.491Z</time>
      </trkpt>
      <trkpt lat="41.51891" lon="20.56228">
        <ele>679.784241</ele>
        <time>2022-04-26T10:14:36.463Z</time>
      </trkpt>
      <trkpt lat="41.51886" lon="20.56218">
        <ele>680.474183</ele>
        <time>2022-04-26T10:14:43.468Z</time>
      </trkpt>
      <trkpt lat="41.5188" lon="20.56206">
        <ele>681.242485</ele>
        <time>2022-04-26T10:14:51.458Z</time>
      </trkpt>
      <trkpt lat="41.51875" lon="20.56196">
        <ele>681.971175</ele>
        <time>2022-04-26T10:14:59.446Z</time>
      </trkpt>
      <trkpt lat="41.5187" lon="20.56185">
        <ele>682.674712</ele>
        <time>2022-04-26T10:15:07.449Z</time>
      </trkpt>
      <trkpt lat="41.51866" lon="20.56173">
        <ele>683.435122</ele>
        <time>2022-04-26T10:15:15.456Z</time>
      </trkpt>
      <trkpt lat="41.51861" lon="20.56161">
        <ele>684.223908</ele>
        <time>2022-04-26T10:15:23.463Z</time>
      </trkpt>
      <trkpt lat="41.51857" lon="20.56148">
        <ele>684.997151</ele>
        <time>2022-04-26T10:15:31.458Z</time>
      </trkpt>
      <trkpt lat="41.51853" lon="20.56137">
        <ele>685.704825</ele>
        <time>2022-04-26T10:15:38.465Z</time>
      </trkpt>
      <trkpt lat="41.51849" lon="20.56126">
        <ele>686.401394</ele>
        <time>2022-04-26T10:15:45.455Z</time>
      </trkpt>
      <trkpt lat="41.51845" lon="20.56114">
        <ele>687.106121</ele>
        <time>2022-04-26T10:15:52.456Z</time>
      </trkpt>
      <trkpt lat="41.51843" lon="20.56102">
        <ele>687.80837</ele>
        <time>2022-04-26T10:16:00.452Z</time>
      </trkpt>
      <trkpt lat="41.5184" lon="20.5609">
        <ele>688.518286</ele>
        <time>2022-04-26T10:16:07.463Z</time>
      </trkpt>
      <trkpt lat="41.51837" lon="20.56078">
        <ele>689.23599</ele>
        <time>2022-04-26T10:16:14.453Z</time>
      </trkpt>
      <trkpt lat="41.51834" lon="20.56066">
        <ele>689.965072</ele>
        <time>2022-04-26T10:16:21.477Z</time>
      </trkpt>
      <trkpt lat="41.51832" lon="20.56054">
        <ele>690.676367</ele>
        <time>2022-04-26T10:16:28.480Z</time>
      </trkpt>
      <trkpt lat="41.51828" lon="20.56042">
        <ele>691.401777</ele>
        <time>2022-04-26T10:16:36.479Z</time>
      </trkpt>
      <trkpt lat="41.51827" lon="20.5603">
        <ele>692.080317</ele>
        <time>2022-04-26T10:16:43.468Z</time>
      </trkpt>
      <trkpt lat="41.51824" lon="20.56017">
        <ele>692.785404</ele>
        <time>2022-04-26T10:16:51.486Z</time>
      </trkpt>
      <trkpt lat="41.51822" lon="20.56005">
        <ele>693.462136</ele>
        <time>2022-04-26T10:16:58.455Z</time>
      </trkpt>
      <trkpt lat="41.51819" lon="20.55993">
        <ele>694.149576</ele>
        <time>2022-04-26T10:17:06.477Z</time>
      </trkpt>
      <trkpt lat="41.51816" lon="20.55981">
        <ele>694.846895</ele>
        <time>2022-04-26T10:17:15.491Z</time>
      </trkpt>
      <trkpt lat="41.51815" lon="20.55968">
        <ele>695.538162</ele>
        <time>2022-04-26T10:17:22.478Z</time>
      </trkpt>
      <trkpt lat="41.51812" lon="20.55957">
        <ele>696.196251</ele>
        <time>2022-04-26T10:17:29.469Z</time>
      </trkpt>
      <trkpt lat="41.51809" lon="20.55945">
        <ele>696.898841</ele>
        <time>2022-04-26T10:17:36.471Z</time>
      </trkpt>
      <trkpt lat="41.51806" lon="20.55933">
        <ele>697.552739</ele>
        <time>2022-04-26T10:17:43.472Z</time>
      </trkpt>
      <trkpt lat="41.51803" lon="20.55921">
        <ele>698.250639</ele>
        <time>2022-04-26T10:17:51.485Z</time>
      </trkpt>
      <trkpt lat="41.518" lon="20.55909">
        <ele>698.953046</ele>
        <time>2022-04-26T10:17:59.470Z</time>
      </trkpt>
      <trkpt lat="41.51798" lon="20.55897">
        <ele>699.614316</ele>
        <time>2022-04-26T10:18:07.470Z</time>
      </trkpt>
      <trkpt lat="41.51794" lon="20.55885">
        <ele>700.325293</ele>
        <time>2022-04-26T10:18:15.482Z</time>
      </trkpt>
      <trkpt lat="41.51789" lon="20.55874">
        <ele>701.023853</ele>
        <time>2022-04-26T10:18:23.461Z</time>
      </trkpt>
      <trkpt lat="41.51785" lon="20.55862">
        <ele>701.736448</ele>
        <time>2022-04-26T10:18:30.496Z</time>
      </trkpt>
      <trkpt lat="41.51781" lon="20.5585">
        <ele>702.461007</ele>
        <time>2022-04-26T10:18:37.447Z</time>
      </trkpt>
      <trkpt lat="41.51777" lon="20.55838">
        <ele>703.166008</ele>
        <time>2022-04-26T10:18:44.454Z</time>
      </trkpt>
      <trkpt lat="41.51773" lon="20.55828">
        <ele>703.820768</ele>
        <time>2022-04-26T10:18:51.454Z</time>
      </trkpt>
      <trkpt lat="41.51767" lon="20.55817">
        <ele>704.53064</ele>
        <time>2022-04-26T10:18:59.465Z</time>
      </trkpt>
      <trkpt lat="41.51762" lon="20.55806">
        <ele>705.315307</ele>
        <time>2022-04-26T10:19:07.454Z</time>
      </trkpt>
      <trkpt lat="41.51758" lon="20.55794">
        <ele>706.247107</ele>
        <time>2022-04-26T10:19:15.460Z</time>
      </trkpt>
      <trkpt lat="41.51755" lon="20.55782">
        <ele>707.108096</ele>
        <time>2022-04-26T10:19:22.448Z</time>
      </trkpt>
      <trkpt lat="41.51753" lon="20.55769">
        <ele>708.09693</ele>
        <time>2022-04-26T10:19:30.450Z</time>
      </trkpt>
      <trkpt lat="41.51753" lon="20.55756">
        <ele>709.011376</ele>
        <time>2022-04-26T10:19:37.464Z</time>
      </trkpt>
      <trkpt lat="41.51749" lon="20.55743">
        <ele>709.941768</ele>
        <time>2022-04-26T10:19:45.460Z</time>
      </trkpt>
      <trkpt lat="41.51745" lon="20.55732">
        <ele>710.859007</ele>
        <time>2022-04-26T10:19:53.448Z</time>
      </trkpt>
      <trkpt lat="41.51741" lon="20.5572">
        <ele>711.777456</ele>
        <time>2022-04-26T10:20:01.453Z</time>
      </trkpt>
      <trkpt lat="41.51734" lon="20.55709">
        <ele>712.711788</ele>
        <time>2022-04-26T10:20:09.453Z</time>
      </trkpt>
      <trkpt lat="41.51728" lon="20.557">
        <ele>713.616524</ele>
        <time>2022-04-26T10:20:16.489Z</time>
      </trkpt>
      <trkpt lat="41.51721" lon="20.55692">
        <ele>714.471397</ele>
        <time>2022-04-26T10:20:23.454Z</time>
      </trkpt>
      <trkpt lat="41.51713" lon="20.55684">
        <ele>715.396799</ele>
        <time>2022-04-26T10:20:31.453Z</time>
      </trkpt>
      <trkpt lat="41.51706" lon="20.55676">
        <ele>716.302999</ele>
        <time>2022-04-26T10:20:39.447Z</time>
      </trkpt>
      <trkpt lat="41.51699" lon="20.55667">
        <ele>717.185404</ele>
        <time>2022-04-26T10:20:47.455Z</time>
      </trkpt>
      <trkpt lat="41.51691" lon="20.55658">
        <ele>718.166214</ele>
        <time>2022-04-26T10:20:55.460Z</time>
      </trkpt>
      <trkpt lat="41.51683" lon="20.5565">
        <ele>719.083627</ele>
        <time>2022-04-26T10:21:02.466Z</time>
      </trkpt>
      <trkpt lat="41.51675" lon="20.55643">
        <ele>719.988285</ele>
        <time>2022-04-26T10:21:09.453Z</time>
      </trkpt>
      <trkpt lat="41.51668" lon="20.55634">
        <ele>720.929043</ele>
        <time>2022-04-26T10:21:16.447Z</time>
      </trkpt>
      <trkpt lat="41.51661" lon="20.55625">
        <ele>721.799899</ele>
        <time>2022-04-26T10:21:23.455Z</time>
      </trkpt>
      <trkpt lat="41.51653" lon="20.55617">
        <ele>722.405114</ele>
        <time>2022-04-26T10:21:32.452Z</time>
      </trkpt>
      <trkpt lat="41.51644" lon="20.55609">
        <ele>723.066492</ele>
        <time>2022-04-26T10:21:40.452Z</time>
      </trkpt>
      <trkpt lat="41.51637" lon="20.55601">
        <ele>723.651773</ele>
        <time>2022-04-26T10:21:47.456Z</time>
      </trkpt>
      <trkpt lat="41.51629" lon="20.55595">
        <ele>724.25688</ele>
        <time>2022-04-26T10:21:54.452Z</time>
      </trkpt>
      <trkpt lat="41.51619" lon="20.55592">
        <ele>724.874629</ele>
        <time>2022-04-26T10:22:00.469Z</time>
      </trkpt>
      <trkpt lat="41.51611" lon="20.55585">
        <ele>725.4887</ele>
        <time>2022-04-26T10:22:08.460Z</time>
      </trkpt>
      <trkpt lat="41.51604" lon="20.55577">
        <ele>726.068057</ele>
        <time>2022-04-26T10:22:16.450Z</time>
      </trkpt>
      <trkpt lat="41.51597" lon="20.55567">
        <ele>726.701637</ele>
        <time>2022-04-26T10:22:25.461Z</time>
      </trkpt>
      <trkpt lat="41.51589" lon="20.55559">
        <ele>727.344777</ele>
        <time>2022-04-26T10:22:33.457Z</time>
      </trkpt>
      <trkpt lat="41.51583" lon="20.5555">
        <ele>727.920783</ele>
        <time>2022-04-26T10:22:40.480Z</time>
      </trkpt>
      <trkpt lat="41.51575" lon="20.55543">
        <ele>728.511179</ele>
        <time>2022-04-26T10:22:47.454Z</time>
      </trkpt>
      <trkpt lat="41.51568" lon="20.55534">
        <ele>729.105416</ele>
        <time>2022-04-26T10:22:55.454Z</time>
      </trkpt>
      <trkpt lat="41.5156" lon="20.55526">
        <ele>729.723989</ele>
        <time>2022-04-26T10:23:02.450Z</time>
      </trkpt>
      <trkpt lat="41.51553" lon="20.55519">
        <ele>730.299625</ele>
        <time>2022-04-26T10:23:11.447Z</time>
      </trkpt>
      <trkpt lat="41.51544" lon="20.55512">
        <ele>730.907949</ele>
        <time>2022-04-26T10:23:20.449Z</time>
      </trkpt>
      <trkpt lat="41.51536" lon="20.55506">
        <ele>731.520838</ele>
        <time>2022-04-26T10:23:28.447Z</time>
      </trkpt>
      <trkpt lat="41.51526" lon="20.55504">
        <ele>732.159667</ele>
        <time>2022-04-26T10:23:35.454Z</time>
      </trkpt>
      <trkpt lat="41.51516" lon="20.55503">
        <ele>732.799672</ele>
        <time>2022-04-26T10:23:43.475Z</time>
      </trkpt>
      <trkpt lat="41.51506" lon="20.55502">
        <ele>733.413328</ele>
        <time>2022-04-26T10:23:51.453Z</time>
      </trkpt>
      <trkpt lat="41.51497" lon="20.55501">
        <ele>734.01975</ele>
        <time>2022-04-26T10:23:58.457Z</time>
      </trkpt>
      <trkpt lat="41.51487" lon="20.555">
        <ele>734.684227</ele>
        <time>2022-04-26T10:24:05.452Z</time>
      </trkpt>
      <trkpt lat="41.51478" lon="20.55499">
        <ele>735.291249</ele>
        <time>2022-04-26T10:24:13.453Z</time>
      </trkpt>
      <trkpt lat="41.51469" lon="20.55495">
        <ele>735.968911</ele>
        <time>2022-04-26T10:24:20.462Z</time>
      </trkpt>
      <trkpt lat="41.51459" lon="20.5549">
        <ele>736.653767</ele>
        <time>2022-04-26T10:24:27.456Z</time>
      </trkpt>
      <trkpt lat="41.5145" lon="20.55484">
        <ele>737.312784</ele>
        <time>2022-04-26T10:24:35.451Z</time>
      </trkpt>
      <trkpt lat="41.51445" lon="20.55474">
        <ele>737.919561</ele>
        <time>2022-04-26T10:24:44.541Z</time>
      </trkpt>
      <trkpt lat="41.51442" lon="20.55462">
        <ele>738.560212</ele>
        <time>2022-04-26T10:24:52.454Z</time>
      </trkpt>
      <trkpt lat="41.51438" lon="20.55449">
        <ele>739.259931</ele>
        <time>2022-04-26T10:25:00.447Z</time>
      </trkpt>
      <trkpt lat="41.51436" lon="20.55436">
        <ele>739.90683</ele>
        <time>2022-04-26T10:25:07.442Z</time>
      </trkpt>
      <trkpt lat="41.51434" lon="20.55423">
        <ele>740.589177</ele>
        <time>2022-04-26T10:25:14.453Z</time>
      </trkpt>
      <trkpt lat="41.51433" lon="20.5541">
        <ele>741.266554</ele>
        <time>2022-04-26T10:25:21.449Z</time>
      </trkpt>
      <trkpt lat="41.51432" lon="20.55397">
        <ele>741.905856</ele>
        <time>2022-04-26T10:25:30.497Z</time>
      </trkpt>
      <trkpt lat="41.51434" lon="20.55384">
        <ele>742.567209</ele>
        <time>2022-04-26T10:25:38.503Z</time>
      </trkpt>
      <trkpt lat="41.51439" lon="20.55373">
        <ele>743.201905</ele>
        <time>2022-04-26T10:25:45.486Z</time>
      </trkpt>
      <trkpt lat="41.51446" lon="20.55364">
        <ele>743.862741</ele>
        <time>2022-04-26T10:25:51.471Z</time>
      </trkpt>
      <trkpt lat="41.51452" lon="20.55354">
        <ele>744.503963</ele>
        <time>2022-04-26T10:25:59.468Z</time>
      </trkpt>
      <trkpt lat="41.51459" lon="20.55344">
        <ele>745.238783</ele>
        <time>2022-04-26T10:26:07.469Z</time>
      </trkpt>
      <trkpt lat="41.51466" lon="20.55334">
        <ele>746.23643</ele>
        <time>2022-04-26T10:26:15.533Z</time>
      </trkpt>
      <trkpt lat="41.51473" lon="20.55325">
        <ele>747.204354</ele>
        <time>2022-04-26T10:26:23.493Z</time>
      </trkpt>
      <trkpt lat="41.51479" lon="20.55315">
        <ele>748.147559</ele>
        <time>2022-04-26T10:26:31.484Z</time>
      </trkpt>
      <trkpt lat="41.51486" lon="20.55307">
        <ele>749.063668</ele>
        <time>2022-04-26T10:26:39.521Z</time>
      </trkpt>
      <trkpt lat="41.51491" lon="20.55297">
        <ele>749.966341</ele>
        <time>2022-04-26T10:26:47.476Z</time>
      </trkpt>
      <trkpt lat="41.51496" lon="20.55287">
        <ele>750.88337</ele>
        <time>2022-04-26T10:26:55.477Z</time>
      </trkpt>
      <trkpt lat="41.51501" lon="20.55276">
        <ele>751.787066</ele>
        <time>2022-04-26T10:27:03.461Z</time>
      </trkpt>
      <trkpt lat="41.51507" lon="20.55267">
        <ele>752.679448</ele>
        <time>2022-04-26T10:27:10.491Z</time>
      </trkpt>
      <trkpt lat="41.51511" lon="20.55256">
        <ele>753.611537</ele>
        <time>2022-04-26T10:27:18.482Z</time>
      </trkpt>
      <trkpt lat="41.5151" lon="20.55243">
        <ele>754.547979</ele>
        <time>2022-04-26T10:27:26.462Z</time>
      </trkpt>
      <trkpt lat="41.51511" lon="20.55231">
        <ele>755.50375</ele>
        <time>2022-04-26T10:27:34.475Z</time>
      </trkpt>
      <trkpt lat="41.5151" lon="20.55218">
        <ele>756.403303</ele>
        <time>2022-04-26T10:27:42.485Z</time>
      </trkpt>
      <trkpt lat="41.51509" lon="20.55206">
        <ele>757.359892</ele>
        <time>2022-04-26T10:27:49.475Z</time>
      </trkpt>
      <trkpt lat="41.5151" lon="20.55192">
        <ele>758.354642</ele>
        <time>2022-04-26T10:27:57.491Z</time>
      </trkpt>
      <trkpt lat="41.51513" lon="20.55179">
        <ele>759.358264</ele>
        <time>2022-04-26T10:28:05.514Z</time>
      </trkpt>
      <trkpt lat="41.51516" lon="20.55167">
        <ele>760.306683</ele>
        <time>2022-04-26T10:28:12.501Z</time>
      </trkpt>
      <trkpt lat="41.51519" lon="20.55154">
        <ele>761.318313</ele>
        <time>2022-04-26T10:28:19.492Z</time>
      </trkpt>
      <trkpt lat="41.51523" lon="20.55143">
        <ele>762.245235</ele>
        <time>2022-04-26T10:28:27.491Z</time>
      </trkpt>
      <trkpt lat="41.51526" lon="20.55131">
        <ele>762.871564</ele>
        <time>2022-04-26T10:28:34.480Z</time>
      </trkpt>
      <trkpt lat="41.51531" lon="20.55119">
        <ele>762.904205</ele>
        <time>2022-04-26T10:28:41.495Z</time>
      </trkpt>
      <trkpt lat="41.51534" lon="20.55108">
        <ele>762.933068</ele>
        <time>2022-04-26T10:28:49.479Z</time>
      </trkpt>
      <trkpt lat="41.51536" lon="20.55096">
        <ele>762.962967</ele>
        <time>2022-04-26T10:28:56.468Z</time>
      </trkpt>
      <trkpt lat="41.51539" lon="20.55083">
        <ele>762.993314</ele>
        <time>2022-04-26T10:29:04.468Z</time>
      </trkpt>
      <trkpt lat="41.51541" lon="20.55072">
        <ele>763.02198</ele>
        <time>2022-04-26T10:29:12.471Z</time>
      </trkpt>
      <trkpt lat="41.5154" lon="20.55059">
        <ele>763.052518</ele>
        <time>2022-04-26T10:29:19.484Z</time>
      </trkpt>
      <trkpt lat="41.51539" lon="20.55047">
        <ele>763.082038</ele>
        <time>2022-04-26T10:29:27.465Z</time>
      </trkpt>
      <trkpt lat="41.51537" lon="20.55035">
        <ele>763.111316</ele>
        <time>2022-04-26T10:29:35.478Z</time>
      </trkpt>
      <trkpt lat="41.51535" lon="20.55023">
        <ele>763.14145</ele>
        <time>2022-04-26T10:29:43.458Z</time>
      </trkpt>
      <trkpt lat="41.51532" lon="20.5501">
        <ele>763.172024</ele>
        <time>2022-04-26T10:29:51.485Z</time>
      </trkpt>
      <trkpt lat="41.5153" lon="20.54997">
        <ele>763.204778</ele>
        <time>2022-04-26T10:29:59.462Z</time>
      </trkpt>
      <trkpt lat="41.51529" lon="20.54983">
        <ele>763.236977</ele>
        <time>2022-04-26T10:30:07.476Z</time>
      </trkpt>
      <trkpt lat="41.51517" lon="20.54984">
        <ele>763.274942</ele>
        <time>2022-04-26T10:32:11.467Z</time>
      </trkpt>
      <trkpt lat="41.51508" lon="20.54985">
        <ele>763.305043</ele>
        <time>2022-04-26T10:32:34.473Z</time>
      </trkpt>
      <trkpt lat="41.51523" lon="20.54981">
        <ele>763.355985</ele>
        <time>2022-04-26T10:45:47.476Z</time>
      </trkpt>
      <trkpt lat="41.51526" lon="20.54951">
        <ele>763.42828</ele>
        <time>2022-04-26T10:50:51.453Z</time>
      </trkpt>
      <trkpt lat="41.51525" lon="20.54927">
        <ele>763.297247</ele>
        <time>2022-04-26T10:50:57.595Z</time>
      </trkpt>
      <trkpt lat="41.51526" lon="20.54914">
        <ele>763.212927</ele>
        <time>2022-04-26T10:51:01.476Z</time>
      </trkpt>
      <trkpt lat="41.51526" lon="20.54898">
        <ele>763.104523</ele>
        <time>2022-04-26T10:51:05.523Z</time>
      </trkpt>
      <trkpt lat="41.51524" lon="20.54883">
        <ele>763.006218</ele>
        <time>2022-04-26T10:51:08.484Z</time>
      </trkpt>
      <trkpt lat="41.51521" lon="20.54866">
        <ele>762.890728</ele>
        <time>2022-04-26T10:51:11.513Z</time>
      </trkpt>
      <trkpt lat="41.51518" lon="20.54854">
        <ele>762.805763</ele>
        <time>2022-04-26T10:51:13.488Z</time>
      </trkpt>
      <trkpt lat="41.51516" lon="20.5484">
        <ele>762.713805</ele>
        <time>2022-04-26T10:51:15.495Z</time>
      </trkpt>
      <trkpt lat="41.51514" lon="20.54825">
        <ele>762.609857</ele>
        <time>2022-04-26T10:51:17.475Z</time>
      </trkpt>
      <trkpt lat="41.51513" lon="20.54809">
        <ele>762.504402</ele>
        <time>2022-04-26T10:51:19.484Z</time>
      </trkpt>
      <trkpt lat="41.51513" lon="20.54792">
        <ele>762.392016</ele>
        <time>2022-04-26T10:51:21.466Z</time>
      </trkpt>
      <trkpt lat="41.51512" lon="20.54773">
        <ele>762.266134</ele>
        <time>2022-04-26T10:51:23.486Z</time>
      </trkpt>
      <trkpt lat="41.51509" lon="20.54754">
        <ele>762.140431</ele>
        <time>2022-04-26T10:51:25.504Z</time>
      </trkpt>
      <trkpt lat="41.51504" lon="20.54737">
        <ele>762.017838</ele>
        <time>2022-04-26T10:51:27.474Z</time>
      </trkpt>
      <trkpt lat="41.51497" lon="20.54722">
        <ele>761.899436</ele>
        <time>2022-04-26T10:51:29.464Z</time>
      </trkpt>
      <trkpt lat="41.51487" lon="20.54709">
        <ele>761.453993</ele>
        <time>2022-04-26T10:51:31.474Z</time>
      </trkpt>
      <trkpt lat="41.51475" lon="20.54697">
        <ele>760.710173</ele>
        <time>2022-04-26T10:51:33.493Z</time>
      </trkpt>
      <trkpt lat="41.51463" lon="20.54687">
        <ele>760.00984</ele>
        <time>2022-04-26T10:51:35.482Z</time>
      </trkpt>
      <trkpt lat="41.51451" lon="20.54677">
        <ele>759.317337</ele>
        <time>2022-04-26T10:51:37.475Z</time>
      </trkpt>
      <trkpt lat="41.51439" lon="20.54668">
        <ele>758.599087</ele>
        <time>2022-04-26T10:51:39.510Z</time>
      </trkpt>
      <trkpt lat="41.51426" lon="20.54658">
        <ele>757.867843</ele>
        <time>2022-04-26T10:51:41.467Z</time>
      </trkpt>
      <trkpt lat="41.51414" lon="20.54647">
        <ele>757.134617</ele>
        <time>2022-04-26T10:51:43.485Z</time>
      </trkpt>
      <trkpt lat="41.51403" lon="20.54634">
        <ele>756.397912</ele>
        <time>2022-04-26T10:51:45.490Z</time>
      </trkpt>
      <trkpt lat="41.51393" lon="20.54617">
        <ele>755.609717</ele>
        <time>2022-04-26T10:51:47.472Z</time>
      </trkpt>
      <trkpt lat="41.51386" lon="20.54597">
        <ele>754.762562</ele>
        <time>2022-04-26T10:51:49.501Z</time>
      </trkpt>
      <trkpt lat="41.51382" lon="20.54575">
        <ele>753.919318</ele>
        <time>2022-04-26T10:51:51.462Z</time>
      </trkpt>
      <trkpt lat="41.51381" lon="20.54553">
        <ele>753.12181</ele>
        <time>2022-04-26T10:51:53.470Z</time>
      </trkpt>
      <trkpt lat="41.51382" lon="20.54533">
        <ele>752.198791</ele>
        <time>2022-04-26T10:51:55.471Z</time>
      </trkpt>
      <trkpt lat="41.51383" lon="20.54511">
        <ele>751.10296</ele>
        <time>2022-04-26T10:51:57.473Z</time>
      </trkpt>
      <trkpt lat="41.51385" lon="20.54489">
        <ele>750.028686</ele>
        <time>2022-04-26T10:51:59.489Z</time>
      </trkpt>
      <trkpt lat="41.51389" lon="20.54466">
        <ele>748.913841</ele>
        <time>2022-04-26T10:52:01.491Z</time>
      </trkpt>
      <trkpt lat="41.51395" lon="20.54444">
        <ele>747.752332</ele>
        <time>2022-04-26T10:52:03.487Z</time>
      </trkpt>
      <trkpt lat="41.51399" lon="20.54433">
        <ele>747.155292</ele>
        <time>2022-04-26T10:52:04.499Z</time>
      </trkpt>
      <trkpt lat="41.51403" lon="20.54421">
        <ele>746.544167</ele>
        <time>2022-04-26T10:52:05.480Z</time>
      </trkpt>
      <trkpt lat="41.51406" lon="20.5441">
        <ele>745.946357</ele>
        <time>2022-04-26T10:52:06.485Z</time>
      </trkpt>
      <trkpt lat="41.51409" lon="20.54398">
        <ele>745.337935</ele>
        <time>2022-04-26T10:52:07.460Z</time>
      </trkpt>
      <trkpt lat="41.51412" lon="20.54386">
        <ele>744.72778</ele>
        <time>2022-04-26T10:52:08.468Z</time>
      </trkpt>
      <trkpt lat="41.51416" lon="20.54375">
        <ele>744.131667</ele>
        <time>2022-04-26T10:52:09.474Z</time>
      </trkpt>
      <trkpt lat="41.51421" lon="20.54364">
        <ele>743.535685</ele>
        <time>2022-04-26T10:52:10.471Z</time>
      </trkpt>
      <trkpt lat="41.5143" lon="20.54344">
        <ele>742.401249</ele>
        <time>2022-04-26T10:52:12.475Z</time>
      </trkpt>
      <trkpt lat="41.51435" lon="20.54334">
        <ele>741.809572</ele>
        <time>2022-04-26T10:52:13.468Z</time>
      </trkpt>
      <trkpt lat="41.5144" lon="20.54324">
        <ele>741.221842</ele>
        <time>2022-04-26T10:52:14.466Z</time>
      </trkpt>
      <trkpt lat="41.5145" lon="20.54306">
        <ele>739.86748</ele>
        <time>2022-04-26T10:52:16.471Z</time>
      </trkpt>
      <trkpt lat="41.51456" lon="20.54287">
        <ele>738.642893</ele>
        <time>2022-04-26T10:52:18.507Z</time>
      </trkpt>
      <trkpt lat="41.5146" lon="20.54265">
        <ele>737.283044</ele>
        <time>2022-04-26T10:52:20.480Z</time>
      </trkpt>
      <trkpt lat="41.51464" lon="20.54243">
        <ele>735.916157</ele>
        <time>2022-04-26T10:52:22.494Z</time>
      </trkpt>
      <trkpt lat="41.5147" lon="20.54221">
        <ele>734.543915</ele>
        <time>2022-04-26T10:52:24.479Z</time>
      </trkpt>
      <trkpt lat="41.51476" lon="20.54198">
        <ele>733.101559</ele>
        <time>2022-04-26T10:52:26.491Z</time>
      </trkpt>
      <trkpt lat="41.51479" lon="20.54175">
        <ele>731.698024</ele>
        <time>2022-04-26T10:52:28.476Z</time>
      </trkpt>
      <trkpt lat="41.5148" lon="20.54152">
        <ele>730.288703</ele>
        <time>2022-04-26T10:52:30.481Z</time>
      </trkpt>
      <trkpt lat="41.51479" lon="20.5414">
        <ele>729.571404</ele>
        <time>2022-04-26T10:52:31.484Z</time>
      </trkpt>
      <trkpt lat="41.51477" lon="20.54117">
        <ele>728.21609</ele>
        <time>2022-04-26T10:52:33.470Z</time>
      </trkpt>
      <trkpt lat="41.51473" lon="20.54097">
        <ele>726.969712</ele>
        <time>2022-04-26T10:52:35.465Z</time>
      </trkpt>
      <trkpt lat="41.51467" lon="20.54079">
        <ele>725.250374</ele>
        <time>2022-04-26T10:52:37.485Z</time>
      </trkpt>
      <trkpt lat="41.51462" lon="20.54064">
        <ele>723.679977</ele>
        <time>2022-04-26T10:52:39.471Z</time>
      </trkpt>
      <trkpt lat="41.51457" lon="20.54049">
        <ele>722.155588</ele>
        <time>2022-04-26T10:52:41.477Z</time>
      </trkpt>
      <trkpt lat="41.51454" lon="20.54034">
        <ele>720.777769</ele>
        <time>2022-04-26T10:52:43.473Z</time>
      </trkpt>
      <trkpt lat="41.51453" lon="20.54019">
        <ele>719.406302</ele>
        <time>2022-04-26T10:52:45.482Z</time>
      </trkpt>
      <trkpt lat="41.51454" lon="20.54004">
        <ele>717.943043</ele>
        <time>2022-04-26T10:52:47.466Z</time>
      </trkpt>
      <trkpt lat="41.51457" lon="20.53988">
        <ele>716.462917</ele>
        <time>2022-04-26T10:52:49.483Z</time>
      </trkpt>
      <trkpt lat="41.5146" lon="20.53972">
        <ele>714.943524</ele>
        <time>2022-04-26T10:52:51.473Z</time>
      </trkpt>
      <trkpt lat="41.51463" lon="20.53956">
        <ele>713.434462</ele>
        <time>2022-04-26T10:52:53.529Z</time>
      </trkpt>
      <trkpt lat="41.51466" lon="20.53939">
        <ele>711.777795</ele>
        <time>2022-04-26T10:52:55.470Z</time>
      </trkpt>
      <trkpt lat="41.51467" lon="20.53921">
        <ele>710.145707</ele>
        <time>2022-04-26T10:52:57.466Z</time>
      </trkpt>
      <trkpt lat="41.51467" lon="20.53904">
        <ele>708.583365</ele>
        <time>2022-04-26T10:52:59.456Z</time>
      </trkpt>
      <trkpt lat="41.51465" lon="20.53888">
        <ele>707.060241</ele>
        <time>2022-04-26T10:53:01.509Z</time>
      </trkpt>
      <trkpt lat="41.51463" lon="20.53871">
        <ele>705.53949</ele>
        <time>2022-04-26T10:53:03.516Z</time>
      </trkpt>
      <trkpt lat="41.51464" lon="20.53856">
        <ele>704.459087</ele>
        <time>2022-04-26T10:53:05.475Z</time>
      </trkpt>
      <trkpt lat="41.51468" lon="20.53841">
        <ele>703.813464</ele>
        <time>2022-04-26T10:53:07.489Z</time>
      </trkpt>
      <trkpt lat="41.51474" lon="20.53827">
        <ele>703.112539</ele>
        <time>2022-04-26T10:53:09.513Z</time>
      </trkpt>
      <trkpt lat="41.51484" lon="20.53814">
        <ele>702.352779</ele>
        <time>2022-04-26T10:53:11.495Z</time>
      </trkpt>
      <trkpt lat="41.51495" lon="20.53804">
        <ele>701.632924</ele>
        <time>2022-04-26T10:53:13.511Z</time>
      </trkpt>
      <trkpt lat="41.51506" lon="20.53793">
        <ele>700.865688</ele>
        <time>2022-04-26T10:53:15.505Z</time>
      </trkpt>
      <trkpt lat="41.51517" lon="20.53781">
        <ele>700.088154</ele>
        <time>2022-04-26T10:53:17.468Z</time>
      </trkpt>
      <trkpt lat="41.51528" lon="20.53768">
        <ele>699.284482</ele>
        <time>2022-04-26T10:53:19.474Z</time>
      </trkpt>
      <trkpt lat="41.51537" lon="20.53752">
        <ele>698.466528</ele>
        <time>2022-04-26T10:53:21.474Z</time>
      </trkpt>
      <trkpt lat="41.51547" lon="20.53737">
        <ele>697.603541</ele>
        <time>2022-04-26T10:53:23.478Z</time>
      </trkpt>
      <trkpt lat="41.51559" lon="20.53722">
        <ele>696.720974</ele>
        <time>2022-04-26T10:53:25.473Z</time>
      </trkpt>
      <trkpt lat="41.51572" lon="20.5371">
        <ele>695.857654</ele>
        <time>2022-04-26T10:53:27.515Z</time>
      </trkpt>
      <trkpt lat="41.51586" lon="20.53701">
        <ele>695.001488</ele>
        <time>2022-04-26T10:53:29.481Z</time>
      </trkpt>
      <trkpt lat="41.516" lon="20.5369">
        <ele>694.596351</ele>
        <time>2022-04-26T10:53:31.455Z</time>
      </trkpt>
      <trkpt lat="41.51613" lon="20.5368">
        <ele>694.34719</ele>
        <time>2022-04-26T10:53:33.473Z</time>
      </trkpt>
      <trkpt lat="41.51626" lon="20.53667">
        <ele>694.09674</ele>
        <time>2022-04-26T10:53:35.486Z</time>
      </trkpt>
      <trkpt lat="41.51636" lon="20.53652">
        <ele>693.863973</ele>
        <time>2022-04-26T10:53:37.522Z</time>
      </trkpt>
      <trkpt lat="41.51644" lon="20.53635">
        <ele>693.623122</ele>
        <time>2022-04-26T10:53:39.468Z</time>
      </trkpt>
      <trkpt lat="41.51649" lon="20.53614">
        <ele>693.359491</ele>
        <time>2022-04-26T10:53:41.469Z</time>
      </trkpt>
      <trkpt lat="41.51653" lon="20.53593">
        <ele>693.103206</ele>
        <time>2022-04-26T10:53:43.474Z</time>
      </trkpt>
      <trkpt lat="41.51653" lon="20.53573">
        <ele>692.864311</ele>
        <time>2022-04-26T10:53:45.474Z</time>
      </trkpt>
      <trkpt lat="41.51651" lon="20.53555">
        <ele>692.648675</ele>
        <time>2022-04-26T10:53:47.512Z</time>
      </trkpt>
      <trkpt lat="41.51646" lon="20.53539">
        <ele>692.455381</ele>
        <time>2022-04-26T10:53:49.467Z</time>
      </trkpt>
      <trkpt lat="41.51642" lon="20.53527">
        <ele>692.291623</ele>
        <time>2022-04-26T10:53:51.470Z</time>
      </trkpt>
      <trkpt lat="41.51637" lon="20.53511">
        <ele>692.087299</ele>
        <time>2022-04-26T10:53:54.466Z</time>
      </trkpt>
      <trkpt lat="41.51632" lon="20.535">
        <ele>691.952621</ele>
        <time>2022-04-26T10:53:57.474Z</time>
      </trkpt>
      <trkpt lat="41.51629" lon="20.53488">
        <ele>691.952621</ele>
        <time>2022-04-26T10:54:02.494Z</time>
      </trkpt>
      <trkpt lat="41.51625" lon="20.53476">
        <ele>691.952621</ele>
        <time>2022-04-26T10:54:09.486Z</time>
      </trkpt>
      <trkpt lat="41.5162" lon="20.53466">
        <ele>691.952621</ele>
        <time>2022-04-26T10:54:15.478Z</time>
      </trkpt>
      <trkpt lat="41.51616" lon="20.53454">
        <ele>691.952621</ele>
        <time>2022-04-26T10:54:21.511Z</time>
      </trkpt>
      <trkpt lat="41.51613" lon="20.53442">
        <ele>691.952621</ele>
        <time>2022-04-26T10:54:27.510Z</time>
      </trkpt>
      <trkpt lat="41.51609" lon="20.5343">
        <ele>691.952621</ele>
        <time>2022-04-26T10:54:33.465Z</time>
      </trkpt>
      <trkpt lat="41.51606" lon="20.53418">
        <ele>691.952621</ele>
        <time>2022-04-26T10:54:39.491Z</time>
      </trkpt>
      <trkpt lat="41.51605" lon="20.53406">
        <ele>691.952621</ele>
        <time>2022-04-26T10:54:46.504Z</time>
      </trkpt>
      <trkpt lat="41.51603" lon="20.53393">
        <ele>691.952621</ele>
        <time>2022-04-26T10:54:52.488Z</time>
      </trkpt>
      <trkpt lat="41.51603" lon="20.53381">
        <ele>691.952621</ele>
        <time>2022-04-26T10:54:59.488Z</time>
      </trkpt>
      <trkpt lat="41.51604" lon="20.53369">
        <ele>691.952621</ele>
        <time>2022-04-26T10:55:07.453Z</time>
      </trkpt>
      <trkpt lat="41.51606" lon="20.53357">
        <ele>691.952621</ele>
        <time>2022-04-26T10:55:15.482Z</time>
      </trkpt>
      <trkpt lat="41.51606" lon="20.53345">
        <ele>691.952621</ele>
        <time>2022-04-26T10:55:22.477Z</time>
      </trkpt>
      <trkpt lat="41.51605" lon="20.53332">
        <ele>691.952621</ele>
        <time>2022-04-26T10:55:29.475Z</time>
      </trkpt>
      <trkpt lat="41.51595" lon="20.53328">
        <ele>691.952621</ele>
        <time>2022-04-26T10:55:38.463Z</time>
      </trkpt>
      <trkpt lat="41.51589" lon="20.53327">
        <ele>691.952621</ele>
        <time>2022-04-26T10:57:25.569Z</time>
      </trkpt>
    </trkseg>
  </trk>
</gpx>